<?xml version="1.0" encoding="UTF-8" standalone="no" ?>
<gpx xmlns="http://www.topografix.com/GPX/1/1" xmlns:xsi="http://www.w3.org/2001/XMLSchema-instance" xsi:schemaLocation="http://www.topografix.com/GPX/1/1 http://www.topografix.com/GPX/1/1/gpx.xsd" version="1.1" creator="VisuGPX - https://www.visugpx.com">
  <metadata>
    <name>RandoAmicaleCycloDesHautesVosges-Fays</name>
    <desc><![CDATA[Randonnée Amicale Cyclo des Hautes Vosges - Fays - 9 Avril 2017]]></desc>
  </metadata>
  <trk>
    <name><![CDATA[Tracé actuel: 09 AVR 2017 09:04]]></name>
    <trkseg>
      <trkpt lat="48.19142" lon="6.67405">
        <ele>364</ele>
        <time>2017-04-09T07:04:56Z</time>
      </trkpt>
      <trkpt lat="48.19145" lon="6.67383">
        <ele>365.44</ele>
        <time>2017-04-09T07:05:00Z</time>
      </trkpt>
      <trkpt lat="48.19151" lon="6.67353">
        <ele>373.61</ele>
        <time>2017-04-09T07:05:04Z</time>
      </trkpt>
      <trkpt lat="48.19142" lon="6.67346">
        <ele>385.63</ele>
        <time>2017-04-09T07:05:08Z</time>
      </trkpt>
      <trkpt lat="48.19134" lon="6.67339">
        <ele>396.2</ele>
        <time>2017-04-09T07:05:12Z</time>
      </trkpt>
      <trkpt lat="48.19125" lon="6.67332">
        <ele>404.37</ele>
        <time>2017-04-09T07:05:16Z</time>
      </trkpt>
      <trkpt lat="48.19116" lon="6.67327">
        <ele>413.02</ele>
        <time>2017-04-09T07:05:20Z</time>
      </trkpt>
      <trkpt lat="48.19107" lon="6.67321">
        <ele>420.71</ele>
        <time>2017-04-09T07:05:24Z</time>
      </trkpt>
      <trkpt lat="48.19098" lon="6.67313">
        <ele>426.48</ele>
        <time>2017-04-09T07:05:28Z</time>
      </trkpt>
      <trkpt lat="48.19089" lon="6.67309">
        <ele>432.25</ele>
        <time>2017-04-09T07:05:32Z</time>
      </trkpt>
      <trkpt lat="48.19079" lon="6.67307">
        <ele>436.58</ele>
        <time>2017-04-09T07:05:36Z</time>
      </trkpt>
      <trkpt lat="48.1907" lon="6.67304">
        <ele>440.9</ele>
        <time>2017-04-09T07:05:40Z</time>
      </trkpt>
      <trkpt lat="48.1906" lon="6.67302">
        <ele>445.23</ele>
        <time>2017-04-09T07:05:44Z</time>
      </trkpt>
      <trkpt lat="48.19051" lon="6.67296">
        <ele>448.59</ele>
        <time>2017-04-09T07:05:48Z</time>
      </trkpt>
      <trkpt lat="48.19043" lon="6.67288">
        <ele>451.96</ele>
        <time>2017-04-09T07:05:52Z</time>
      </trkpt>
      <trkpt lat="48.19035" lon="6.67279">
        <ele>454.84</ele>
        <time>2017-04-09T07:05:56Z</time>
      </trkpt>
      <trkpt lat="48.19027" lon="6.67271">
        <ele>456.76</ele>
        <time>2017-04-09T07:06:00Z</time>
      </trkpt>
      <trkpt lat="48.19018" lon="6.67262">
        <ele>459.17</ele>
        <time>2017-04-09T07:06:04Z</time>
      </trkpt>
      <trkpt lat="48.19008" lon="6.67255">
        <ele>461.09</ele>
        <time>2017-04-09T07:06:08Z</time>
      </trkpt>
      <trkpt lat="48.18998" lon="6.67248">
        <ele>462.05</ele>
        <time>2017-04-09T07:06:12Z</time>
      </trkpt>
      <trkpt lat="48.18987" lon="6.67243">
        <ele>463.97</ele>
        <time>2017-04-09T07:06:16Z</time>
      </trkpt>
      <trkpt lat="48.18976" lon="6.6724">
        <ele>464.93</ele>
        <time>2017-04-09T07:06:20Z</time>
      </trkpt>
      <trkpt lat="48.18965" lon="6.67237">
        <ele>466.38</ele>
        <time>2017-04-09T07:06:24Z</time>
      </trkpt>
      <trkpt lat="48.18953" lon="6.67236">
        <ele>467.34</ele>
        <time>2017-04-09T07:06:28Z</time>
      </trkpt>
      <trkpt lat="48.18944" lon="6.67238">
        <ele>468.3</ele>
        <time>2017-04-09T07:06:31Z</time>
      </trkpt>
      <trkpt lat="48.18935" lon="6.67243">
        <ele>468.78</ele>
        <time>2017-04-09T07:06:34Z</time>
      </trkpt>
      <trkpt lat="48.18926" lon="6.67251">
        <ele>469.26</ele>
        <time>2017-04-09T07:06:37Z</time>
      </trkpt>
      <trkpt lat="48.1892" lon="6.67263">
        <ele>469.74</ele>
        <time>2017-04-09T07:06:40Z</time>
      </trkpt>
      <trkpt lat="48.18915" lon="6.67278">
        <ele>469.74</ele>
        <time>2017-04-09T07:06:43Z</time>
      </trkpt>
      <trkpt lat="48.18913" lon="6.67293">
        <ele>470.22</ele>
        <time>2017-04-09T07:06:46Z</time>
      </trkpt>
      <trkpt lat="48.18908" lon="6.67309">
        <ele>470.7</ele>
        <time>2017-04-09T07:06:49Z</time>
      </trkpt>
      <trkpt lat="48.18904" lon="6.67326">
        <ele>470.22</ele>
        <time>2017-04-09T07:06:52Z</time>
      </trkpt>
      <trkpt lat="48.18899" lon="6.67344">
        <ele>471.66</ele>
        <time>2017-04-09T07:06:55Z</time>
      </trkpt>
      <trkpt lat="48.18894" lon="6.67361">
        <ele>471.66</ele>
        <time>2017-04-09T07:06:58Z</time>
      </trkpt>
      <trkpt lat="48.18889" lon="6.67379">
        <ele>471.18</ele>
        <time>2017-04-09T07:07:01Z</time>
      </trkpt>
      <trkpt lat="48.18884" lon="6.67396">
        <ele>471.66</ele>
        <time>2017-04-09T07:07:04Z</time>
      </trkpt>
      <trkpt lat="48.18879" lon="6.67413">
        <ele>472.63</ele>
        <time>2017-04-09T07:07:07Z</time>
      </trkpt>
      <trkpt lat="48.18874" lon="6.67431">
        <ele>471.66</ele>
        <time>2017-04-09T07:07:10Z</time>
      </trkpt>
      <trkpt lat="48.18869" lon="6.67448">
        <ele>471.66</ele>
        <time>2017-04-09T07:07:13Z</time>
      </trkpt>
      <trkpt lat="48.18865" lon="6.67465">
        <ele>472.14</ele>
        <time>2017-04-09T07:07:16Z</time>
      </trkpt>
      <trkpt lat="48.1886" lon="6.67481">
        <ele>472.14</ele>
        <time>2017-04-09T07:07:19Z</time>
      </trkpt>
      <trkpt lat="48.18856" lon="6.67497">
        <ele>472.14</ele>
        <time>2017-04-09T07:07:22Z</time>
      </trkpt>
      <trkpt lat="48.18851" lon="6.67513">
        <ele>472.63</ele>
        <time>2017-04-09T07:07:25Z</time>
      </trkpt>
      <trkpt lat="48.18848" lon="6.6753">
        <ele>472.63</ele>
        <time>2017-04-09T07:07:28Z</time>
      </trkpt>
      <trkpt lat="48.18844" lon="6.67547">
        <ele>473.59</ele>
        <time>2017-04-09T07:07:31Z</time>
      </trkpt>
      <trkpt lat="48.18841" lon="6.67564">
        <ele>473.59</ele>
        <time>2017-04-09T07:07:34Z</time>
      </trkpt>
      <trkpt lat="48.18838" lon="6.67582">
        <ele>473.11</ele>
        <time>2017-04-09T07:07:37Z</time>
      </trkpt>
      <trkpt lat="48.18835" lon="6.676">
        <ele>473.59</ele>
        <time>2017-04-09T07:07:40Z</time>
      </trkpt>
      <trkpt lat="48.18832" lon="6.67617">
        <ele>474.07</ele>
        <time>2017-04-09T07:07:43Z</time>
      </trkpt>
      <trkpt lat="48.18829" lon="6.67634">
        <ele>474.07</ele>
        <time>2017-04-09T07:07:46Z</time>
      </trkpt>
      <trkpt lat="48.18826" lon="6.67651">
        <ele>473.59</ele>
        <time>2017-04-09T07:07:49Z</time>
      </trkpt>
      <trkpt lat="48.18823" lon="6.67668">
        <ele>474.55</ele>
        <time>2017-04-09T07:07:52Z</time>
      </trkpt>
      <trkpt lat="48.1882" lon="6.67685">
        <ele>474.07</ele>
        <time>2017-04-09T07:07:55Z</time>
      </trkpt>
      <trkpt lat="48.18818" lon="6.67704">
        <ele>474.07</ele>
        <time>2017-04-09T07:07:58Z</time>
      </trkpt>
      <trkpt lat="48.18814" lon="6.67723">
        <ele>473.59</ele>
        <time>2017-04-09T07:08:01Z</time>
      </trkpt>
      <trkpt lat="48.18812" lon="6.67736">
        <ele>473.59</ele>
        <time>2017-04-09T07:08:03Z</time>
      </trkpt>
      <trkpt lat="48.18809" lon="6.67749">
        <ele>473.11</ele>
        <time>2017-04-09T07:08:05Z</time>
      </trkpt>
      <trkpt lat="48.18805" lon="6.67762">
        <ele>473.11</ele>
        <time>2017-04-09T07:08:07Z</time>
      </trkpt>
      <trkpt lat="48.18798" lon="6.67779">
        <ele>472.14</ele>
        <time>2017-04-09T07:08:10Z</time>
      </trkpt>
      <trkpt lat="48.18792" lon="6.67794">
        <ele>471.18</ele>
        <time>2017-04-09T07:08:13Z</time>
      </trkpt>
      <trkpt lat="48.18786" lon="6.67806">
        <ele>471.18</ele>
        <time>2017-04-09T07:08:16Z</time>
      </trkpt>
      <trkpt lat="48.18775" lon="6.67809">
        <ele>471.18</ele>
        <time>2017-04-09T07:08:20Z</time>
      </trkpt>
      <trkpt lat="48.18764" lon="6.67805">
        <ele>471.66</ele>
        <time>2017-04-09T07:08:23Z</time>
      </trkpt>
      <trkpt lat="48.18755" lon="6.67797">
        <ele>472.14</ele>
        <time>2017-04-09T07:08:26Z</time>
      </trkpt>
      <trkpt lat="48.18749" lon="6.67786">
        <ele>473.11</ele>
        <time>2017-04-09T07:08:29Z</time>
      </trkpt>
      <trkpt lat="48.18742" lon="6.67775">
        <ele>473.11</ele>
        <time>2017-04-09T07:08:32Z</time>
      </trkpt>
      <trkpt lat="48.18732" lon="6.67767">
        <ele>472.63</ele>
        <time>2017-04-09T07:08:35Z</time>
      </trkpt>
      <trkpt lat="48.18723" lon="6.67772">
        <ele>472.63</ele>
        <time>2017-04-09T07:08:38Z</time>
      </trkpt>
      <trkpt lat="48.18716" lon="6.67789">
        <ele>472.14</ele>
        <time>2017-04-09T07:08:41Z</time>
      </trkpt>
      <trkpt lat="48.18711" lon="6.67801">
        <ele>472.14</ele>
        <time>2017-04-09T07:08:43Z</time>
      </trkpt>
      <trkpt lat="48.18706" lon="6.67812">
        <ele>472.14</ele>
        <time>2017-04-09T07:08:45Z</time>
      </trkpt>
      <trkpt lat="48.18701" lon="6.67823">
        <ele>472.14</ele>
        <time>2017-04-09T07:08:47Z</time>
      </trkpt>
      <trkpt lat="48.18696" lon="6.67835">
        <ele>471.66</ele>
        <time>2017-04-09T07:08:49Z</time>
      </trkpt>
      <trkpt lat="48.18691" lon="6.67846">
        <ele>472.14</ele>
        <time>2017-04-09T07:08:51Z</time>
      </trkpt>
      <trkpt lat="48.18686" lon="6.67858">
        <ele>472.14</ele>
        <time>2017-04-09T07:08:53Z</time>
      </trkpt>
      <trkpt lat="48.18681" lon="6.6787">
        <ele>471.66</ele>
        <time>2017-04-09T07:08:55Z</time>
      </trkpt>
      <trkpt lat="48.18676" lon="6.67882">
        <ele>471.18</ele>
        <time>2017-04-09T07:08:57Z</time>
      </trkpt>
      <trkpt lat="48.18671" lon="6.67894">
        <ele>471.66</ele>
        <time>2017-04-09T07:08:59Z</time>
      </trkpt>
      <trkpt lat="48.18667" lon="6.67906">
        <ele>471.18</ele>
        <time>2017-04-09T07:09:01Z</time>
      </trkpt>
      <trkpt lat="48.18661" lon="6.67921">
        <ele>471.66</ele>
        <time>2017-04-09T07:09:04Z</time>
      </trkpt>
      <trkpt lat="48.18655" lon="6.67934">
        <ele>471.66</ele>
        <time>2017-04-09T07:09:07Z</time>
      </trkpt>
      <trkpt lat="48.18649" lon="6.67947">
        <ele>471.66</ele>
        <time>2017-04-09T07:09:10Z</time>
      </trkpt>
      <trkpt lat="48.18641" lon="6.67959">
        <ele>471.18</ele>
        <time>2017-04-09T07:09:13Z</time>
      </trkpt>
      <trkpt lat="48.18634" lon="6.67971">
        <ele>470.7</ele>
        <time>2017-04-09T07:09:16Z</time>
      </trkpt>
      <trkpt lat="48.18624" lon="6.67983">
        <ele>469.74</ele>
        <time>2017-04-09T07:09:19Z</time>
      </trkpt>
      <trkpt lat="48.18614" lon="6.67995">
        <ele>468.78</ele>
        <time>2017-04-09T07:09:22Z</time>
      </trkpt>
      <trkpt lat="48.18607" lon="6.68004">
        <ele>467.82</ele>
        <time>2017-04-09T07:09:24Z</time>
      </trkpt>
      <trkpt lat="48.18598" lon="6.68012">
        <ele>467.34</ele>
        <time>2017-04-09T07:09:26Z</time>
      </trkpt>
      <trkpt lat="48.18588" lon="6.68018">
        <ele>466.86</ele>
        <time>2017-04-09T07:09:28Z</time>
      </trkpt>
      <trkpt lat="48.18578" lon="6.68022">
        <ele>464.93</ele>
        <time>2017-04-09T07:09:30Z</time>
      </trkpt>
      <trkpt lat="48.18567" lon="6.68023">
        <ele>463.97</ele>
        <time>2017-04-09T07:09:32Z</time>
      </trkpt>
      <trkpt lat="48.18556" lon="6.68022">
        <ele>463.01</ele>
        <time>2017-04-09T07:09:34Z</time>
      </trkpt>
      <trkpt lat="48.18547" lon="6.68015">
        <ele>462.05</ele>
        <time>2017-04-09T07:09:36Z</time>
      </trkpt>
      <trkpt lat="48.18536" lon="6.68007">
        <ele>461.09</ele>
        <time>2017-04-09T07:09:38Z</time>
      </trkpt>
      <trkpt lat="48.18526" lon="6.68008">
        <ele>460.13</ele>
        <time>2017-04-09T07:09:41Z</time>
      </trkpt>
      <trkpt lat="48.18515" lon="6.68009">
        <ele>458.69</ele>
        <time>2017-04-09T07:09:44Z</time>
      </trkpt>
      <trkpt lat="48.18506" lon="6.68012">
        <ele>456.76</ele>
        <time>2017-04-09T07:09:48Z</time>
      </trkpt>
      <trkpt lat="48.18501" lon="6.68028">
        <ele>454.84</ele>
        <time>2017-04-09T07:09:52Z</time>
      </trkpt>
      <trkpt lat="48.18495" lon="6.6804">
        <ele>452.44</ele>
        <time>2017-04-09T07:09:55Z</time>
      </trkpt>
      <trkpt lat="48.18491" lon="6.68053">
        <ele>450.52</ele>
        <time>2017-04-09T07:09:58Z</time>
      </trkpt>
      <trkpt lat="48.18488" lon="6.68067">
        <ele>449.55</ele>
        <time>2017-04-09T07:10:01Z</time>
      </trkpt>
      <trkpt lat="48.18486" lon="6.68085">
        <ele>448.11</ele>
        <time>2017-04-09T07:10:05Z</time>
      </trkpt>
      <trkpt lat="48.18485" lon="6.68103">
        <ele>446.19</ele>
        <time>2017-04-09T07:10:10Z</time>
      </trkpt>
      <trkpt lat="48.18481" lon="6.68121">
        <ele>443.79</ele>
        <time>2017-04-09T07:10:13Z</time>
      </trkpt>
      <trkpt lat="48.18476" lon="6.68135">
        <ele>441.86</ele>
        <time>2017-04-09T07:10:15Z</time>
      </trkpt>
      <trkpt lat="48.1847" lon="6.68152">
        <ele>440.42</ele>
        <time>2017-04-09T07:10:17Z</time>
      </trkpt>
      <trkpt lat="48.18462" lon="6.68164">
        <ele>439.46</ele>
        <time>2017-04-09T07:10:19Z</time>
      </trkpt>
      <trkpt lat="48.18454" lon="6.68175">
        <ele>437.06</ele>
        <time>2017-04-09T07:10:21Z</time>
      </trkpt>
      <trkpt lat="48.18445" lon="6.68188">
        <ele>434.17</ele>
        <time>2017-04-09T07:10:24Z</time>
      </trkpt>
      <trkpt lat="48.18432" lon="6.68189">
        <ele>432.25</ele>
        <time>2017-04-09T07:10:27Z</time>
      </trkpt>
      <trkpt lat="48.1842" lon="6.6819">
        <ele>429.85</ele>
        <time>2017-04-09T07:10:29Z</time>
      </trkpt>
      <trkpt lat="48.18406" lon="6.68193">
        <ele>427.92</ele>
        <time>2017-04-09T07:10:31Z</time>
      </trkpt>
      <trkpt lat="48.18393" lon="6.68192">
        <ele>426.48</ele>
        <time>2017-04-09T07:10:34Z</time>
      </trkpt>
      <trkpt lat="48.1838" lon="6.68195">
        <ele>424.56</ele>
        <time>2017-04-09T07:10:37Z</time>
      </trkpt>
      <trkpt lat="48.18368" lon="6.68203">
        <ele>422.64</ele>
        <time>2017-04-09T07:10:40Z</time>
      </trkpt>
      <trkpt lat="48.18359" lon="6.68212">
        <ele>421.19</ele>
        <time>2017-04-09T07:10:42Z</time>
      </trkpt>
      <trkpt lat="48.1835" lon="6.68219">
        <ele>418.79</ele>
        <time>2017-04-09T07:10:44Z</time>
      </trkpt>
      <trkpt lat="48.18341" lon="6.68224">
        <ele>417.35</ele>
        <time>2017-04-09T07:10:46Z</time>
      </trkpt>
      <trkpt lat="48.18331" lon="6.68223">
        <ele>416.87</ele>
        <time>2017-04-09T07:10:48Z</time>
      </trkpt>
      <trkpt lat="48.18322" lon="6.68223">
        <ele>415.43</ele>
        <time>2017-04-09T07:10:50Z</time>
      </trkpt>
      <trkpt lat="48.18311" lon="6.68225">
        <ele>413.5</ele>
        <time>2017-04-09T07:10:52Z</time>
      </trkpt>
      <trkpt lat="48.18301" lon="6.68228">
        <ele>412.06</ele>
        <time>2017-04-09T07:10:54Z</time>
      </trkpt>
      <trkpt lat="48.18289" lon="6.68231">
        <ele>412.06</ele>
        <time>2017-04-09T07:10:57Z</time>
      </trkpt>
      <trkpt lat="48.18278" lon="6.68233">
        <ele>411.1</ele>
        <time>2017-04-09T07:11:00Z</time>
      </trkpt>
      <trkpt lat="48.18267" lon="6.68234">
        <ele>411.58</ele>
        <time>2017-04-09T07:11:06Z</time>
      </trkpt>
      <trkpt lat="48.18256" lon="6.68225">
        <ele>411.1</ele>
        <time>2017-04-09T07:11:11Z</time>
      </trkpt>
      <trkpt lat="48.18245" lon="6.68215">
        <ele>410.14</ele>
        <time>2017-04-09T07:11:14Z</time>
      </trkpt>
      <trkpt lat="48.18235" lon="6.68206">
        <ele>410.14</ele>
        <time>2017-04-09T07:11:16Z</time>
      </trkpt>
      <trkpt lat="48.18225" lon="6.68196">
        <ele>410.62</ele>
        <time>2017-04-09T07:11:18Z</time>
      </trkpt>
      <trkpt lat="48.18215" lon="6.68187">
        <ele>410.62</ele>
        <time>2017-04-09T07:11:20Z</time>
      </trkpt>
      <trkpt lat="48.18207" lon="6.68177">
        <ele>411.1</ele>
        <time>2017-04-09T07:11:22Z</time>
      </trkpt>
      <trkpt lat="48.18199" lon="6.68167">
        <ele>411.58</ele>
        <time>2017-04-09T07:11:24Z</time>
      </trkpt>
      <trkpt lat="48.18189" lon="6.68157">
        <ele>413.5</ele>
        <time>2017-04-09T07:11:27Z</time>
      </trkpt>
      <trkpt lat="48.18179" lon="6.68146">
        <ele>413.98</ele>
        <time>2017-04-09T07:11:30Z</time>
      </trkpt>
      <trkpt lat="48.18169" lon="6.68133">
        <ele>414.47</ele>
        <time>2017-04-09T07:11:33Z</time>
      </trkpt>
      <trkpt lat="48.18158" lon="6.6812">
        <ele>414.47</ele>
        <time>2017-04-09T07:11:36Z</time>
      </trkpt>
      <trkpt lat="48.18151" lon="6.68111">
        <ele>414.95</ele>
        <time>2017-04-09T07:11:38Z</time>
      </trkpt>
      <trkpt lat="48.18144" lon="6.68102">
        <ele>414.95</ele>
        <time>2017-04-09T07:11:40Z</time>
      </trkpt>
      <trkpt lat="48.18136" lon="6.68094">
        <ele>414.95</ele>
        <time>2017-04-09T07:11:42Z</time>
      </trkpt>
      <trkpt lat="48.18128" lon="6.68085">
        <ele>414.95</ele>
        <time>2017-04-09T07:11:44Z</time>
      </trkpt>
      <trkpt lat="48.18121" lon="6.68075">
        <ele>414.95</ele>
        <time>2017-04-09T07:11:46Z</time>
      </trkpt>
      <trkpt lat="48.18112" lon="6.68066">
        <ele>414.95</ele>
        <time>2017-04-09T07:11:48Z</time>
      </trkpt>
      <trkpt lat="48.18105" lon="6.68057">
        <ele>414.95</ele>
        <time>2017-04-09T07:11:50Z</time>
      </trkpt>
      <trkpt lat="48.18095" lon="6.68045">
        <ele>414.47</ele>
        <time>2017-04-09T07:11:53Z</time>
      </trkpt>
      <trkpt lat="48.18095" lon="6.68032">
        <ele>414.95</ele>
        <time>2017-04-09T07:11:57Z</time>
      </trkpt>
      <trkpt lat="48.18103" lon="6.6802">
        <ele>416.87</ele>
        <time>2017-04-09T07:12:01Z</time>
      </trkpt>
      <trkpt lat="48.18111" lon="6.68008">
        <ele>418.31</ele>
        <time>2017-04-09T07:12:05Z</time>
      </trkpt>
      <trkpt lat="48.18118" lon="6.67997">
        <ele>418.79</ele>
        <time>2017-04-09T07:12:09Z</time>
      </trkpt>
      <trkpt lat="48.18126" lon="6.67988">
        <ele>419.75</ele>
        <time>2017-04-09T07:12:13Z</time>
      </trkpt>
      <trkpt lat="48.18135" lon="6.67981">
        <ele>420.71</ele>
        <time>2017-04-09T07:12:17Z</time>
      </trkpt>
      <trkpt lat="48.18143" lon="6.67975">
        <ele>421.68</ele>
        <time>2017-04-09T07:12:21Z</time>
      </trkpt>
      <trkpt lat="48.18153" lon="6.6797">
        <ele>423.12</ele>
        <time>2017-04-09T07:12:26Z</time>
      </trkpt>
      <trkpt lat="48.18162" lon="6.67961">
        <ele>424.08</ele>
        <time>2017-04-09T07:12:31Z</time>
      </trkpt>
      <trkpt lat="48.1817" lon="6.67951">
        <ele>426</ele>
        <time>2017-04-09T07:12:36Z</time>
      </trkpt>
      <trkpt lat="48.18179" lon="6.67939">
        <ele>427.92</ele>
        <time>2017-04-09T07:12:42Z</time>
      </trkpt>
      <trkpt lat="48.18189" lon="6.67927">
        <ele>428.89</ele>
        <time>2017-04-09T07:12:48Z</time>
      </trkpt>
      <trkpt lat="48.18198" lon="6.67916">
        <ele>429.85</ele>
        <time>2017-04-09T07:12:53Z</time>
      </trkpt>
      <trkpt lat="48.18205" lon="6.67904">
        <ele>430.81</ele>
        <time>2017-04-09T07:12:58Z</time>
      </trkpt>
      <trkpt lat="48.18213" lon="6.67891">
        <ele>431.77</ele>
        <time>2017-04-09T07:13:04Z</time>
      </trkpt>
      <trkpt lat="48.1822" lon="6.67879">
        <ele>433.21</ele>
        <time>2017-04-09T07:13:09Z</time>
      </trkpt>
      <trkpt lat="48.18226" lon="6.67867">
        <ele>433.69</ele>
        <time>2017-04-09T07:13:14Z</time>
      </trkpt>
      <trkpt lat="48.18233" lon="6.67858">
        <ele>434.17</ele>
        <time>2017-04-09T07:13:19Z</time>
      </trkpt>
      <trkpt lat="48.1824" lon="6.67844">
        <ele>434.65</ele>
        <time>2017-04-09T07:13:24Z</time>
      </trkpt>
      <trkpt lat="48.18247" lon="6.67827">
        <ele>435.13</ele>
        <time>2017-04-09T07:13:29Z</time>
      </trkpt>
      <trkpt lat="48.18253" lon="6.67815">
        <ele>435.61</ele>
        <time>2017-04-09T07:13:33Z</time>
      </trkpt>
      <trkpt lat="48.18261" lon="6.67803">
        <ele>436.1</ele>
        <time>2017-04-09T07:13:38Z</time>
      </trkpt>
      <trkpt lat="48.1827" lon="6.67791">
        <ele>436.58</ele>
        <time>2017-04-09T07:13:43Z</time>
      </trkpt>
      <trkpt lat="48.18279" lon="6.6778">
        <ele>437.06</ele>
        <time>2017-04-09T07:13:48Z</time>
      </trkpt>
      <trkpt lat="48.18288" lon="6.67773">
        <ele>437.54</ele>
        <time>2017-04-09T07:13:52Z</time>
      </trkpt>
      <trkpt lat="48.18298" lon="6.67766">
        <ele>438.02</ele>
        <time>2017-04-09T07:13:56Z</time>
      </trkpt>
      <trkpt lat="48.18304" lon="6.67753">
        <ele>438.02</ele>
        <time>2017-04-09T07:14:00Z</time>
      </trkpt>
      <trkpt lat="48.18311" lon="6.6774">
        <ele>438.5</ele>
        <time>2017-04-09T07:14:04Z</time>
      </trkpt>
      <trkpt lat="48.18318" lon="6.67728">
        <ele>438.98</ele>
        <time>2017-04-09T07:14:09Z</time>
      </trkpt>
      <trkpt lat="48.18323" lon="6.67715">
        <ele>439.46</ele>
        <time>2017-04-09T07:14:14Z</time>
      </trkpt>
      <trkpt lat="48.1833" lon="6.67699">
        <ele>440.42</ele>
        <time>2017-04-09T07:14:20Z</time>
      </trkpt>
      <trkpt lat="48.18336" lon="6.67683">
        <ele>440.9</ele>
        <time>2017-04-09T07:14:25Z</time>
      </trkpt>
      <trkpt lat="48.18344" lon="6.67668">
        <ele>441.38</ele>
        <time>2017-04-09T07:14:30Z</time>
      </trkpt>
      <trkpt lat="48.18351" lon="6.67655">
        <ele>441.86</ele>
        <time>2017-04-09T07:14:35Z</time>
      </trkpt>
      <trkpt lat="48.18357" lon="6.6764">
        <ele>443.31</ele>
        <time>2017-04-09T07:14:40Z</time>
      </trkpt>
      <trkpt lat="48.18361" lon="6.67623">
        <ele>444.27</ele>
        <time>2017-04-09T07:14:45Z</time>
      </trkpt>
      <trkpt lat="48.18362" lon="6.67609">
        <ele>445.23</ele>
        <time>2017-04-09T07:14:50Z</time>
      </trkpt>
      <trkpt lat="48.18353" lon="6.67596">
        <ele>446.67</ele>
        <time>2017-04-09T07:14:55Z</time>
      </trkpt>
      <trkpt lat="48.18345" lon="6.67599">
        <ele>447.15</ele>
        <time>2017-04-09T07:15:02Z</time>
      </trkpt>
      <trkpt lat="48.18338" lon="6.67607">
        <ele>447.63</ele>
        <time>2017-04-09T07:15:08Z</time>
      </trkpt>
      <trkpt lat="48.1833" lon="6.67618">
        <ele>449.07</ele>
        <time>2017-04-09T07:15:15Z</time>
      </trkpt>
      <trkpt lat="48.18321" lon="6.67627">
        <ele>450.52</ele>
        <time>2017-04-09T07:15:24Z</time>
      </trkpt>
      <trkpt lat="48.18311" lon="6.67634">
        <ele>451.96</ele>
        <time>2017-04-09T07:15:33Z</time>
      </trkpt>
      <trkpt lat="48.18299" lon="6.67642">
        <ele>453.88</ele>
        <time>2017-04-09T07:15:41Z</time>
      </trkpt>
      <trkpt lat="48.18288" lon="6.67651">
        <ele>454.84</ele>
        <time>2017-04-09T07:15:49Z</time>
      </trkpt>
      <trkpt lat="48.18276" lon="6.67658">
        <ele>456.76</ele>
        <time>2017-04-09T07:15:56Z</time>
      </trkpt>
      <trkpt lat="48.18265" lon="6.67665">
        <ele>457.24</ele>
        <time>2017-04-09T07:16:02Z</time>
      </trkpt>
      <trkpt lat="48.18253" lon="6.67672">
        <ele>458.21</ele>
        <time>2017-04-09T07:16:09Z</time>
      </trkpt>
      <trkpt lat="48.18243" lon="6.67677">
        <ele>458.69</ele>
        <time>2017-04-09T07:16:14Z</time>
      </trkpt>
      <trkpt lat="48.18233" lon="6.67682">
        <ele>459.65</ele>
        <time>2017-04-09T07:16:19Z</time>
      </trkpt>
      <trkpt lat="48.18223" lon="6.67687">
        <ele>460.13</ele>
        <time>2017-04-09T07:16:25Z</time>
      </trkpt>
      <trkpt lat="48.18212" lon="6.6769">
        <ele>461.57</ele>
        <time>2017-04-09T07:16:30Z</time>
      </trkpt>
      <trkpt lat="48.18202" lon="6.67692">
        <ele>462.05</ele>
        <time>2017-04-09T07:16:35Z</time>
      </trkpt>
      <trkpt lat="48.18192" lon="6.6769">
        <ele>463.01</ele>
        <time>2017-04-09T07:16:41Z</time>
      </trkpt>
      <trkpt lat="48.18182" lon="6.67688">
        <ele>463.97</ele>
        <time>2017-04-09T07:16:46Z</time>
      </trkpt>
      <trkpt lat="48.18173" lon="6.67685">
        <ele>464.45</ele>
        <time>2017-04-09T07:16:51Z</time>
      </trkpt>
      <trkpt lat="48.18164" lon="6.6768">
        <ele>465.42</ele>
        <time>2017-04-09T07:16:56Z</time>
      </trkpt>
      <trkpt lat="48.18156" lon="6.67673">
        <ele>465.9</ele>
        <time>2017-04-09T07:17:01Z</time>
      </trkpt>
      <trkpt lat="48.18146" lon="6.67664">
        <ele>466.86</ele>
        <time>2017-04-09T07:17:07Z</time>
      </trkpt>
      <trkpt lat="48.18137" lon="6.67657">
        <ele>467.34</ele>
        <time>2017-04-09T07:17:12Z</time>
      </trkpt>
      <trkpt lat="48.18128" lon="6.67651">
        <ele>468.78</ele>
        <time>2017-04-09T07:17:17Z</time>
      </trkpt>
      <trkpt lat="48.18119" lon="6.67642">
        <ele>469.26</ele>
        <time>2017-04-09T07:17:22Z</time>
      </trkpt>
      <trkpt lat="48.18111" lon="6.67634">
        <ele>470.22</ele>
        <time>2017-04-09T07:17:27Z</time>
      </trkpt>
      <trkpt lat="48.18103" lon="6.67624">
        <ele>470.7</ele>
        <time>2017-04-09T07:17:32Z</time>
      </trkpt>
      <trkpt lat="48.18096" lon="6.67613">
        <ele>471.18</ele>
        <time>2017-04-09T07:17:37Z</time>
      </trkpt>
      <trkpt lat="48.18089" lon="6.67605">
        <ele>471.66</ele>
        <time>2017-04-09T07:17:41Z</time>
      </trkpt>
      <trkpt lat="48.18084" lon="6.6759">
        <ele>473.11</ele>
        <time>2017-04-09T07:17:46Z</time>
      </trkpt>
      <trkpt lat="48.18078" lon="6.67577">
        <ele>473.11</ele>
        <time>2017-04-09T07:17:50Z</time>
      </trkpt>
      <trkpt lat="48.18071" lon="6.67565">
        <ele>473.11</ele>
        <time>2017-04-09T07:17:54Z</time>
      </trkpt>
      <trkpt lat="48.18064" lon="6.67551">
        <ele>473.11</ele>
        <time>2017-04-09T07:17:58Z</time>
      </trkpt>
      <trkpt lat="48.18055" lon="6.67537">
        <ele>472.63</ele>
        <time>2017-04-09T07:18:02Z</time>
      </trkpt>
      <trkpt lat="48.1805" lon="6.67525">
        <ele>473.59</ele>
        <time>2017-04-09T07:18:05Z</time>
      </trkpt>
      <trkpt lat="48.18044" lon="6.67508">
        <ele>473.59</ele>
        <time>2017-04-09T07:18:09Z</time>
      </trkpt>
      <trkpt lat="48.1804" lon="6.67494">
        <ele>473.59</ele>
        <time>2017-04-09T07:18:12Z</time>
      </trkpt>
      <trkpt lat="48.1804" lon="6.67476">
        <ele>474.07</ele>
        <time>2017-04-09T07:18:16Z</time>
      </trkpt>
      <trkpt lat="48.18041" lon="6.67461">
        <ele>474.07</ele>
        <time>2017-04-09T07:18:19Z</time>
      </trkpt>
      <trkpt lat="48.18042" lon="6.67444">
        <ele>474.07</ele>
        <time>2017-04-09T07:18:23Z</time>
      </trkpt>
      <trkpt lat="48.18043" lon="6.67425">
        <ele>473.59</ele>
        <time>2017-04-09T07:18:28Z</time>
      </trkpt>
      <trkpt lat="48.1804" lon="6.67404">
        <ele>473.59</ele>
        <time>2017-04-09T07:18:31Z</time>
      </trkpt>
      <trkpt lat="48.18035" lon="6.67384">
        <ele>473.59</ele>
        <time>2017-04-09T07:18:34Z</time>
      </trkpt>
      <trkpt lat="48.18029" lon="6.67367">
        <ele>473.59</ele>
        <time>2017-04-09T07:18:37Z</time>
      </trkpt>
      <trkpt lat="48.18025" lon="6.6735">
        <ele>474.07</ele>
        <time>2017-04-09T07:18:40Z</time>
      </trkpt>
      <trkpt lat="48.18025" lon="6.67331">
        <ele>474.07</ele>
        <time>2017-04-09T07:18:44Z</time>
      </trkpt>
      <trkpt lat="48.18023" lon="6.67312">
        <ele>474.07</ele>
        <time>2017-04-09T07:18:48Z</time>
      </trkpt>
      <trkpt lat="48.1802" lon="6.67291">
        <ele>473.59</ele>
        <time>2017-04-09T07:18:52Z</time>
      </trkpt>
      <trkpt lat="48.18014" lon="6.67271">
        <ele>473.59</ele>
        <time>2017-04-09T07:18:56Z</time>
      </trkpt>
      <trkpt lat="48.18004" lon="6.67253">
        <ele>469.26</ele>
        <time>2017-04-09T07:18:59Z</time>
      </trkpt>
      <trkpt lat="48.17991" lon="6.67233">
        <ele>472.63</ele>
        <time>2017-04-09T07:19:02Z</time>
      </trkpt>
      <trkpt lat="48.1798" lon="6.67209">
        <ele>472.63</ele>
        <time>2017-04-09T07:19:05Z</time>
      </trkpt>
      <trkpt lat="48.17969" lon="6.6719">
        <ele>472.63</ele>
        <time>2017-04-09T07:19:08Z</time>
      </trkpt>
      <trkpt lat="48.1796" lon="6.67173">
        <ele>473.11</ele>
        <time>2017-04-09T07:19:11Z</time>
      </trkpt>
      <trkpt lat="48.17954" lon="6.67158">
        <ele>473.11</ele>
        <time>2017-04-09T07:19:14Z</time>
      </trkpt>
      <trkpt lat="48.17949" lon="6.67143">
        <ele>472.63</ele>
        <time>2017-04-09T07:19:17Z</time>
      </trkpt>
      <trkpt lat="48.17946" lon="6.67127">
        <ele>473.11</ele>
        <time>2017-04-09T07:19:20Z</time>
      </trkpt>
      <trkpt lat="48.17942" lon="6.6711">
        <ele>472.63</ele>
        <time>2017-04-09T07:19:23Z</time>
      </trkpt>
      <trkpt lat="48.17937" lon="6.67093">
        <ele>472.63</ele>
        <time>2017-04-09T07:19:26Z</time>
      </trkpt>
      <trkpt lat="48.17931" lon="6.67077">
        <ele>473.11</ele>
        <time>2017-04-09T07:19:29Z</time>
      </trkpt>
      <trkpt lat="48.17923" lon="6.67061">
        <ele>472.63</ele>
        <time>2017-04-09T07:19:32Z</time>
      </trkpt>
      <trkpt lat="48.17916" lon="6.67045">
        <ele>472.63</ele>
        <time>2017-04-09T07:19:35Z</time>
      </trkpt>
      <trkpt lat="48.1791" lon="6.67028">
        <ele>472.14</ele>
        <time>2017-04-09T07:19:38Z</time>
      </trkpt>
      <trkpt lat="48.17906" lon="6.67016">
        <ele>471.66</ele>
        <time>2017-04-09T07:19:40Z</time>
      </trkpt>
      <trkpt lat="48.179" lon="6.66998">
        <ele>471.66</ele>
        <time>2017-04-09T07:19:43Z</time>
      </trkpt>
      <trkpt lat="48.17893" lon="6.66983">
        <ele>471.18</ele>
        <time>2017-04-09T07:19:46Z</time>
      </trkpt>
      <trkpt lat="48.17889" lon="6.66967">
        <ele>470.7</ele>
        <time>2017-04-09T07:19:49Z</time>
      </trkpt>
      <trkpt lat="48.1789" lon="6.66949">
        <ele>471.18</ele>
        <time>2017-04-09T07:19:52Z</time>
      </trkpt>
      <trkpt lat="48.17896" lon="6.66934">
        <ele>471.18</ele>
        <time>2017-04-09T07:19:55Z</time>
      </trkpt>
      <trkpt lat="48.17901" lon="6.6692">
        <ele>471.18</ele>
        <time>2017-04-09T07:19:58Z</time>
      </trkpt>
      <trkpt lat="48.17908" lon="6.66907">
        <ele>471.18</ele>
        <time>2017-04-09T07:20:01Z</time>
      </trkpt>
      <trkpt lat="48.17913" lon="6.66894">
        <ele>470.22</ele>
        <time>2017-04-09T07:20:04Z</time>
      </trkpt>
      <trkpt lat="48.17907" lon="6.66877">
        <ele>469.26</ele>
        <time>2017-04-09T07:20:07Z</time>
      </trkpt>
      <trkpt lat="48.17901" lon="6.66866">
        <ele>468.78</ele>
        <time>2017-04-09T07:20:09Z</time>
      </trkpt>
      <trkpt lat="48.17895" lon="6.66855">
        <ele>467.82</ele>
        <time>2017-04-09T07:20:11Z</time>
      </trkpt>
      <trkpt lat="48.17894" lon="6.6684">
        <ele>466.86</ele>
        <time>2017-04-09T07:20:13Z</time>
      </trkpt>
      <trkpt lat="48.17902" lon="6.66829">
        <ele>467.34</ele>
        <time>2017-04-09T07:20:15Z</time>
      </trkpt>
      <trkpt lat="48.1791" lon="6.66821">
        <ele>467.34</ele>
        <time>2017-04-09T07:20:17Z</time>
      </trkpt>
      <trkpt lat="48.17918" lon="6.66811">
        <ele>467.82</ele>
        <time>2017-04-09T07:20:19Z</time>
      </trkpt>
      <trkpt lat="48.17926" lon="6.66801">
        <ele>467.34</ele>
        <time>2017-04-09T07:20:21Z</time>
      </trkpt>
      <trkpt lat="48.17934" lon="6.66792">
        <ele>467.34</ele>
        <time>2017-04-09T07:20:23Z</time>
      </trkpt>
      <trkpt lat="48.17942" lon="6.66781">
        <ele>466.86</ele>
        <time>2017-04-09T07:20:25Z</time>
      </trkpt>
      <trkpt lat="48.1795" lon="6.66772">
        <ele>466.86</ele>
        <time>2017-04-09T07:20:27Z</time>
      </trkpt>
      <trkpt lat="48.17955" lon="6.6676">
        <ele>467.34</ele>
        <time>2017-04-09T07:20:29Z</time>
      </trkpt>
      <trkpt lat="48.17959" lon="6.66747">
        <ele>466.86</ele>
        <time>2017-04-09T07:20:31Z</time>
      </trkpt>
      <trkpt lat="48.17962" lon="6.66727">
        <ele>467.34</ele>
        <time>2017-04-09T07:20:34Z</time>
      </trkpt>
      <trkpt lat="48.17964" lon="6.66714">
        <ele>467.34</ele>
        <time>2017-04-09T07:20:36Z</time>
      </trkpt>
      <trkpt lat="48.17968" lon="6.66695">
        <ele>467.82</ele>
        <time>2017-04-09T07:20:39Z</time>
      </trkpt>
      <trkpt lat="48.17971" lon="6.66676">
        <ele>468.78</ele>
        <time>2017-04-09T07:20:42Z</time>
      </trkpt>
      <trkpt lat="48.17974" lon="6.66659">
        <ele>468.78</ele>
        <time>2017-04-09T07:20:45Z</time>
      </trkpt>
      <trkpt lat="48.1798" lon="6.66646">
        <ele>469.74</ele>
        <time>2017-04-09T07:20:48Z</time>
      </trkpt>
      <trkpt lat="48.17986" lon="6.66633">
        <ele>470.7</ele>
        <time>2017-04-09T07:20:51Z</time>
      </trkpt>
      <trkpt lat="48.17992" lon="6.6662">
        <ele>471.66</ele>
        <time>2017-04-09T07:20:54Z</time>
      </trkpt>
      <trkpt lat="48.17996" lon="6.66606">
        <ele>472.63</ele>
        <time>2017-04-09T07:20:57Z</time>
      </trkpt>
      <trkpt lat="48.18002" lon="6.66593">
        <ele>474.55</ele>
        <time>2017-04-09T07:21:01Z</time>
      </trkpt>
      <trkpt lat="48.18009" lon="6.66581">
        <ele>475.99</ele>
        <time>2017-04-09T07:21:06Z</time>
      </trkpt>
      <trkpt lat="48.18018" lon="6.66571">
        <ele>477.43</ele>
        <time>2017-04-09T07:21:11Z</time>
      </trkpt>
      <trkpt lat="48.18026" lon="6.6656">
        <ele>479.35</ele>
        <time>2017-04-09T07:21:16Z</time>
      </trkpt>
      <trkpt lat="48.18032" lon="6.66549">
        <ele>480.32</ele>
        <time>2017-04-09T07:21:20Z</time>
      </trkpt>
      <trkpt lat="48.18039" lon="6.6654">
        <ele>481.28</ele>
        <time>2017-04-09T07:21:24Z</time>
      </trkpt>
      <trkpt lat="48.18043" lon="6.66526">
        <ele>481.76</ele>
        <time>2017-04-09T07:21:28Z</time>
      </trkpt>
      <trkpt lat="48.18039" lon="6.6651">
        <ele>482.24</ele>
        <time>2017-04-09T07:21:32Z</time>
      </trkpt>
      <trkpt lat="48.18033" lon="6.66496">
        <ele>482.24</ele>
        <time>2017-04-09T07:21:35Z</time>
      </trkpt>
      <trkpt lat="48.18027" lon="6.66481">
        <ele>481.76</ele>
        <time>2017-04-09T07:21:38Z</time>
      </trkpt>
      <trkpt lat="48.18021" lon="6.66465">
        <ele>482.24</ele>
        <time>2017-04-09T07:21:41Z</time>
      </trkpt>
      <trkpt lat="48.18015" lon="6.66447">
        <ele>481.76</ele>
        <time>2017-04-09T07:21:44Z</time>
      </trkpt>
      <trkpt lat="48.18011" lon="6.6643">
        <ele>481.76</ele>
        <time>2017-04-09T07:21:47Z</time>
      </trkpt>
      <trkpt lat="48.18006" lon="6.66411">
        <ele>482.24</ele>
        <time>2017-04-09T07:21:50Z</time>
      </trkpt>
      <trkpt lat="48.18003" lon="6.66398">
        <ele>481.76</ele>
        <time>2017-04-09T07:21:52Z</time>
      </trkpt>
      <trkpt lat="48.18" lon="6.66385">
        <ele>482.24</ele>
        <time>2017-04-09T07:21:54Z</time>
      </trkpt>
      <trkpt lat="48.17996" lon="6.66372">
        <ele>481.28</ele>
        <time>2017-04-09T07:21:56Z</time>
      </trkpt>
      <trkpt lat="48.17992" lon="6.66359">
        <ele>481.76</ele>
        <time>2017-04-09T07:21:58Z</time>
      </trkpt>
      <trkpt lat="48.17986" lon="6.66342">
        <ele>481.76</ele>
        <time>2017-04-09T07:22:01Z</time>
      </trkpt>
      <trkpt lat="48.17978" lon="6.66333">
        <ele>481.28</ele>
        <time>2017-04-09T07:22:03Z</time>
      </trkpt>
      <trkpt lat="48.17968" lon="6.66328">
        <ele>480.8</ele>
        <time>2017-04-09T07:22:05Z</time>
      </trkpt>
      <trkpt lat="48.17957" lon="6.66325">
        <ele>480.8</ele>
        <time>2017-04-09T07:22:07Z</time>
      </trkpt>
      <trkpt lat="48.17947" lon="6.66321">
        <ele>480.32</ele>
        <time>2017-04-09T07:22:09Z</time>
      </trkpt>
      <trkpt lat="48.17938" lon="6.66317">
        <ele>480.8</ele>
        <time>2017-04-09T07:22:11Z</time>
      </trkpt>
      <trkpt lat="48.1793" lon="6.66313">
        <ele>480.32</ele>
        <time>2017-04-09T07:22:13Z</time>
      </trkpt>
      <trkpt lat="48.17921" lon="6.66309">
        <ele>480.32</ele>
        <time>2017-04-09T07:22:15Z</time>
      </trkpt>
      <trkpt lat="48.17912" lon="6.66305">
        <ele>479.84</ele>
        <time>2017-04-09T07:22:17Z</time>
      </trkpt>
      <trkpt lat="48.17899" lon="6.66299">
        <ele>479.35</ele>
        <time>2017-04-09T07:22:20Z</time>
      </trkpt>
      <trkpt lat="48.17888" lon="6.6629">
        <ele>479.35</ele>
        <time>2017-04-09T07:22:23Z</time>
      </trkpt>
      <trkpt lat="48.1788" lon="6.66283">
        <ele>478.87</ele>
        <time>2017-04-09T07:22:25Z</time>
      </trkpt>
      <trkpt lat="48.17872" lon="6.66268">
        <ele>478.87</ele>
        <time>2017-04-09T07:22:28Z</time>
      </trkpt>
      <trkpt lat="48.17865" lon="6.66251">
        <ele>478.87</ele>
        <time>2017-04-09T07:22:31Z</time>
      </trkpt>
      <trkpt lat="48.17859" lon="6.66234">
        <ele>478.87</ele>
        <time>2017-04-09T07:22:34Z</time>
      </trkpt>
      <trkpt lat="48.17855" lon="6.66221">
        <ele>478.39</ele>
        <time>2017-04-09T07:22:36Z</time>
      </trkpt>
      <trkpt lat="48.17851" lon="6.66209">
        <ele>478.39</ele>
        <time>2017-04-09T07:22:38Z</time>
      </trkpt>
      <trkpt lat="48.17845" lon="6.66192">
        <ele>478.39</ele>
        <time>2017-04-09T07:22:41Z</time>
      </trkpt>
      <trkpt lat="48.17839" lon="6.66175">
        <ele>477.91</ele>
        <time>2017-04-09T07:22:44Z</time>
      </trkpt>
      <trkpt lat="48.17834" lon="6.66158">
        <ele>477.91</ele>
        <time>2017-04-09T07:22:47Z</time>
      </trkpt>
      <trkpt lat="48.17829" lon="6.6614">
        <ele>477.43</ele>
        <time>2017-04-09T07:22:50Z</time>
      </trkpt>
      <trkpt lat="48.17826" lon="6.66123">
        <ele>477.43</ele>
        <time>2017-04-09T07:22:53Z</time>
      </trkpt>
      <trkpt lat="48.17823" lon="6.66105">
        <ele>476.95</ele>
        <time>2017-04-09T07:22:56Z</time>
      </trkpt>
      <trkpt lat="48.17829" lon="6.6609">
        <ele>476.95</ele>
        <time>2017-04-09T07:22:59Z</time>
      </trkpt>
      <trkpt lat="48.17837" lon="6.66075">
        <ele>476.95</ele>
        <time>2017-04-09T07:23:02Z</time>
      </trkpt>
      <trkpt lat="48.17844" lon="6.66061">
        <ele>477.43</ele>
        <time>2017-04-09T07:23:05Z</time>
      </trkpt>
      <trkpt lat="48.17851" lon="6.66046">
        <ele>477.91</ele>
        <time>2017-04-09T07:23:08Z</time>
      </trkpt>
      <trkpt lat="48.17858" lon="6.66032">
        <ele>478.39</ele>
        <time>2017-04-09T07:23:11Z</time>
      </trkpt>
      <trkpt lat="48.17866" lon="6.66019">
        <ele>477.91</ele>
        <time>2017-04-09T07:23:14Z</time>
      </trkpt>
      <trkpt lat="48.17874" lon="6.66007">
        <ele>478.39</ele>
        <time>2017-04-09T07:23:17Z</time>
      </trkpt>
      <trkpt lat="48.17881" lon="6.65995">
        <ele>478.87</ele>
        <time>2017-04-09T07:23:20Z</time>
      </trkpt>
      <trkpt lat="48.17889" lon="6.65984">
        <ele>478.87</ele>
        <time>2017-04-09T07:23:23Z</time>
      </trkpt>
      <trkpt lat="48.17899" lon="6.65969">
        <ele>478.39</ele>
        <time>2017-04-09T07:23:26Z</time>
      </trkpt>
      <trkpt lat="48.17905" lon="6.65959">
        <ele>477.91</ele>
        <time>2017-04-09T07:23:28Z</time>
      </trkpt>
      <trkpt lat="48.17911" lon="6.65949">
        <ele>477.43</ele>
        <time>2017-04-09T07:23:30Z</time>
      </trkpt>
      <trkpt lat="48.17918" lon="6.65933">
        <ele>477.91</ele>
        <time>2017-04-09T07:23:33Z</time>
      </trkpt>
      <trkpt lat="48.17923" lon="6.65916">
        <ele>477.91</ele>
        <time>2017-04-09T07:23:36Z</time>
      </trkpt>
      <trkpt lat="48.17926" lon="6.65898">
        <ele>477.91</ele>
        <time>2017-04-09T07:23:39Z</time>
      </trkpt>
      <trkpt lat="48.17928" lon="6.65881">
        <ele>478.87</ele>
        <time>2017-04-09T07:23:42Z</time>
      </trkpt>
      <trkpt lat="48.17929" lon="6.65863">
        <ele>478.39</ele>
        <time>2017-04-09T07:23:45Z</time>
      </trkpt>
      <trkpt lat="48.17931" lon="6.65845">
        <ele>478.39</ele>
        <time>2017-04-09T07:23:48Z</time>
      </trkpt>
      <trkpt lat="48.17934" lon="6.65828">
        <ele>478.39</ele>
        <time>2017-04-09T07:23:51Z</time>
      </trkpt>
      <trkpt lat="48.17936" lon="6.65812">
        <ele>478.87</ele>
        <time>2017-04-09T07:23:54Z</time>
      </trkpt>
      <trkpt lat="48.17936" lon="6.65793">
        <ele>478.87</ele>
        <time>2017-04-09T07:23:57Z</time>
      </trkpt>
      <trkpt lat="48.17937" lon="6.65776">
        <ele>479.84</ele>
        <time>2017-04-09T07:24:00Z</time>
      </trkpt>
      <trkpt lat="48.17938" lon="6.65759">
        <ele>479.84</ele>
        <time>2017-04-09T07:24:03Z</time>
      </trkpt>
      <trkpt lat="48.17938" lon="6.65742">
        <ele>480.32</ele>
        <time>2017-04-09T07:24:06Z</time>
      </trkpt>
      <trkpt lat="48.1794" lon="6.65725">
        <ele>480.32</ele>
        <time>2017-04-09T07:24:09Z</time>
      </trkpt>
      <trkpt lat="48.17942" lon="6.65707">
        <ele>481.28</ele>
        <time>2017-04-09T07:24:12Z</time>
      </trkpt>
      <trkpt lat="48.17944" lon="6.65692">
        <ele>481.28</ele>
        <time>2017-04-09T07:24:15Z</time>
      </trkpt>
      <trkpt lat="48.17945" lon="6.65676">
        <ele>481.76</ele>
        <time>2017-04-09T07:24:18Z</time>
      </trkpt>
      <trkpt lat="48.17947" lon="6.6566">
        <ele>482.72</ele>
        <time>2017-04-09T07:24:21Z</time>
      </trkpt>
      <trkpt lat="48.17948" lon="6.65643">
        <ele>482.72</ele>
        <time>2017-04-09T07:24:24Z</time>
      </trkpt>
      <trkpt lat="48.17951" lon="6.65628">
        <ele>483.2</ele>
        <time>2017-04-09T07:24:27Z</time>
      </trkpt>
      <trkpt lat="48.17956" lon="6.65615">
        <ele>484.16</ele>
        <time>2017-04-09T07:24:30Z</time>
      </trkpt>
      <trkpt lat="48.17961" lon="6.65599">
        <ele>484.64</ele>
        <time>2017-04-09T07:24:34Z</time>
      </trkpt>
      <trkpt lat="48.17965" lon="6.65586">
        <ele>485.6</ele>
        <time>2017-04-09T07:24:37Z</time>
      </trkpt>
      <trkpt lat="48.1797" lon="6.65575">
        <ele>485.6</ele>
        <time>2017-04-09T07:24:40Z</time>
      </trkpt>
      <trkpt lat="48.17977" lon="6.65561">
        <ele>486.56</ele>
        <time>2017-04-09T07:24:44Z</time>
      </trkpt>
      <trkpt lat="48.17985" lon="6.6555">
        <ele>488.01</ele>
        <time>2017-04-09T07:24:48Z</time>
      </trkpt>
      <trkpt lat="48.17994" lon="6.6554">
        <ele>488.97</ele>
        <time>2017-04-09T07:24:52Z</time>
      </trkpt>
      <trkpt lat="48.18003" lon="6.6553">
        <ele>489.93</ele>
        <time>2017-04-09T07:24:56Z</time>
      </trkpt>
      <trkpt lat="48.18013" lon="6.65524">
        <ele>490.41</ele>
        <time>2017-04-09T07:25:00Z</time>
      </trkpt>
      <trkpt lat="48.18023" lon="6.6552">
        <ele>491.37</ele>
        <time>2017-04-09T07:25:04Z</time>
      </trkpt>
      <trkpt lat="48.18032" lon="6.65519">
        <ele>492.33</ele>
        <time>2017-04-09T07:25:09Z</time>
      </trkpt>
      <trkpt lat="48.18042" lon="6.65518">
        <ele>492.81</ele>
        <time>2017-04-09T07:25:15Z</time>
      </trkpt>
      <trkpt lat="48.18052" lon="6.65519">
        <ele>494.26</ele>
        <time>2017-04-09T07:25:21Z</time>
      </trkpt>
      <trkpt lat="48.18063" lon="6.65519">
        <ele>495.7</ele>
        <time>2017-04-09T07:25:28Z</time>
      </trkpt>
      <trkpt lat="48.18072" lon="6.65518">
        <ele>497.14</ele>
        <time>2017-04-09T07:25:34Z</time>
      </trkpt>
      <trkpt lat="48.18081" lon="6.65513">
        <ele>498.1</ele>
        <time>2017-04-09T07:25:40Z</time>
      </trkpt>
      <trkpt lat="48.18087" lon="6.65499">
        <ele>499.54</ele>
        <time>2017-04-09T07:25:46Z</time>
      </trkpt>
      <trkpt lat="48.18091" lon="6.65484">
        <ele>500.98</ele>
        <time>2017-04-09T07:25:52Z</time>
      </trkpt>
      <trkpt lat="48.18097" lon="6.65472">
        <ele>501.95</ele>
        <time>2017-04-09T07:25:57Z</time>
      </trkpt>
      <trkpt lat="48.18104" lon="6.65462">
        <ele>502.43</ele>
        <time>2017-04-09T07:26:02Z</time>
      </trkpt>
      <trkpt lat="48.18111" lon="6.65454">
        <ele>502.91</ele>
        <time>2017-04-09T07:26:06Z</time>
      </trkpt>
      <trkpt lat="48.18119" lon="6.65446">
        <ele>503.39</ele>
        <time>2017-04-09T07:26:10Z</time>
      </trkpt>
      <trkpt lat="48.18127" lon="6.65437">
        <ele>503.39</ele>
        <time>2017-04-09T07:26:14Z</time>
      </trkpt>
      <trkpt lat="48.18135" lon="6.65426">
        <ele>503.87</ele>
        <time>2017-04-09T07:26:18Z</time>
      </trkpt>
      <trkpt lat="48.18143" lon="6.65414">
        <ele>504.35</ele>
        <time>2017-04-09T07:26:22Z</time>
      </trkpt>
      <trkpt lat="48.18151" lon="6.65402">
        <ele>504.83</ele>
        <time>2017-04-09T07:26:26Z</time>
      </trkpt>
      <trkpt lat="48.1816" lon="6.65389">
        <ele>505.31</ele>
        <time>2017-04-09T07:26:30Z</time>
      </trkpt>
      <trkpt lat="48.18166" lon="6.65379">
        <ele>505.31</ele>
        <time>2017-04-09T07:26:33Z</time>
      </trkpt>
      <trkpt lat="48.18173" lon="6.65365">
        <ele>505.79</ele>
        <time>2017-04-09T07:26:37Z</time>
      </trkpt>
      <trkpt lat="48.18181" lon="6.65351">
        <ele>506.27</ele>
        <time>2017-04-09T07:26:41Z</time>
      </trkpt>
      <trkpt lat="48.18191" lon="6.65341">
        <ele>506.75</ele>
        <time>2017-04-09T07:26:45Z</time>
      </trkpt>
      <trkpt lat="48.18202" lon="6.65338">
        <ele>506.75</ele>
        <time>2017-04-09T07:26:48Z</time>
      </trkpt>
      <trkpt lat="48.18212" lon="6.65341">
        <ele>506.27</ele>
        <time>2017-04-09T07:26:51Z</time>
      </trkpt>
      <trkpt lat="48.18223" lon="6.65341">
        <ele>505.79</ele>
        <time>2017-04-09T07:26:55Z</time>
      </trkpt>
      <trkpt lat="48.18228" lon="6.65353">
        <ele>505.79</ele>
        <time>2017-04-09T07:26:59Z</time>
      </trkpt>
      <trkpt lat="48.18234" lon="6.65366">
        <ele>504.83</ele>
        <time>2017-04-09T07:27:03Z</time>
      </trkpt>
      <trkpt lat="48.18242" lon="6.65379">
        <ele>504.83</ele>
        <time>2017-04-09T07:27:06Z</time>
      </trkpt>
      <trkpt lat="48.18249" lon="6.65392">
        <ele>504.35</ele>
        <time>2017-04-09T07:27:09Z</time>
      </trkpt>
      <trkpt lat="48.18258" lon="6.65405">
        <ele>503.87</ele>
        <time>2017-04-09T07:27:12Z</time>
      </trkpt>
      <trkpt lat="48.18266" lon="6.65415">
        <ele>503.39</ele>
        <time>2017-04-09T07:27:14Z</time>
      </trkpt>
      <trkpt lat="48.18273" lon="6.65425">
        <ele>502.91</ele>
        <time>2017-04-09T07:27:16Z</time>
      </trkpt>
      <trkpt lat="48.1828" lon="6.65435">
        <ele>501.95</ele>
        <time>2017-04-09T07:27:18Z</time>
      </trkpt>
      <trkpt lat="48.18287" lon="6.65447">
        <ele>501.95</ele>
        <time>2017-04-09T07:27:20Z</time>
      </trkpt>
      <trkpt lat="48.18294" lon="6.65458">
        <ele>501.46</ele>
        <time>2017-04-09T07:27:22Z</time>
      </trkpt>
      <trkpt lat="48.18301" lon="6.65472">
        <ele>501.46</ele>
        <time>2017-04-09T07:27:23Z</time>
      </trkpt>
      <trkpt lat="48.18311" lon="6.65487">
        <ele>500.5</ele>
        <time>2017-04-09T07:27:25Z</time>
      </trkpt>
      <trkpt lat="48.18325" lon="6.65499">
        <ele>500.02</ele>
        <time>2017-04-09T07:27:27Z</time>
      </trkpt>
      <trkpt lat="48.18338" lon="6.65509">
        <ele>499.54</ele>
        <time>2017-04-09T07:27:29Z</time>
      </trkpt>
      <trkpt lat="48.1835" lon="6.65518">
        <ele>499.06</ele>
        <time>2017-04-09T07:27:31Z</time>
      </trkpt>
      <trkpt lat="48.18363" lon="6.65528">
        <ele>498.1</ele>
        <time>2017-04-09T07:27:33Z</time>
      </trkpt>
      <trkpt lat="48.18378" lon="6.65537">
        <ele>497.62</ele>
        <time>2017-04-09T07:27:35Z</time>
      </trkpt>
      <trkpt lat="48.18392" lon="6.65545">
        <ele>497.14</ele>
        <time>2017-04-09T07:27:37Z</time>
      </trkpt>
      <trkpt lat="48.18406" lon="6.65554">
        <ele>496.66</ele>
        <time>2017-04-09T07:27:39Z</time>
      </trkpt>
      <trkpt lat="48.18419" lon="6.65562">
        <ele>496.18</ele>
        <time>2017-04-09T07:27:41Z</time>
      </trkpt>
      <trkpt lat="48.18432" lon="6.65572">
        <ele>495.7</ele>
        <time>2017-04-09T07:27:43Z</time>
      </trkpt>
      <trkpt lat="48.18446" lon="6.65583">
        <ele>495.22</ele>
        <time>2017-04-09T07:27:45Z</time>
      </trkpt>
      <trkpt lat="48.18459" lon="6.65596">
        <ele>494.74</ele>
        <time>2017-04-09T07:27:47Z</time>
      </trkpt>
      <trkpt lat="48.18471" lon="6.65607">
        <ele>493.29</ele>
        <time>2017-04-09T07:27:49Z</time>
      </trkpt>
      <trkpt lat="48.18487" lon="6.65613">
        <ele>492.81</ele>
        <time>2017-04-09T07:27:51Z</time>
      </trkpt>
      <trkpt lat="48.185" lon="6.65608">
        <ele>492.33</ele>
        <time>2017-04-09T07:27:53Z</time>
      </trkpt>
      <trkpt lat="48.18512" lon="6.65595">
        <ele>491.85</ele>
        <time>2017-04-09T07:27:55Z</time>
      </trkpt>
      <trkpt lat="48.18515" lon="6.65578">
        <ele>491.37</ele>
        <time>2017-04-09T07:27:57Z</time>
      </trkpt>
      <trkpt lat="48.18515" lon="6.65562">
        <ele>490.41</ele>
        <time>2017-04-09T07:27:59Z</time>
      </trkpt>
      <trkpt lat="48.18513" lon="6.65543">
        <ele>489.45</ele>
        <time>2017-04-09T07:28:01Z</time>
      </trkpt>
      <trkpt lat="48.18504" lon="6.65521">
        <ele>487.53</ele>
        <time>2017-04-09T07:28:03Z</time>
      </trkpt>
      <trkpt lat="48.18494" lon="6.65497">
        <ele>486.08</ele>
        <time>2017-04-09T07:28:05Z</time>
      </trkpt>
      <trkpt lat="48.1849" lon="6.65484">
        <ele>485.12</ele>
        <time>2017-04-09T07:28:06Z</time>
      </trkpt>
      <trkpt lat="48.18486" lon="6.6547">
        <ele>484.16</ele>
        <time>2017-04-09T07:28:07Z</time>
      </trkpt>
      <trkpt lat="48.18481" lon="6.65457">
        <ele>484.16</ele>
        <time>2017-04-09T07:28:08Z</time>
      </trkpt>
      <trkpt lat="48.18475" lon="6.65444">
        <ele>483.2</ele>
        <time>2017-04-09T07:28:09Z</time>
      </trkpt>
      <trkpt lat="48.1847" lon="6.65431">
        <ele>483.2</ele>
        <time>2017-04-09T07:28:10Z</time>
      </trkpt>
      <trkpt lat="48.1846" lon="6.65406">
        <ele>482.24</ele>
        <time>2017-04-09T07:28:12Z</time>
      </trkpt>
      <trkpt lat="48.1845" lon="6.65386">
        <ele>482.24</ele>
        <time>2017-04-09T07:28:14Z</time>
      </trkpt>
      <trkpt lat="48.18441" lon="6.65366">
        <ele>481.76</ele>
        <time>2017-04-09T07:28:16Z</time>
      </trkpt>
      <trkpt lat="48.18438" lon="6.65346">
        <ele>481.28</ele>
        <time>2017-04-09T07:28:18Z</time>
      </trkpt>
      <trkpt lat="48.1844" lon="6.65324">
        <ele>480.8</ele>
        <time>2017-04-09T07:28:20Z</time>
      </trkpt>
      <trkpt lat="48.18444" lon="6.65307">
        <ele>481.76</ele>
        <time>2017-04-09T07:28:22Z</time>
      </trkpt>
      <trkpt lat="48.18447" lon="6.6529">
        <ele>481.28</ele>
        <time>2017-04-09T07:28:24Z</time>
      </trkpt>
      <trkpt lat="48.18448" lon="6.65276">
        <ele>480.8</ele>
        <time>2017-04-09T07:28:26Z</time>
      </trkpt>
      <trkpt lat="48.18448" lon="6.65263">
        <ele>481.28</ele>
        <time>2017-04-09T07:28:28Z</time>
      </trkpt>
      <trkpt lat="48.18448" lon="6.65249">
        <ele>481.28</ele>
        <time>2017-04-09T07:28:30Z</time>
      </trkpt>
      <trkpt lat="48.18448" lon="6.65231">
        <ele>481.76</ele>
        <time>2017-04-09T07:28:33Z</time>
      </trkpt>
      <trkpt lat="48.1845" lon="6.65214">
        <ele>482.24</ele>
        <time>2017-04-09T07:28:37Z</time>
      </trkpt>
      <trkpt lat="48.18452" lon="6.65197">
        <ele>482.72</ele>
        <time>2017-04-09T07:28:40Z</time>
      </trkpt>
      <trkpt lat="48.18453" lon="6.6518">
        <ele>482.72</ele>
        <time>2017-04-09T07:28:44Z</time>
      </trkpt>
      <trkpt lat="48.18456" lon="6.65164">
        <ele>483.2</ele>
        <time>2017-04-09T07:28:48Z</time>
      </trkpt>
      <trkpt lat="48.18458" lon="6.65147">
        <ele>483.68</ele>
        <time>2017-04-09T07:28:52Z</time>
      </trkpt>
      <trkpt lat="48.18458" lon="6.65128">
        <ele>484.64</ele>
        <time>2017-04-09T07:28:56Z</time>
      </trkpt>
      <trkpt lat="48.18457" lon="6.65107">
        <ele>484.64</ele>
        <time>2017-04-09T07:29:01Z</time>
      </trkpt>
      <trkpt lat="48.18461" lon="6.6509">
        <ele>486.08</ele>
        <time>2017-04-09T07:29:06Z</time>
      </trkpt>
      <trkpt lat="48.18464" lon="6.65076">
        <ele>486.08</ele>
        <time>2017-04-09T07:29:10Z</time>
      </trkpt>
      <trkpt lat="48.18467" lon="6.65058">
        <ele>486.56</ele>
        <time>2017-04-09T07:29:15Z</time>
      </trkpt>
      <trkpt lat="48.18471" lon="6.65042">
        <ele>487.53</ele>
        <time>2017-04-09T07:29:20Z</time>
      </trkpt>
      <trkpt lat="48.18476" lon="6.65027">
        <ele>488.01</ele>
        <time>2017-04-09T07:29:25Z</time>
      </trkpt>
      <trkpt lat="48.18479" lon="6.6501">
        <ele>488.01</ele>
        <time>2017-04-09T07:29:29Z</time>
      </trkpt>
      <trkpt lat="48.18483" lon="6.64994">
        <ele>488.49</ele>
        <time>2017-04-09T07:29:33Z</time>
      </trkpt>
      <trkpt lat="48.18491" lon="6.64986">
        <ele>488.49</ele>
        <time>2017-04-09T07:29:37Z</time>
      </trkpt>
      <trkpt lat="48.18494" lon="6.64966">
        <ele>488.97</ele>
        <time>2017-04-09T07:29:41Z</time>
      </trkpt>
      <trkpt lat="48.18497" lon="6.64951">
        <ele>488.49</ele>
        <time>2017-04-09T07:29:44Z</time>
      </trkpt>
      <trkpt lat="48.18503" lon="6.6494">
        <ele>488.97</ele>
        <time>2017-04-09T07:29:47Z</time>
      </trkpt>
      <trkpt lat="48.18509" lon="6.64928">
        <ele>488.97</ele>
        <time>2017-04-09T07:29:50Z</time>
      </trkpt>
      <trkpt lat="48.18516" lon="6.64915">
        <ele>489.45</ele>
        <time>2017-04-09T07:29:53Z</time>
      </trkpt>
      <trkpt lat="48.1852" lon="6.649">
        <ele>488.49</ele>
        <time>2017-04-09T07:29:56Z</time>
      </trkpt>
      <trkpt lat="48.18525" lon="6.64884">
        <ele>488.49</ele>
        <time>2017-04-09T07:29:59Z</time>
      </trkpt>
      <trkpt lat="48.18532" lon="6.64863">
        <ele>488.01</ele>
        <time>2017-04-09T07:30:02Z</time>
      </trkpt>
      <trkpt lat="48.18536" lon="6.64847">
        <ele>488.01</ele>
        <time>2017-04-09T07:30:04Z</time>
      </trkpt>
      <trkpt lat="48.1854" lon="6.64831">
        <ele>487.53</ele>
        <time>2017-04-09T07:30:06Z</time>
      </trkpt>
      <trkpt lat="48.18541" lon="6.64813">
        <ele>488.49</ele>
        <time>2017-04-09T07:30:08Z</time>
      </trkpt>
      <trkpt lat="48.18542" lon="6.6479">
        <ele>488.49</ele>
        <time>2017-04-09T07:30:11Z</time>
      </trkpt>
      <trkpt lat="48.18546" lon="6.64769">
        <ele>487.53</ele>
        <time>2017-04-09T07:30:14Z</time>
      </trkpt>
      <trkpt lat="48.18549" lon="6.64754">
        <ele>488.01</ele>
        <time>2017-04-09T07:30:16Z</time>
      </trkpt>
      <trkpt lat="48.18552" lon="6.64733">
        <ele>488.97</ele>
        <time>2017-04-09T07:30:19Z</time>
      </trkpt>
      <trkpt lat="48.18553" lon="6.64715">
        <ele>490.89</ele>
        <time>2017-04-09T07:30:23Z</time>
      </trkpt>
      <trkpt lat="48.18559" lon="6.64702">
        <ele>491.37</ele>
        <time>2017-04-09T07:30:27Z</time>
      </trkpt>
      <trkpt lat="48.18567" lon="6.64692">
        <ele>491.37</ele>
        <time>2017-04-09T07:30:31Z</time>
      </trkpt>
      <trkpt lat="48.18577" lon="6.64686">
        <ele>490.89</ele>
        <time>2017-04-09T07:30:34Z</time>
      </trkpt>
      <trkpt lat="48.18589" lon="6.6468">
        <ele>490.41</ele>
        <time>2017-04-09T07:30:37Z</time>
      </trkpt>
      <trkpt lat="48.18602" lon="6.64674">
        <ele>489.45</ele>
        <time>2017-04-09T07:30:40Z</time>
      </trkpt>
      <trkpt lat="48.18612" lon="6.64671">
        <ele>488.49</ele>
        <time>2017-04-09T07:30:42Z</time>
      </trkpt>
      <trkpt lat="48.18625" lon="6.64667">
        <ele>488.97</ele>
        <time>2017-04-09T07:30:45Z</time>
      </trkpt>
      <trkpt lat="48.18637" lon="6.64661">
        <ele>488.97</ele>
        <time>2017-04-09T07:30:48Z</time>
      </trkpt>
      <trkpt lat="48.18648" lon="6.64647">
        <ele>486.08</ele>
        <time>2017-04-09T07:30:51Z</time>
      </trkpt>
      <trkpt lat="48.18654" lon="6.64632">
        <ele>481.76</ele>
        <time>2017-04-09T07:30:55Z</time>
      </trkpt>
      <trkpt lat="48.18658" lon="6.64611">
        <ele>477.91</ele>
        <time>2017-04-09T07:30:59Z</time>
      </trkpt>
      <trkpt lat="48.18658" lon="6.64597">
        <ele>476.47</ele>
        <time>2017-04-09T07:31:03Z</time>
      </trkpt>
      <trkpt lat="48.18647" lon="6.6459">
        <ele>474.55</ele>
        <time>2017-04-09T07:31:06Z</time>
      </trkpt>
      <trkpt lat="48.18639" lon="6.64584">
        <ele>474.07</ele>
        <time>2017-04-09T07:31:08Z</time>
      </trkpt>
      <trkpt lat="48.1863" lon="6.64578">
        <ele>473.11</ele>
        <time>2017-04-09T07:31:10Z</time>
      </trkpt>
      <trkpt lat="48.18619" lon="6.64569">
        <ele>472.14</ele>
        <time>2017-04-09T07:31:12Z</time>
      </trkpt>
      <trkpt lat="48.18603" lon="6.64554">
        <ele>472.14</ele>
        <time>2017-04-09T07:31:14Z</time>
      </trkpt>
      <trkpt lat="48.18589" lon="6.64539">
        <ele>472.14</ele>
        <time>2017-04-09T07:31:16Z</time>
      </trkpt>
      <trkpt lat="48.18577" lon="6.64531">
        <ele>471.66</ele>
        <time>2017-04-09T07:31:18Z</time>
      </trkpt>
      <trkpt lat="48.18567" lon="6.64523">
        <ele>471.66</ele>
        <time>2017-04-09T07:31:19Z</time>
      </trkpt>
      <trkpt lat="48.18551" lon="6.64516">
        <ele>471.18</ele>
        <time>2017-04-09T07:31:21Z</time>
      </trkpt>
      <trkpt lat="48.18519" lon="6.64489">
        <ele>470.22</ele>
        <time>2017-04-09T07:31:23Z</time>
      </trkpt>
      <trkpt lat="48.18502" lon="6.64488">
        <ele>470.7</ele>
        <time>2017-04-09T07:31:25Z</time>
      </trkpt>
      <trkpt lat="48.18486" lon="6.64491">
        <ele>469.74</ele>
        <time>2017-04-09T07:31:27Z</time>
      </trkpt>
      <trkpt lat="48.18471" lon="6.64492">
        <ele>470.7</ele>
        <time>2017-04-09T07:31:29Z</time>
      </trkpt>
      <trkpt lat="48.18459" lon="6.64493">
        <ele>471.66</ele>
        <time>2017-04-09T07:31:31Z</time>
      </trkpt>
      <trkpt lat="48.18445" lon="6.64486">
        <ele>471.18</ele>
        <time>2017-04-09T07:31:34Z</time>
      </trkpt>
      <trkpt lat="48.18436" lon="6.64472">
        <ele>470.7</ele>
        <time>2017-04-09T07:31:37Z</time>
      </trkpt>
      <trkpt lat="48.18426" lon="6.64459">
        <ele>469.26</ele>
        <time>2017-04-09T07:31:40Z</time>
      </trkpt>
      <trkpt lat="48.18419" lon="6.64447">
        <ele>468.3</ele>
        <time>2017-04-09T07:31:42Z</time>
      </trkpt>
      <trkpt lat="48.18416" lon="6.64431">
        <ele>467.34</ele>
        <time>2017-04-09T07:31:45Z</time>
      </trkpt>
      <trkpt lat="48.18415" lon="6.6441">
        <ele>465.42</ele>
        <time>2017-04-09T07:31:48Z</time>
      </trkpt>
      <trkpt lat="48.18408" lon="6.64397">
        <ele>464.93</ele>
        <time>2017-04-09T07:31:50Z</time>
      </trkpt>
      <trkpt lat="48.18398" lon="6.64392">
        <ele>464.45</ele>
        <time>2017-04-09T07:31:52Z</time>
      </trkpt>
      <trkpt lat="48.18388" lon="6.64388">
        <ele>465.42</ele>
        <time>2017-04-09T07:31:54Z</time>
      </trkpt>
      <trkpt lat="48.18373" lon="6.64385">
        <ele>466.38</ele>
        <time>2017-04-09T07:31:57Z</time>
      </trkpt>
      <trkpt lat="48.18355" lon="6.64382">
        <ele>467.82</ele>
        <time>2017-04-09T07:32:02Z</time>
      </trkpt>
      <trkpt lat="48.18336" lon="6.64368">
        <ele>468.78</ele>
        <time>2017-04-09T07:32:05Z</time>
      </trkpt>
      <trkpt lat="48.1832" lon="6.64354">
        <ele>469.26</ele>
        <time>2017-04-09T07:32:08Z</time>
      </trkpt>
      <trkpt lat="48.18308" lon="6.64342">
        <ele>469.26</ele>
        <time>2017-04-09T07:32:11Z</time>
      </trkpt>
      <trkpt lat="48.18296" lon="6.64334">
        <ele>469.74</ele>
        <time>2017-04-09T07:32:14Z</time>
      </trkpt>
      <trkpt lat="48.18283" lon="6.64326">
        <ele>471.18</ele>
        <time>2017-04-09T07:32:18Z</time>
      </trkpt>
      <trkpt lat="48.18275" lon="6.64318">
        <ele>470.7</ele>
        <time>2017-04-09T07:32:21Z</time>
      </trkpt>
      <trkpt lat="48.18266" lon="6.64307">
        <ele>470.22</ele>
        <time>2017-04-09T07:32:24Z</time>
      </trkpt>
      <trkpt lat="48.18258" lon="6.64295">
        <ele>470.22</ele>
        <time>2017-04-09T07:32:27Z</time>
      </trkpt>
      <trkpt lat="48.1825" lon="6.6428">
        <ele>469.26</ele>
        <time>2017-04-09T07:32:30Z</time>
      </trkpt>
      <trkpt lat="48.18246" lon="6.64268">
        <ele>468.78</ele>
        <time>2017-04-09T07:32:32Z</time>
      </trkpt>
      <trkpt lat="48.18241" lon="6.64255">
        <ele>468.3</ele>
        <time>2017-04-09T07:32:34Z</time>
      </trkpt>
      <trkpt lat="48.18236" lon="6.64243">
        <ele>467.82</ele>
        <time>2017-04-09T07:32:36Z</time>
      </trkpt>
      <trkpt lat="48.1823" lon="6.64225">
        <ele>467.82</ele>
        <time>2017-04-09T07:32:39Z</time>
      </trkpt>
      <trkpt lat="48.18226" lon="6.64211">
        <ele>467.34</ele>
        <time>2017-04-09T07:32:41Z</time>
      </trkpt>
      <trkpt lat="48.18221" lon="6.64198">
        <ele>466.38</ele>
        <time>2017-04-09T07:32:43Z</time>
      </trkpt>
      <trkpt lat="48.18214" lon="6.64185">
        <ele>466.38</ele>
        <time>2017-04-09T07:32:45Z</time>
      </trkpt>
      <trkpt lat="48.18206" lon="6.64178">
        <ele>466.38</ele>
        <time>2017-04-09T07:32:47Z</time>
      </trkpt>
      <trkpt lat="48.18193" lon="6.64177">
        <ele>466.38</ele>
        <time>2017-04-09T07:32:50Z</time>
      </trkpt>
      <trkpt lat="48.18182" lon="6.6418">
        <ele>467.34</ele>
        <time>2017-04-09T07:32:53Z</time>
      </trkpt>
      <trkpt lat="48.18171" lon="6.64179">
        <ele>467.34</ele>
        <time>2017-04-09T07:32:56Z</time>
      </trkpt>
      <trkpt lat="48.18161" lon="6.64179">
        <ele>467.82</ele>
        <time>2017-04-09T07:32:59Z</time>
      </trkpt>
      <trkpt lat="48.18151" lon="6.64175">
        <ele>469.26</ele>
        <time>2017-04-09T07:33:03Z</time>
      </trkpt>
      <trkpt lat="48.18153" lon="6.64164">
        <ele>470.7</ele>
        <time>2017-04-09T07:33:09Z</time>
      </trkpt>
      <trkpt lat="48.18159" lon="6.64153">
        <ele>471.66</ele>
        <time>2017-04-09T07:33:15Z</time>
      </trkpt>
      <trkpt lat="48.18166" lon="6.64138">
        <ele>473.11</ele>
        <time>2017-04-09T07:33:21Z</time>
      </trkpt>
      <trkpt lat="48.18174" lon="6.64126">
        <ele>473.59</ele>
        <time>2017-04-09T07:33:26Z</time>
      </trkpt>
      <trkpt lat="48.18177" lon="6.6411">
        <ele>474.07</ele>
        <time>2017-04-09T07:33:31Z</time>
      </trkpt>
      <trkpt lat="48.18181" lon="6.64094">
        <ele>475.03</ele>
        <time>2017-04-09T07:33:36Z</time>
      </trkpt>
      <trkpt lat="48.18184" lon="6.64078">
        <ele>475.99</ele>
        <time>2017-04-09T07:33:41Z</time>
      </trkpt>
      <trkpt lat="48.18188" lon="6.64062">
        <ele>477.43</ele>
        <time>2017-04-09T07:33:47Z</time>
      </trkpt>
      <trkpt lat="48.18191" lon="6.64048">
        <ele>477.91</ele>
        <time>2017-04-09T07:33:52Z</time>
      </trkpt>
      <trkpt lat="48.18189" lon="6.64033">
        <ele>479.35</ele>
        <time>2017-04-09T07:33:57Z</time>
      </trkpt>
      <trkpt lat="48.1819" lon="6.64016">
        <ele>480.8</ele>
        <time>2017-04-09T07:34:03Z</time>
      </trkpt>
      <trkpt lat="48.18191" lon="6.63998">
        <ele>481.76</ele>
        <time>2017-04-09T07:34:09Z</time>
      </trkpt>
      <trkpt lat="48.18194" lon="6.63981">
        <ele>483.2</ele>
        <time>2017-04-09T07:34:15Z</time>
      </trkpt>
      <trkpt lat="48.18196" lon="6.63962">
        <ele>485.12</ele>
        <time>2017-04-09T07:34:23Z</time>
      </trkpt>
      <trkpt lat="48.18197" lon="6.63945">
        <ele>487.05</ele>
        <time>2017-04-09T07:34:32Z</time>
      </trkpt>
      <trkpt lat="48.18196" lon="6.63918">
        <ele>488.49</ele>
        <time>2017-04-09T07:34:41Z</time>
      </trkpt>
      <trkpt lat="48.18198" lon="6.63901">
        <ele>490.41</ele>
        <time>2017-04-09T07:34:49Z</time>
      </trkpt>
      <trkpt lat="48.18201" lon="6.63888">
        <ele>491.85</ele>
        <time>2017-04-09T07:34:57Z</time>
      </trkpt>
      <trkpt lat="48.18208" lon="6.63877">
        <ele>493.77</ele>
        <time>2017-04-09T07:35:05Z</time>
      </trkpt>
      <trkpt lat="48.18214" lon="6.63866">
        <ele>495.22</ele>
        <time>2017-04-09T07:35:15Z</time>
      </trkpt>
      <trkpt lat="48.18221" lon="6.63853">
        <ele>497.14</ele>
        <time>2017-04-09T07:35:27Z</time>
      </trkpt>
      <trkpt lat="48.18232" lon="6.63842">
        <ele>498.58</ele>
        <time>2017-04-09T07:35:38Z</time>
      </trkpt>
      <trkpt lat="48.18244" lon="6.63829">
        <ele>500.02</ele>
        <time>2017-04-09T07:35:46Z</time>
      </trkpt>
      <trkpt lat="48.1825" lon="6.63814">
        <ele>502.91</ele>
        <time>2017-04-09T07:35:54Z</time>
      </trkpt>
      <trkpt lat="48.1825" lon="6.63797">
        <ele>503.39</ele>
        <time>2017-04-09T07:36:01Z</time>
      </trkpt>
      <trkpt lat="48.18248" lon="6.63781">
        <ele>504.35</ele>
        <time>2017-04-09T07:36:09Z</time>
      </trkpt>
      <trkpt lat="48.18244" lon="6.63767">
        <ele>505.31</ele>
        <time>2017-04-09T07:36:16Z</time>
      </trkpt>
      <trkpt lat="48.18236" lon="6.63761">
        <ele>507.23</ele>
        <time>2017-04-09T07:36:22Z</time>
      </trkpt>
      <trkpt lat="48.18226" lon="6.6376">
        <ele>507.23</ele>
        <time>2017-04-09T07:36:30Z</time>
      </trkpt>
      <trkpt lat="48.18218" lon="6.63762">
        <ele>508.19</ele>
        <time>2017-04-09T07:36:38Z</time>
      </trkpt>
      <trkpt lat="48.18209" lon="6.63767">
        <ele>509.64</ele>
        <time>2017-04-09T07:36:45Z</time>
      </trkpt>
      <trkpt lat="48.182" lon="6.63773">
        <ele>510.6</ele>
        <time>2017-04-09T07:36:51Z</time>
      </trkpt>
      <trkpt lat="48.18189" lon="6.6378">
        <ele>511.08</ele>
        <time>2017-04-09T07:36:58Z</time>
      </trkpt>
      <trkpt lat="48.18179" lon="6.63787">
        <ele>512.04</ele>
        <time>2017-04-09T07:37:05Z</time>
      </trkpt>
      <trkpt lat="48.18167" lon="6.63799">
        <ele>513.48</ele>
        <time>2017-04-09T07:37:12Z</time>
      </trkpt>
      <trkpt lat="48.18156" lon="6.63808">
        <ele>514.44</ele>
        <time>2017-04-09T07:37:23Z</time>
      </trkpt>
      <trkpt lat="48.18146" lon="6.63824">
        <ele>515.4</ele>
        <time>2017-04-09T07:37:30Z</time>
      </trkpt>
      <trkpt lat="48.18135" lon="6.63839">
        <ele>516.37</ele>
        <time>2017-04-09T07:37:36Z</time>
      </trkpt>
      <trkpt lat="48.18123" lon="6.63858">
        <ele>516.85</ele>
        <time>2017-04-09T07:37:43Z</time>
      </trkpt>
      <trkpt lat="48.18113" lon="6.63874">
        <ele>517.81</ele>
        <time>2017-04-09T07:37:49Z</time>
      </trkpt>
      <trkpt lat="48.18103" lon="6.63888">
        <ele>519.25</ele>
        <time>2017-04-09T07:37:58Z</time>
      </trkpt>
      <trkpt lat="48.18089" lon="6.63913">
        <ele>520.21</ele>
        <time>2017-04-09T07:38:04Z</time>
      </trkpt>
      <trkpt lat="48.1808" lon="6.63931">
        <ele>520.69</ele>
        <time>2017-04-09T07:38:09Z</time>
      </trkpt>
      <trkpt lat="48.18074" lon="6.63947">
        <ele>521.17</ele>
        <time>2017-04-09T07:38:14Z</time>
      </trkpt>
      <trkpt lat="48.18068" lon="6.63964">
        <ele>522.61</ele>
        <time>2017-04-09T07:38:19Z</time>
      </trkpt>
      <trkpt lat="48.1806" lon="6.63979">
        <ele>522.61</ele>
        <time>2017-04-09T07:38:23Z</time>
      </trkpt>
      <trkpt lat="48.18053" lon="6.63994">
        <ele>524.06</ele>
        <time>2017-04-09T07:38:28Z</time>
      </trkpt>
      <trkpt lat="48.18045" lon="6.64009">
        <ele>524.54</ele>
        <time>2017-04-09T07:38:33Z</time>
      </trkpt>
      <trkpt lat="48.18037" lon="6.64022">
        <ele>525.5</ele>
        <time>2017-04-09T07:38:38Z</time>
      </trkpt>
      <trkpt lat="48.18029" lon="6.64033">
        <ele>525.98</ele>
        <time>2017-04-09T07:38:43Z</time>
      </trkpt>
      <trkpt lat="48.18021" lon="6.64046">
        <ele>526.94</ele>
        <time>2017-04-09T07:38:49Z</time>
      </trkpt>
      <trkpt lat="48.18011" lon="6.64054">
        <ele>527.42</ele>
        <time>2017-04-09T07:38:55Z</time>
      </trkpt>
      <trkpt lat="48.18" lon="6.6406">
        <ele>527.9</ele>
        <time>2017-04-09T07:39:00Z</time>
      </trkpt>
      <trkpt lat="48.17988" lon="6.6406">
        <ele>528.86</ele>
        <time>2017-04-09T07:39:05Z</time>
      </trkpt>
      <trkpt lat="48.17975" lon="6.64061">
        <ele>528.86</ele>
        <time>2017-04-09T07:39:09Z</time>
      </trkpt>
      <trkpt lat="48.17964" lon="6.6406">
        <ele>529.82</ele>
        <time>2017-04-09T07:39:13Z</time>
      </trkpt>
      <trkpt lat="48.17954" lon="6.64059">
        <ele>530.79</ele>
        <time>2017-04-09T07:39:17Z</time>
      </trkpt>
      <trkpt lat="48.17943" lon="6.6405">
        <ele>531.27</ele>
        <time>2017-04-09T07:39:22Z</time>
      </trkpt>
      <trkpt lat="48.17935" lon="6.64039">
        <ele>531.75</ele>
        <time>2017-04-09T07:39:28Z</time>
      </trkpt>
      <trkpt lat="48.17926" lon="6.64027">
        <ele>532.23</ele>
        <time>2017-04-09T07:39:35Z</time>
      </trkpt>
      <trkpt lat="48.17919" lon="6.64018">
        <ele>532.71</ele>
        <time>2017-04-09T07:40:43Z</time>
      </trkpt>
      <trkpt lat="48.17913" lon="6.64005">
        <ele>532.23</ele>
        <time>2017-04-09T07:40:48Z</time>
      </trkpt>
      <trkpt lat="48.17911" lon="6.63987">
        <ele>531.75</ele>
        <time>2017-04-09T07:40:52Z</time>
      </trkpt>
      <trkpt lat="48.17909" lon="6.63969">
        <ele>530.79</ele>
        <time>2017-04-09T07:40:55Z</time>
      </trkpt>
      <trkpt lat="48.17908" lon="6.63948">
        <ele>530.79</ele>
        <time>2017-04-09T07:40:58Z</time>
      </trkpt>
      <trkpt lat="48.17907" lon="6.63932">
        <ele>529.82</ele>
        <time>2017-04-09T07:41:00Z</time>
      </trkpt>
      <trkpt lat="48.17906" lon="6.63914">
        <ele>528.86</ele>
        <time>2017-04-09T07:41:02Z</time>
      </trkpt>
      <trkpt lat="48.17905" lon="6.63896">
        <ele>527.9</ele>
        <time>2017-04-09T07:41:04Z</time>
      </trkpt>
      <trkpt lat="48.17904" lon="6.63877">
        <ele>526.46</ele>
        <time>2017-04-09T07:41:06Z</time>
      </trkpt>
      <trkpt lat="48.17901" lon="6.63858">
        <ele>525.98</ele>
        <time>2017-04-09T07:41:08Z</time>
      </trkpt>
      <trkpt lat="48.17899" lon="6.63841">
        <ele>525.02</ele>
        <time>2017-04-09T07:41:10Z</time>
      </trkpt>
      <trkpt lat="48.17897" lon="6.63825">
        <ele>525.02</ele>
        <time>2017-04-09T07:41:12Z</time>
      </trkpt>
      <trkpt lat="48.17892" lon="6.6381">
        <ele>524.06</ele>
        <time>2017-04-09T07:41:14Z</time>
      </trkpt>
      <trkpt lat="48.17889" lon="6.63793">
        <ele>523.09</ele>
        <time>2017-04-09T07:41:16Z</time>
      </trkpt>
      <trkpt lat="48.17883" lon="6.63776">
        <ele>522.61</ele>
        <time>2017-04-09T07:41:18Z</time>
      </trkpt>
      <trkpt lat="48.17877" lon="6.63758">
        <ele>521.17</ele>
        <time>2017-04-09T07:41:20Z</time>
      </trkpt>
      <trkpt lat="48.17871" lon="6.6374">
        <ele>520.69</ele>
        <time>2017-04-09T07:41:22Z</time>
      </trkpt>
      <trkpt lat="48.17868" lon="6.63721">
        <ele>519.73</ele>
        <time>2017-04-09T07:41:24Z</time>
      </trkpt>
      <trkpt lat="48.17867" lon="6.63704">
        <ele>519.73</ele>
        <time>2017-04-09T07:41:26Z</time>
      </trkpt>
      <trkpt lat="48.17869" lon="6.63688">
        <ele>519.25</ele>
        <time>2017-04-09T07:41:28Z</time>
      </trkpt>
      <trkpt lat="48.17873" lon="6.63672">
        <ele>519.73</ele>
        <time>2017-04-09T07:41:31Z</time>
      </trkpt>
      <trkpt lat="48.17878" lon="6.63655">
        <ele>519.25</ele>
        <time>2017-04-09T07:41:34Z</time>
      </trkpt>
      <trkpt lat="48.17883" lon="6.63639">
        <ele>519.73</ele>
        <time>2017-04-09T07:41:37Z</time>
      </trkpt>
      <trkpt lat="48.1789" lon="6.63625">
        <ele>519.73</ele>
        <time>2017-04-09T07:41:40Z</time>
      </trkpt>
      <trkpt lat="48.17896" lon="6.63613">
        <ele>520.69</ele>
        <time>2017-04-09T07:41:43Z</time>
      </trkpt>
      <trkpt lat="48.17904" lon="6.63599">
        <ele>520.69</ele>
        <time>2017-04-09T07:41:46Z</time>
      </trkpt>
      <trkpt lat="48.17912" lon="6.63588">
        <ele>520.69</ele>
        <time>2017-04-09T07:41:49Z</time>
      </trkpt>
      <trkpt lat="48.17921" lon="6.6358">
        <ele>521.17</ele>
        <time>2017-04-09T07:41:52Z</time>
      </trkpt>
      <trkpt lat="48.17929" lon="6.63574">
        <ele>522.13</ele>
        <time>2017-04-09T07:41:55Z</time>
      </trkpt>
      <trkpt lat="48.1794" lon="6.6357">
        <ele>522.61</ele>
        <time>2017-04-09T07:41:58Z</time>
      </trkpt>
      <trkpt lat="48.17952" lon="6.63568">
        <ele>523.09</ele>
        <time>2017-04-09T07:42:01Z</time>
      </trkpt>
      <trkpt lat="48.17962" lon="6.63566">
        <ele>523.58</ele>
        <time>2017-04-09T07:42:04Z</time>
      </trkpt>
      <trkpt lat="48.17971" lon="6.63561">
        <ele>524.54</ele>
        <time>2017-04-09T07:42:07Z</time>
      </trkpt>
      <trkpt lat="48.17983" lon="6.63557">
        <ele>525.5</ele>
        <time>2017-04-09T07:42:10Z</time>
      </trkpt>
      <trkpt lat="48.17993" lon="6.63554">
        <ele>525.5</ele>
        <time>2017-04-09T07:42:13Z</time>
      </trkpt>
      <trkpt lat="48.18002" lon="6.63549">
        <ele>526.46</ele>
        <time>2017-04-09T07:42:16Z</time>
      </trkpt>
      <trkpt lat="48.18012" lon="6.63545">
        <ele>526.46</ele>
        <time>2017-04-09T07:42:19Z</time>
      </trkpt>
      <trkpt lat="48.18024" lon="6.63539">
        <ele>527.42</ele>
        <time>2017-04-09T07:42:23Z</time>
      </trkpt>
      <trkpt lat="48.18035" lon="6.63536">
        <ele>527.42</ele>
        <time>2017-04-09T07:42:26Z</time>
      </trkpt>
      <trkpt lat="48.18046" lon="6.63531">
        <ele>528.38</ele>
        <time>2017-04-09T07:42:30Z</time>
      </trkpt>
      <trkpt lat="48.18057" lon="6.63526">
        <ele>529.34</ele>
        <time>2017-04-09T07:42:33Z</time>
      </trkpt>
      <trkpt lat="48.18066" lon="6.63522">
        <ele>529.82</ele>
        <time>2017-04-09T07:42:36Z</time>
      </trkpt>
      <trkpt lat="48.18075" lon="6.63517">
        <ele>529.82</ele>
        <time>2017-04-09T07:42:39Z</time>
      </trkpt>
      <trkpt lat="48.18084" lon="6.63513">
        <ele>530.3</ele>
        <time>2017-04-09T07:42:42Z</time>
      </trkpt>
      <trkpt lat="48.18094" lon="6.63506">
        <ele>530.3</ele>
        <time>2017-04-09T07:42:45Z</time>
      </trkpt>
      <trkpt lat="48.18104" lon="6.63498">
        <ele>530.79</ele>
        <time>2017-04-09T07:42:48Z</time>
      </trkpt>
      <trkpt lat="48.18112" lon="6.63488">
        <ele>530.79</ele>
        <time>2017-04-09T07:42:51Z</time>
      </trkpt>
      <trkpt lat="48.1812" lon="6.63478">
        <ele>531.75</ele>
        <time>2017-04-09T07:42:54Z</time>
      </trkpt>
      <trkpt lat="48.18127" lon="6.63468">
        <ele>532.23</ele>
        <time>2017-04-09T07:42:57Z</time>
      </trkpt>
      <trkpt lat="48.18135" lon="6.63458">
        <ele>531.75</ele>
        <time>2017-04-09T07:43:00Z</time>
      </trkpt>
      <trkpt lat="48.18142" lon="6.63444">
        <ele>532.23</ele>
        <time>2017-04-09T07:43:03Z</time>
      </trkpt>
      <trkpt lat="48.18147" lon="6.6343">
        <ele>532.23</ele>
        <time>2017-04-09T07:43:06Z</time>
      </trkpt>
      <trkpt lat="48.18152" lon="6.63415">
        <ele>532.71</ele>
        <time>2017-04-09T07:43:09Z</time>
      </trkpt>
      <trkpt lat="48.18157" lon="6.634">
        <ele>532.23</ele>
        <time>2017-04-09T07:43:12Z</time>
      </trkpt>
      <trkpt lat="48.18163" lon="6.63383">
        <ele>531.75</ele>
        <time>2017-04-09T07:43:15Z</time>
      </trkpt>
      <trkpt lat="48.18169" lon="6.63371">
        <ele>531.75</ele>
        <time>2017-04-09T07:43:17Z</time>
      </trkpt>
      <trkpt lat="48.18175" lon="6.63361">
        <ele>531.27</ele>
        <time>2017-04-09T07:43:19Z</time>
      </trkpt>
      <trkpt lat="48.18182" lon="6.63343">
        <ele>531.27</ele>
        <time>2017-04-09T07:43:22Z</time>
      </trkpt>
      <trkpt lat="48.18187" lon="6.6333">
        <ele>531.27</ele>
        <time>2017-04-09T07:43:24Z</time>
      </trkpt>
      <trkpt lat="48.18193" lon="6.63318">
        <ele>530.79</ele>
        <time>2017-04-09T07:43:26Z</time>
      </trkpt>
      <trkpt lat="48.182" lon="6.63305">
        <ele>530.79</ele>
        <time>2017-04-09T07:43:28Z</time>
      </trkpt>
      <trkpt lat="48.18207" lon="6.63291">
        <ele>530.3</ele>
        <time>2017-04-09T07:43:30Z</time>
      </trkpt>
      <trkpt lat="48.18212" lon="6.63276">
        <ele>530.3</ele>
        <time>2017-04-09T07:43:32Z</time>
      </trkpt>
      <trkpt lat="48.18218" lon="6.6326">
        <ele>529.34</ele>
        <time>2017-04-09T07:43:34Z</time>
      </trkpt>
      <trkpt lat="48.18224" lon="6.63244">
        <ele>528.86</ele>
        <time>2017-04-09T07:43:36Z</time>
      </trkpt>
      <trkpt lat="48.18231" lon="6.63226">
        <ele>528.86</ele>
        <time>2017-04-09T07:43:38Z</time>
      </trkpt>
      <trkpt lat="48.18238" lon="6.63206">
        <ele>527.9</ele>
        <time>2017-04-09T07:43:40Z</time>
      </trkpt>
      <trkpt lat="48.18245" lon="6.63186">
        <ele>527.42</ele>
        <time>2017-04-09T07:43:42Z</time>
      </trkpt>
      <trkpt lat="48.18252" lon="6.63166">
        <ele>527.42</ele>
        <time>2017-04-09T07:43:44Z</time>
      </trkpt>
      <trkpt lat="48.18258" lon="6.63147">
        <ele>527.42</ele>
        <time>2017-04-09T07:43:46Z</time>
      </trkpt>
      <trkpt lat="48.18264" lon="6.63131">
        <ele>528.38</ele>
        <time>2017-04-09T07:43:48Z</time>
      </trkpt>
      <trkpt lat="48.18269" lon="6.63115">
        <ele>528.86</ele>
        <time>2017-04-09T07:43:50Z</time>
      </trkpt>
      <trkpt lat="48.18275" lon="6.63102">
        <ele>528.86</ele>
        <time>2017-04-09T07:43:52Z</time>
      </trkpt>
      <trkpt lat="48.18281" lon="6.63086">
        <ele>530.3</ele>
        <time>2017-04-09T07:43:55Z</time>
      </trkpt>
      <trkpt lat="48.18284" lon="6.63071">
        <ele>530.3</ele>
        <time>2017-04-09T07:43:58Z</time>
      </trkpt>
      <trkpt lat="48.18289" lon="6.63058">
        <ele>531.27</ele>
        <time>2017-04-09T07:44:02Z</time>
      </trkpt>
      <trkpt lat="48.18293" lon="6.63042">
        <ele>533.19</ele>
        <time>2017-04-09T07:44:07Z</time>
      </trkpt>
      <trkpt lat="48.18297" lon="6.63027">
        <ele>534.63</ele>
        <time>2017-04-09T07:44:12Z</time>
      </trkpt>
      <trkpt lat="48.18303" lon="6.63013">
        <ele>536.07</ele>
        <time>2017-04-09T07:44:17Z</time>
      </trkpt>
      <trkpt lat="48.18311" lon="6.63003">
        <ele>536.55</ele>
        <time>2017-04-09T07:44:23Z</time>
      </trkpt>
      <trkpt lat="48.18313" lon="6.62988">
        <ele>537.51</ele>
        <time>2017-04-09T07:44:30Z</time>
      </trkpt>
      <trkpt lat="48.18313" lon="6.62967">
        <ele>538.96</ele>
        <time>2017-04-09T07:44:38Z</time>
      </trkpt>
      <trkpt lat="48.18314" lon="6.62949">
        <ele>538.96</ele>
        <time>2017-04-09T07:44:44Z</time>
      </trkpt>
      <trkpt lat="48.1831" lon="6.62927">
        <ele>540.88</ele>
        <time>2017-04-09T07:44:52Z</time>
      </trkpt>
      <trkpt lat="48.18317" lon="6.62914">
        <ele>542.8</ele>
        <time>2017-04-09T07:44:59Z</time>
      </trkpt>
      <trkpt lat="48.18321" lon="6.629">
        <ele>543.28</ele>
        <time>2017-04-09T07:45:05Z</time>
      </trkpt>
      <trkpt lat="48.18321" lon="6.62883">
        <ele>544.72</ele>
        <time>2017-04-09T07:45:11Z</time>
      </trkpt>
      <trkpt lat="48.18324" lon="6.6287">
        <ele>545.2</ele>
        <time>2017-04-09T07:45:17Z</time>
      </trkpt>
      <trkpt lat="48.18329" lon="6.62858">
        <ele>546.17</ele>
        <time>2017-04-09T07:45:23Z</time>
      </trkpt>
      <trkpt lat="48.18333" lon="6.62847">
        <ele>547.61</ele>
        <time>2017-04-09T07:45:30Z</time>
      </trkpt>
      <trkpt lat="48.18344" lon="6.62841">
        <ele>549.05</ele>
        <time>2017-04-09T07:45:38Z</time>
      </trkpt>
      <trkpt lat="48.18345" lon="6.62837">
        <ele>550.49</ele>
        <time>2017-04-09T07:45:45Z</time>
      </trkpt>
      <trkpt lat="48.18351" lon="6.62843">
        <ele>551.45</ele>
        <time>2017-04-09T07:45:52Z</time>
      </trkpt>
      <trkpt lat="48.1836" lon="6.62855">
        <ele>552.41</ele>
        <time>2017-04-09T07:46:00Z</time>
      </trkpt>
      <trkpt lat="48.1837" lon="6.62864">
        <ele>553.86</ele>
        <time>2017-04-09T07:46:07Z</time>
      </trkpt>
      <trkpt lat="48.1838" lon="6.62872">
        <ele>554.82</ele>
        <time>2017-04-09T07:46:14Z</time>
      </trkpt>
      <trkpt lat="48.18389" lon="6.62881">
        <ele>555.78</ele>
        <time>2017-04-09T07:46:20Z</time>
      </trkpt>
      <trkpt lat="48.18398" lon="6.62889">
        <ele>556.74</ele>
        <time>2017-04-09T07:46:26Z</time>
      </trkpt>
      <trkpt lat="48.18406" lon="6.62898">
        <ele>557.7</ele>
        <time>2017-04-09T07:46:32Z</time>
      </trkpt>
      <trkpt lat="48.18416" lon="6.62905">
        <ele>558.66</ele>
        <time>2017-04-09T07:46:38Z</time>
      </trkpt>
      <trkpt lat="48.18426" lon="6.62915">
        <ele>559.62</ele>
        <time>2017-04-09T07:46:44Z</time>
      </trkpt>
      <trkpt lat="48.18435" lon="6.62921">
        <ele>560.11</ele>
        <time>2017-04-09T07:46:49Z</time>
      </trkpt>
      <trkpt lat="48.18443" lon="6.6293">
        <ele>561.07</ele>
        <time>2017-04-09T07:46:54Z</time>
      </trkpt>
      <trkpt lat="48.18452" lon="6.62938">
        <ele>562.03</ele>
        <time>2017-04-09T07:47:00Z</time>
      </trkpt>
      <trkpt lat="48.1846" lon="6.62946">
        <ele>563.95</ele>
        <time>2017-04-09T07:47:07Z</time>
      </trkpt>
      <trkpt lat="48.1847" lon="6.62955">
        <ele>565.39</ele>
        <time>2017-04-09T07:47:13Z</time>
      </trkpt>
      <trkpt lat="48.18478" lon="6.62962">
        <ele>565.87</ele>
        <time>2017-04-09T07:47:18Z</time>
      </trkpt>
      <trkpt lat="48.18488" lon="6.6297">
        <ele>566.83</ele>
        <time>2017-04-09T07:47:24Z</time>
      </trkpt>
      <trkpt lat="48.18497" lon="6.62976">
        <ele>567.8</ele>
        <time>2017-04-09T07:47:29Z</time>
      </trkpt>
      <trkpt lat="48.18505" lon="6.62983">
        <ele>569.24</ele>
        <time>2017-04-09T07:47:37Z</time>
      </trkpt>
      <trkpt lat="48.18517" lon="6.62995">
        <ele>571.16</ele>
        <time>2017-04-09T07:47:45Z</time>
      </trkpt>
      <trkpt lat="48.18527" lon="6.63006">
        <ele>572.6</ele>
        <time>2017-04-09T07:47:53Z</time>
      </trkpt>
      <trkpt lat="48.18539" lon="6.63017">
        <ele>573.56</ele>
        <time>2017-04-09T07:48:00Z</time>
      </trkpt>
      <trkpt lat="48.1855" lon="6.63027">
        <ele>574.04</ele>
        <time>2017-04-09T07:48:06Z</time>
      </trkpt>
      <trkpt lat="48.1856" lon="6.63035">
        <ele>575.97</ele>
        <time>2017-04-09T07:48:12Z</time>
      </trkpt>
      <trkpt lat="48.18571" lon="6.63046">
        <ele>576.45</ele>
        <time>2017-04-09T07:48:18Z</time>
      </trkpt>
      <trkpt lat="48.18581" lon="6.63055">
        <ele>576.45</ele>
        <time>2017-04-09T07:48:24Z</time>
      </trkpt>
      <trkpt lat="48.18589" lon="6.63065">
        <ele>577.41</ele>
        <time>2017-04-09T07:48:30Z</time>
      </trkpt>
      <trkpt lat="48.18597" lon="6.63076">
        <ele>578.37</ele>
        <time>2017-04-09T07:48:38Z</time>
      </trkpt>
      <trkpt lat="48.18608" lon="6.63085">
        <ele>579.81</ele>
        <time>2017-04-09T07:48:45Z</time>
      </trkpt>
      <trkpt lat="48.18619" lon="6.63095">
        <ele>580.77</ele>
        <time>2017-04-09T07:48:51Z</time>
      </trkpt>
      <trkpt lat="48.18627" lon="6.63101">
        <ele>581.25</ele>
        <time>2017-04-09T07:48:56Z</time>
      </trkpt>
      <trkpt lat="48.18636" lon="6.6311">
        <ele>581.73</ele>
        <time>2017-04-09T07:49:01Z</time>
      </trkpt>
      <trkpt lat="48.18647" lon="6.63117">
        <ele>581.73</ele>
        <time>2017-04-09T07:49:05Z</time>
      </trkpt>
      <trkpt lat="48.18657" lon="6.63125">
        <ele>582.22</ele>
        <time>2017-04-09T07:49:09Z</time>
      </trkpt>
      <trkpt lat="48.18665" lon="6.63132">
        <ele>581.73</ele>
        <time>2017-04-09T07:49:12Z</time>
      </trkpt>
      <trkpt lat="48.18674" lon="6.63139">
        <ele>581.73</ele>
        <time>2017-04-09T07:49:15Z</time>
      </trkpt>
      <trkpt lat="48.18685" lon="6.63147">
        <ele>580.77</ele>
        <time>2017-04-09T07:49:18Z</time>
      </trkpt>
      <trkpt lat="48.18695" lon="6.63155">
        <ele>580.29</ele>
        <time>2017-04-09T07:49:20Z</time>
      </trkpt>
      <trkpt lat="48.18706" lon="6.63164">
        <ele>579.33</ele>
        <time>2017-04-09T07:49:22Z</time>
      </trkpt>
      <trkpt lat="48.18716" lon="6.63173">
        <ele>578.85</ele>
        <time>2017-04-09T07:49:24Z</time>
      </trkpt>
      <trkpt lat="48.18727" lon="6.63182">
        <ele>578.85</ele>
        <time>2017-04-09T07:49:26Z</time>
      </trkpt>
      <trkpt lat="48.18737" lon="6.63191">
        <ele>577.89</ele>
        <time>2017-04-09T07:49:28Z</time>
      </trkpt>
      <trkpt lat="48.18749" lon="6.63201">
        <ele>576.93</ele>
        <time>2017-04-09T07:49:30Z</time>
      </trkpt>
      <trkpt lat="48.18761" lon="6.63213">
        <ele>575.49</ele>
        <time>2017-04-09T07:49:32Z</time>
      </trkpt>
      <trkpt lat="48.18773" lon="6.63224">
        <ele>575.49</ele>
        <time>2017-04-09T07:49:34Z</time>
      </trkpt>
      <trkpt lat="48.18784" lon="6.63234">
        <ele>575.01</ele>
        <time>2017-04-09T07:49:36Z</time>
      </trkpt>
      <trkpt lat="48.18795" lon="6.63242">
        <ele>575.49</ele>
        <time>2017-04-09T07:49:38Z</time>
      </trkpt>
      <trkpt lat="48.18804" lon="6.63251">
        <ele>575.97</ele>
        <time>2017-04-09T07:49:40Z</time>
      </trkpt>
      <trkpt lat="48.18815" lon="6.6326">
        <ele>575.97</ele>
        <time>2017-04-09T07:49:43Z</time>
      </trkpt>
      <trkpt lat="48.18826" lon="6.63254">
        <ele>576.93</ele>
        <time>2017-04-09T07:49:47Z</time>
      </trkpt>
      <trkpt lat="48.18835" lon="6.63242">
        <ele>575.97</ele>
        <time>2017-04-09T07:49:50Z</time>
      </trkpt>
      <trkpt lat="48.18842" lon="6.63229">
        <ele>575.49</ele>
        <time>2017-04-09T07:49:53Z</time>
      </trkpt>
      <trkpt lat="48.18848" lon="6.63214">
        <ele>574.53</ele>
        <time>2017-04-09T07:49:56Z</time>
      </trkpt>
      <trkpt lat="48.18853" lon="6.63202">
        <ele>573.08</ele>
        <time>2017-04-09T07:49:58Z</time>
      </trkpt>
      <trkpt lat="48.1886" lon="6.63192">
        <ele>572.12</ele>
        <time>2017-04-09T07:50:00Z</time>
      </trkpt>
      <trkpt lat="48.18866" lon="6.6318">
        <ele>571.16</ele>
        <time>2017-04-09T07:50:03Z</time>
      </trkpt>
      <trkpt lat="48.18872" lon="6.63168">
        <ele>569.72</ele>
        <time>2017-04-09T07:50:06Z</time>
      </trkpt>
      <trkpt lat="48.18879" lon="6.63153">
        <ele>568.28</ele>
        <time>2017-04-09T07:50:09Z</time>
      </trkpt>
      <trkpt lat="48.18883" lon="6.6314">
        <ele>567.32</ele>
        <time>2017-04-09T07:50:11Z</time>
      </trkpt>
      <trkpt lat="48.18886" lon="6.63125">
        <ele>565.87</ele>
        <time>2017-04-09T07:50:13Z</time>
      </trkpt>
      <trkpt lat="48.18888" lon="6.63112">
        <ele>564.43</ele>
        <time>2017-04-09T07:50:15Z</time>
      </trkpt>
      <trkpt lat="48.18893" lon="6.63092">
        <ele>562.51</ele>
        <time>2017-04-09T07:50:18Z</time>
      </trkpt>
      <trkpt lat="48.18895" lon="6.63077">
        <ele>560.59</ele>
        <time>2017-04-09T07:50:20Z</time>
      </trkpt>
      <trkpt lat="48.18898" lon="6.63061">
        <ele>559.14</ele>
        <time>2017-04-09T07:50:23Z</time>
      </trkpt>
      <trkpt lat="48.18899" lon="6.63061">
        <ele>559.14</ele>
        <time>2017-04-09T07:50:30Z</time>
      </trkpt>
      <trkpt lat="48.18901" lon="6.63076">
        <ele>561.07</ele>
        <time>2017-04-09T07:50:36Z</time>
      </trkpt>
      <trkpt lat="48.18904" lon="6.63092">
        <ele>562.03</ele>
        <time>2017-04-09T07:50:40Z</time>
      </trkpt>
      <trkpt lat="48.1891" lon="6.63109">
        <ele>564.43</ele>
        <time>2017-04-09T07:50:46Z</time>
      </trkpt>
      <trkpt lat="48.18915" lon="6.63124">
        <ele>565.39</ele>
        <time>2017-04-09T07:50:51Z</time>
      </trkpt>
      <trkpt lat="48.18922" lon="6.63137">
        <ele>565.39</ele>
        <time>2017-04-09T07:50:55Z</time>
      </trkpt>
      <trkpt lat="48.1893" lon="6.6315">
        <ele>566.83</ele>
        <time>2017-04-09T07:51:00Z</time>
      </trkpt>
      <trkpt lat="48.18942" lon="6.63155">
        <ele>566.83</ele>
        <time>2017-04-09T07:51:05Z</time>
      </trkpt>
      <trkpt lat="48.1895" lon="6.63158">
        <ele>566.83</ele>
        <time>2017-04-09T07:51:08Z</time>
      </trkpt>
      <trkpt lat="48.18958" lon="6.63171">
        <ele>566.83</ele>
        <time>2017-04-09T07:51:12Z</time>
      </trkpt>
      <trkpt lat="48.18966" lon="6.63185">
        <ele>568.28</ele>
        <time>2017-04-09T07:51:17Z</time>
      </trkpt>
      <trkpt lat="48.18972" lon="6.63198">
        <ele>569.72</ele>
        <time>2017-04-09T07:51:24Z</time>
      </trkpt>
      <trkpt lat="48.18979" lon="6.63211">
        <ele>569.72</ele>
        <time>2017-04-09T07:51:29Z</time>
      </trkpt>
      <trkpt lat="48.18987" lon="6.63224">
        <ele>570.68</ele>
        <time>2017-04-09T07:51:35Z</time>
      </trkpt>
      <trkpt lat="48.18994" lon="6.63238">
        <ele>571.64</ele>
        <time>2017-04-09T07:51:41Z</time>
      </trkpt>
      <trkpt lat="48.18998" lon="6.63251">
        <ele>572.12</ele>
        <time>2017-04-09T07:51:47Z</time>
      </trkpt>
      <trkpt lat="48.19007" lon="6.63262">
        <ele>572.6</ele>
        <time>2017-04-09T07:51:51Z</time>
      </trkpt>
      <trkpt lat="48.19015" lon="6.63278">
        <ele>573.08</ele>
        <time>2017-04-09T07:51:56Z</time>
      </trkpt>
      <trkpt lat="48.19021" lon="6.6329">
        <ele>573.56</ele>
        <time>2017-04-09T07:52:00Z</time>
      </trkpt>
      <trkpt lat="48.19028" lon="6.63303">
        <ele>573.56</ele>
        <time>2017-04-09T07:52:04Z</time>
      </trkpt>
      <trkpt lat="48.19035" lon="6.63318">
        <ele>574.04</ele>
        <time>2017-04-09T07:52:07Z</time>
      </trkpt>
      <trkpt lat="48.19041" lon="6.63333">
        <ele>573.56</ele>
        <time>2017-04-09T07:52:10Z</time>
      </trkpt>
      <trkpt lat="48.19049" lon="6.63343">
        <ele>574.04</ele>
        <time>2017-04-09T07:52:13Z</time>
      </trkpt>
      <trkpt lat="48.19055" lon="6.63354">
        <ele>574.04</ele>
        <time>2017-04-09T07:52:16Z</time>
      </trkpt>
      <trkpt lat="48.19061" lon="6.63366">
        <ele>574.04</ele>
        <time>2017-04-09T07:52:19Z</time>
      </trkpt>
      <trkpt lat="48.19069" lon="6.63375">
        <ele>574.53</ele>
        <time>2017-04-09T07:52:22Z</time>
      </trkpt>
      <trkpt lat="48.19077" lon="6.63387">
        <ele>574.53</ele>
        <time>2017-04-09T07:52:25Z</time>
      </trkpt>
      <trkpt lat="48.19086" lon="6.63399">
        <ele>574.04</ele>
        <time>2017-04-09T07:52:28Z</time>
      </trkpt>
      <trkpt lat="48.19093" lon="6.63413">
        <ele>574.53</ele>
        <time>2017-04-09T07:52:31Z</time>
      </trkpt>
      <trkpt lat="48.191" lon="6.63424">
        <ele>575.01</ele>
        <time>2017-04-09T07:52:34Z</time>
      </trkpt>
      <trkpt lat="48.19108" lon="6.63435">
        <ele>575.01</ele>
        <time>2017-04-09T07:52:37Z</time>
      </trkpt>
      <trkpt lat="48.19115" lon="6.63447">
        <ele>574.53</ele>
        <time>2017-04-09T07:52:40Z</time>
      </trkpt>
      <trkpt lat="48.19121" lon="6.63461">
        <ele>575.01</ele>
        <time>2017-04-09T07:52:43Z</time>
      </trkpt>
      <trkpt lat="48.19128" lon="6.63474">
        <ele>575.01</ele>
        <time>2017-04-09T07:52:46Z</time>
      </trkpt>
      <trkpt lat="48.19133" lon="6.63488">
        <ele>575.49</ele>
        <time>2017-04-09T07:52:49Z</time>
      </trkpt>
      <trkpt lat="48.1914" lon="6.63501">
        <ele>575.97</ele>
        <time>2017-04-09T07:52:52Z</time>
      </trkpt>
      <trkpt lat="48.19149" lon="6.63513">
        <ele>575.97</ele>
        <time>2017-04-09T07:52:55Z</time>
      </trkpt>
      <trkpt lat="48.19157" lon="6.63527">
        <ele>576.45</ele>
        <time>2017-04-09T07:52:58Z</time>
      </trkpt>
      <trkpt lat="48.19164" lon="6.63537">
        <ele>575.97</ele>
        <time>2017-04-09T07:53:01Z</time>
      </trkpt>
      <trkpt lat="48.19169" lon="6.6355">
        <ele>576.45</ele>
        <time>2017-04-09T07:53:04Z</time>
      </trkpt>
      <trkpt lat="48.19168" lon="6.63566">
        <ele>577.41</ele>
        <time>2017-04-09T07:53:09Z</time>
      </trkpt>
      <trkpt lat="48.19176" lon="6.63579">
        <ele>577.41</ele>
        <time>2017-04-09T07:53:13Z</time>
      </trkpt>
      <trkpt lat="48.19183" lon="6.63591">
        <ele>577.89</ele>
        <time>2017-04-09T07:53:17Z</time>
      </trkpt>
      <trkpt lat="48.19191" lon="6.63605">
        <ele>578.37</ele>
        <time>2017-04-09T07:53:21Z</time>
      </trkpt>
      <trkpt lat="48.19198" lon="6.63617">
        <ele>578.37</ele>
        <time>2017-04-09T07:53:25Z</time>
      </trkpt>
      <trkpt lat="48.19206" lon="6.6363">
        <ele>578.85</ele>
        <time>2017-04-09T07:53:29Z</time>
      </trkpt>
      <trkpt lat="48.19212" lon="6.63643">
        <ele>578.85</ele>
        <time>2017-04-09T07:53:32Z</time>
      </trkpt>
      <trkpt lat="48.19221" lon="6.63656">
        <ele>579.33</ele>
        <time>2017-04-09T07:53:35Z</time>
      </trkpt>
      <trkpt lat="48.1923" lon="6.6367">
        <ele>578.85</ele>
        <time>2017-04-09T07:53:39Z</time>
      </trkpt>
      <trkpt lat="48.19235" lon="6.63682">
        <ele>579.33</ele>
        <time>2017-04-09T07:53:42Z</time>
      </trkpt>
      <trkpt lat="48.19241" lon="6.63694">
        <ele>580.29</ele>
        <time>2017-04-09T07:53:45Z</time>
      </trkpt>
      <trkpt lat="48.19249" lon="6.6371">
        <ele>580.29</ele>
        <time>2017-04-09T07:53:49Z</time>
      </trkpt>
      <trkpt lat="48.19258" lon="6.63723">
        <ele>579.81</ele>
        <time>2017-04-09T07:53:53Z</time>
      </trkpt>
      <trkpt lat="48.19264" lon="6.63735">
        <ele>580.29</ele>
        <time>2017-04-09T07:53:56Z</time>
      </trkpt>
      <trkpt lat="48.1927" lon="6.63746">
        <ele>579.33</ele>
        <time>2017-04-09T07:53:59Z</time>
      </trkpt>
      <trkpt lat="48.19278" lon="6.63758">
        <ele>578.37</ele>
        <time>2017-04-09T07:54:02Z</time>
      </trkpt>
      <trkpt lat="48.19284" lon="6.63771">
        <ele>578.85</ele>
        <time>2017-04-09T07:54:05Z</time>
      </trkpt>
      <trkpt lat="48.1929" lon="6.63784">
        <ele>578.37</ele>
        <time>2017-04-09T07:54:08Z</time>
      </trkpt>
      <trkpt lat="48.19296" lon="6.63796">
        <ele>578.85</ele>
        <time>2017-04-09T07:54:11Z</time>
      </trkpt>
      <trkpt lat="48.19304" lon="6.63806">
        <ele>579.33</ele>
        <time>2017-04-09T07:54:14Z</time>
      </trkpt>
      <trkpt lat="48.19313" lon="6.6382">
        <ele>579.33</ele>
        <time>2017-04-09T07:54:18Z</time>
      </trkpt>
      <trkpt lat="48.19318" lon="6.63836">
        <ele>579.81</ele>
        <time>2017-04-09T07:54:22Z</time>
      </trkpt>
      <trkpt lat="48.19317" lon="6.6385">
        <ele>580.29</ele>
        <time>2017-04-09T07:54:26Z</time>
      </trkpt>
      <trkpt lat="48.19309" lon="6.63862">
        <ele>580.29</ele>
        <time>2017-04-09T07:54:30Z</time>
      </trkpt>
      <trkpt lat="48.19298" lon="6.63872">
        <ele>579.33</ele>
        <time>2017-04-09T07:54:34Z</time>
      </trkpt>
      <trkpt lat="48.19287" lon="6.63882">
        <ele>578.85</ele>
        <time>2017-04-09T07:54:37Z</time>
      </trkpt>
      <trkpt lat="48.19278" lon="6.63889">
        <ele>578.37</ele>
        <time>2017-04-09T07:54:39Z</time>
      </trkpt>
      <trkpt lat="48.19268" lon="6.63895">
        <ele>577.89</ele>
        <time>2017-04-09T07:54:41Z</time>
      </trkpt>
      <trkpt lat="48.19259" lon="6.63901">
        <ele>577.89</ele>
        <time>2017-04-09T07:54:43Z</time>
      </trkpt>
      <trkpt lat="48.1925" lon="6.6391">
        <ele>577.41</ele>
        <time>2017-04-09T07:54:45Z</time>
      </trkpt>
      <trkpt lat="48.19241" lon="6.63921">
        <ele>577.41</ele>
        <time>2017-04-09T07:54:47Z</time>
      </trkpt>
      <trkpt lat="48.19229" lon="6.6393">
        <ele>576.93</ele>
        <time>2017-04-09T07:54:50Z</time>
      </trkpt>
      <trkpt lat="48.19219" lon="6.63943">
        <ele>576.45</ele>
        <time>2017-04-09T07:54:53Z</time>
      </trkpt>
      <trkpt lat="48.19221" lon="6.63957">
        <ele>575.97</ele>
        <time>2017-04-09T07:54:57Z</time>
      </trkpt>
      <trkpt lat="48.19225" lon="6.63973">
        <ele>577.41</ele>
        <time>2017-04-09T07:55:07Z</time>
      </trkpt>
      <trkpt lat="48.19227" lon="6.6399">
        <ele>577.89</ele>
        <time>2017-04-09T07:55:38Z</time>
      </trkpt>
      <trkpt lat="48.19234" lon="6.64">
        <ele>577.41</ele>
        <time>2017-04-09T07:55:44Z</time>
      </trkpt>
      <trkpt lat="48.19238" lon="6.64018">
        <ele>578.37</ele>
        <time>2017-04-09T07:57:02Z</time>
      </trkpt>
      <trkpt lat="48.19245" lon="6.6403">
        <ele>578.37</ele>
        <time>2017-04-09T07:57:07Z</time>
      </trkpt>
      <trkpt lat="48.19251" lon="6.64045">
        <ele>579.33</ele>
        <time>2017-04-09T07:57:11Z</time>
      </trkpt>
      <trkpt lat="48.1925" lon="6.6406">
        <ele>580.29</ele>
        <time>2017-04-09T07:57:15Z</time>
      </trkpt>
      <trkpt lat="48.1925" lon="6.64077">
        <ele>580.29</ele>
        <time>2017-04-09T07:57:19Z</time>
      </trkpt>
      <trkpt lat="48.19255" lon="6.64093">
        <ele>581.25</ele>
        <time>2017-04-09T07:57:22Z</time>
      </trkpt>
      <trkpt lat="48.19262" lon="6.64111">
        <ele>580.77</ele>
        <time>2017-04-09T07:57:26Z</time>
      </trkpt>
      <trkpt lat="48.19263" lon="6.64125">
        <ele>581.25</ele>
        <time>2017-04-09T07:57:29Z</time>
      </trkpt>
      <trkpt lat="48.19267" lon="6.64141">
        <ele>581.25</ele>
        <time>2017-04-09T07:57:32Z</time>
      </trkpt>
      <trkpt lat="48.1927" lon="6.64159">
        <ele>580.77</ele>
        <time>2017-04-09T07:57:35Z</time>
      </trkpt>
      <trkpt lat="48.19271" lon="6.64178">
        <ele>581.25</ele>
        <time>2017-04-09T07:57:38Z</time>
      </trkpt>
      <trkpt lat="48.19273" lon="6.64194">
        <ele>580.77</ele>
        <time>2017-04-09T07:57:41Z</time>
      </trkpt>
      <trkpt lat="48.19274" lon="6.64212">
        <ele>580.77</ele>
        <time>2017-04-09T07:57:44Z</time>
      </trkpt>
      <trkpt lat="48.19275" lon="6.64231">
        <ele>580.77</ele>
        <time>2017-04-09T07:57:47Z</time>
      </trkpt>
      <trkpt lat="48.19277" lon="6.6425">
        <ele>580.29</ele>
        <time>2017-04-09T07:57:50Z</time>
      </trkpt>
      <trkpt lat="48.19278" lon="6.64267">
        <ele>579.81</ele>
        <time>2017-04-09T07:57:53Z</time>
      </trkpt>
      <trkpt lat="48.19279" lon="6.64288">
        <ele>579.81</ele>
        <time>2017-04-09T07:57:56Z</time>
      </trkpt>
      <trkpt lat="48.19278" lon="6.64307">
        <ele>579.81</ele>
        <time>2017-04-09T07:57:59Z</time>
      </trkpt>
      <trkpt lat="48.19275" lon="6.64325">
        <ele>578.37</ele>
        <time>2017-04-09T07:58:02Z</time>
      </trkpt>
      <trkpt lat="48.19275" lon="6.64345">
        <ele>578.37</ele>
        <time>2017-04-09T07:58:05Z</time>
      </trkpt>
      <trkpt lat="48.19278" lon="6.64362">
        <ele>577.89</ele>
        <time>2017-04-09T07:58:07Z</time>
      </trkpt>
      <trkpt lat="48.19291" lon="6.64381">
        <ele>577.41</ele>
        <time>2017-04-09T07:58:10Z</time>
      </trkpt>
      <trkpt lat="48.19301" lon="6.64399">
        <ele>576.93</ele>
        <time>2017-04-09T07:58:13Z</time>
      </trkpt>
      <trkpt lat="48.19308" lon="6.64412">
        <ele>575.97</ele>
        <time>2017-04-09T07:58:15Z</time>
      </trkpt>
      <trkpt lat="48.19316" lon="6.64425">
        <ele>575.49</ele>
        <time>2017-04-09T07:58:17Z</time>
      </trkpt>
      <trkpt lat="48.19325" lon="6.64439">
        <ele>575.01</ele>
        <time>2017-04-09T07:58:19Z</time>
      </trkpt>
      <trkpt lat="48.19332" lon="6.64453">
        <ele>574.53</ele>
        <time>2017-04-09T07:58:21Z</time>
      </trkpt>
      <trkpt lat="48.1934" lon="6.64466">
        <ele>574.04</ele>
        <time>2017-04-09T07:58:23Z</time>
      </trkpt>
      <trkpt lat="48.19347" lon="6.64481">
        <ele>573.08</ele>
        <time>2017-04-09T07:58:25Z</time>
      </trkpt>
      <trkpt lat="48.19352" lon="6.64497">
        <ele>573.08</ele>
        <time>2017-04-09T07:58:27Z</time>
      </trkpt>
      <trkpt lat="48.19355" lon="6.64511">
        <ele>572.6</ele>
        <time>2017-04-09T07:58:29Z</time>
      </trkpt>
      <trkpt lat="48.19356" lon="6.64525">
        <ele>572.6</ele>
        <time>2017-04-09T07:58:31Z</time>
      </trkpt>
      <trkpt lat="48.19361" lon="6.64542">
        <ele>572.12</ele>
        <time>2017-04-09T07:58:34Z</time>
      </trkpt>
      <trkpt lat="48.19365" lon="6.64556">
        <ele>571.64</ele>
        <time>2017-04-09T07:58:36Z</time>
      </trkpt>
      <trkpt lat="48.19369" lon="6.64571">
        <ele>571.16</ele>
        <time>2017-04-09T07:58:38Z</time>
      </trkpt>
      <trkpt lat="48.19372" lon="6.64586">
        <ele>570.68</ele>
        <time>2017-04-09T07:58:40Z</time>
      </trkpt>
      <trkpt lat="48.19377" lon="6.64602">
        <ele>570.2</ele>
        <time>2017-04-09T07:58:43Z</time>
      </trkpt>
      <trkpt lat="48.19383" lon="6.64618">
        <ele>569.24</ele>
        <time>2017-04-09T07:58:46Z</time>
      </trkpt>
      <trkpt lat="48.19389" lon="6.64638">
        <ele>568.76</ele>
        <time>2017-04-09T07:58:49Z</time>
      </trkpt>
      <trkpt lat="48.19391" lon="6.64666">
        <ele>569.72</ele>
        <time>2017-04-09T07:59:04Z</time>
      </trkpt>
      <trkpt lat="48.19398" lon="6.64684">
        <ele>569.24</ele>
        <time>2017-04-09T07:59:11Z</time>
      </trkpt>
      <trkpt lat="48.19404" lon="6.64701">
        <ele>569.24</ele>
        <time>2017-04-09T07:59:16Z</time>
      </trkpt>
      <trkpt lat="48.1941" lon="6.64719">
        <ele>569.72</ele>
        <time>2017-04-09T07:59:19Z</time>
      </trkpt>
      <trkpt lat="48.19413" lon="6.64738">
        <ele>569.24</ele>
        <time>2017-04-09T07:59:22Z</time>
      </trkpt>
      <trkpt lat="48.19419" lon="6.64755">
        <ele>569.24</ele>
        <time>2017-04-09T07:59:25Z</time>
      </trkpt>
      <trkpt lat="48.19423" lon="6.64773">
        <ele>569.24</ele>
        <time>2017-04-09T07:59:29Z</time>
      </trkpt>
      <trkpt lat="48.19426" lon="6.64791">
        <ele>569.72</ele>
        <time>2017-04-09T07:59:35Z</time>
      </trkpt>
      <trkpt lat="48.19435" lon="6.64804">
        <ele>569.24</ele>
        <time>2017-04-09T08:00:10Z</time>
      </trkpt>
      <trkpt lat="48.19432" lon="6.64799">
        <ele>569.72</ele>
        <time>2017-04-09T08:01:41Z</time>
      </trkpt>
      <trkpt lat="48.19429" lon="6.64806">
        <ele>570.2</ele>
        <time>2017-04-09T08:03:24Z</time>
      </trkpt>
      <trkpt lat="48.1943" lon="6.64802">
        <ele>571.16</ele>
        <time>2017-04-09T08:05:11Z</time>
      </trkpt>
      <trkpt lat="48.19437" lon="6.64805">
        <ele>571.64</ele>
        <time>2017-04-09T08:06:10Z</time>
      </trkpt>
      <trkpt lat="48.19428" lon="6.64794">
        <ele>570.68</ele>
        <time>2017-04-09T08:07:28Z</time>
      </trkpt>
      <trkpt lat="48.19423" lon="6.64782">
        <ele>571.64</ele>
        <time>2017-04-09T08:07:33Z</time>
      </trkpt>
      <trkpt lat="48.19418" lon="6.64768">
        <ele>572.12</ele>
        <time>2017-04-09T08:07:38Z</time>
      </trkpt>
      <trkpt lat="48.19424" lon="6.6475">
        <ele>572.6</ele>
        <time>2017-04-09T08:07:43Z</time>
      </trkpt>
      <trkpt lat="48.19426" lon="6.64736">
        <ele>573.56</ele>
        <time>2017-04-09T08:07:46Z</time>
      </trkpt>
      <trkpt lat="48.19431" lon="6.6472">
        <ele>575.01</ele>
        <time>2017-04-09T08:07:52Z</time>
      </trkpt>
      <trkpt lat="48.19429" lon="6.64703">
        <ele>575.49</ele>
        <time>2017-04-09T08:07:56Z</time>
      </trkpt>
      <trkpt lat="48.19425" lon="6.64689">
        <ele>575.49</ele>
        <time>2017-04-09T08:07:59Z</time>
      </trkpt>
      <trkpt lat="48.19421" lon="6.64673">
        <ele>575.97</ele>
        <time>2017-04-09T08:08:03Z</time>
      </trkpt>
      <trkpt lat="48.1942" lon="6.64657">
        <ele>576.93</ele>
        <time>2017-04-09T08:08:07Z</time>
      </trkpt>
      <trkpt lat="48.19418" lon="6.64639">
        <ele>576.93</ele>
        <time>2017-04-09T08:08:10Z</time>
      </trkpt>
      <trkpt lat="48.19416" lon="6.64626">
        <ele>577.41</ele>
        <time>2017-04-09T08:08:14Z</time>
      </trkpt>
      <trkpt lat="48.19416" lon="6.64613">
        <ele>578.85</ele>
        <time>2017-04-09T08:08:20Z</time>
      </trkpt>
      <trkpt lat="48.19427" lon="6.64595">
        <ele>579.81</ele>
        <time>2017-04-09T08:08:25Z</time>
      </trkpt>
      <trkpt lat="48.19437" lon="6.64579">
        <ele>580.29</ele>
        <time>2017-04-09T08:08:30Z</time>
      </trkpt>
      <trkpt lat="48.19446" lon="6.64565">
        <ele>580.77</ele>
        <time>2017-04-09T08:08:35Z</time>
      </trkpt>
      <trkpt lat="48.19454" lon="6.64552">
        <ele>581.25</ele>
        <time>2017-04-09T08:08:40Z</time>
      </trkpt>
      <trkpt lat="48.19463" lon="6.64535">
        <ele>583.18</ele>
        <time>2017-04-09T08:08:46Z</time>
      </trkpt>
      <trkpt lat="48.19469" lon="6.64523">
        <ele>583.66</ele>
        <time>2017-04-09T08:08:51Z</time>
      </trkpt>
      <trkpt lat="48.19472" lon="6.64508">
        <ele>583.66</ele>
        <time>2017-04-09T08:08:56Z</time>
      </trkpt>
      <trkpt lat="48.1948" lon="6.64496">
        <ele>583.66</ele>
        <time>2017-04-09T08:09:01Z</time>
      </trkpt>
      <trkpt lat="48.19491" lon="6.64482">
        <ele>584.14</ele>
        <time>2017-04-09T08:09:05Z</time>
      </trkpt>
      <trkpt lat="48.19499" lon="6.64468">
        <ele>584.62</ele>
        <time>2017-04-09T08:09:09Z</time>
      </trkpt>
      <trkpt lat="48.19505" lon="6.64456">
        <ele>584.62</ele>
        <time>2017-04-09T08:09:13Z</time>
      </trkpt>
      <trkpt lat="48.19512" lon="6.64443">
        <ele>584.62</ele>
        <time>2017-04-09T08:09:18Z</time>
      </trkpt>
      <trkpt lat="48.19516" lon="6.64428">
        <ele>584.62</ele>
        <time>2017-04-09T08:09:22Z</time>
      </trkpt>
      <trkpt lat="48.19519" lon="6.64414">
        <ele>584.14</ele>
        <time>2017-04-09T08:09:26Z</time>
      </trkpt>
      <trkpt lat="48.19524" lon="6.64401">
        <ele>583.18</ele>
        <time>2017-04-09T08:09:29Z</time>
      </trkpt>
      <trkpt lat="48.19534" lon="6.64387">
        <ele>582.22</ele>
        <time>2017-04-09T08:09:33Z</time>
      </trkpt>
      <trkpt lat="48.19542" lon="6.64374">
        <ele>580.77</ele>
        <time>2017-04-09T08:09:37Z</time>
      </trkpt>
      <trkpt lat="48.19549" lon="6.64362">
        <ele>579.81</ele>
        <time>2017-04-09T08:09:41Z</time>
      </trkpt>
      <trkpt lat="48.19558" lon="6.64353">
        <ele>577.89</ele>
        <time>2017-04-09T08:09:45Z</time>
      </trkpt>
      <trkpt lat="48.19567" lon="6.64349">
        <ele>576.93</ele>
        <time>2017-04-09T08:09:48Z</time>
      </trkpt>
      <trkpt lat="48.1958" lon="6.64345">
        <ele>575.49</ele>
        <time>2017-04-09T08:09:51Z</time>
      </trkpt>
      <trkpt lat="48.19591" lon="6.64343">
        <ele>574.53</ele>
        <time>2017-04-09T08:09:54Z</time>
      </trkpt>
      <trkpt lat="48.19601" lon="6.6434">
        <ele>573.08</ele>
        <time>2017-04-09T08:09:57Z</time>
      </trkpt>
      <trkpt lat="48.1961" lon="6.64334">
        <ele>572.6</ele>
        <time>2017-04-09T08:10:00Z</time>
      </trkpt>
      <trkpt lat="48.19621" lon="6.64321">
        <ele>570.68</ele>
        <time>2017-04-09T08:10:03Z</time>
      </trkpt>
      <trkpt lat="48.19625" lon="6.64306">
        <ele>569.72</ele>
        <time>2017-04-09T08:10:06Z</time>
      </trkpt>
      <trkpt lat="48.19628" lon="6.64289">
        <ele>569.24</ele>
        <time>2017-04-09T08:10:09Z</time>
      </trkpt>
      <trkpt lat="48.1963" lon="6.64269">
        <ele>567.8</ele>
        <time>2017-04-09T08:10:12Z</time>
      </trkpt>
      <trkpt lat="48.1963" lon="6.64249">
        <ele>566.83</ele>
        <time>2017-04-09T08:10:15Z</time>
      </trkpt>
      <trkpt lat="48.19628" lon="6.64231">
        <ele>565.87</ele>
        <time>2017-04-09T08:10:18Z</time>
      </trkpt>
      <trkpt lat="48.19627" lon="6.64217">
        <ele>564.91</ele>
        <time>2017-04-09T08:10:20Z</time>
      </trkpt>
      <trkpt lat="48.19629" lon="6.64201">
        <ele>564.43</ele>
        <time>2017-04-09T08:10:23Z</time>
      </trkpt>
      <trkpt lat="48.19631" lon="6.64182">
        <ele>563.47</ele>
        <time>2017-04-09T08:10:26Z</time>
      </trkpt>
      <trkpt lat="48.19632" lon="6.64166">
        <ele>562.51</ele>
        <time>2017-04-09T08:10:29Z</time>
      </trkpt>
      <trkpt lat="48.19632" lon="6.6415">
        <ele>561.07</ele>
        <time>2017-04-09T08:10:32Z</time>
      </trkpt>
      <trkpt lat="48.19635" lon="6.64134">
        <ele>559.62</ele>
        <time>2017-04-09T08:10:35Z</time>
      </trkpt>
      <trkpt lat="48.1964" lon="6.64119">
        <ele>558.66</ele>
        <time>2017-04-09T08:10:38Z</time>
      </trkpt>
      <trkpt lat="48.19647" lon="6.64106">
        <ele>557.7</ele>
        <time>2017-04-09T08:10:41Z</time>
      </trkpt>
      <trkpt lat="48.19654" lon="6.64096">
        <ele>557.22</ele>
        <time>2017-04-09T08:10:44Z</time>
      </trkpt>
      <trkpt lat="48.1966" lon="6.64085">
        <ele>555.78</ele>
        <time>2017-04-09T08:10:47Z</time>
      </trkpt>
      <trkpt lat="48.19666" lon="6.64073">
        <ele>554.82</ele>
        <time>2017-04-09T08:10:50Z</time>
      </trkpt>
      <trkpt lat="48.19672" lon="6.64058">
        <ele>553.86</ele>
        <time>2017-04-09T08:10:53Z</time>
      </trkpt>
      <trkpt lat="48.19674" lon="6.64044">
        <ele>552.41</ele>
        <time>2017-04-09T08:10:55Z</time>
      </trkpt>
      <trkpt lat="48.19674" lon="6.64029">
        <ele>551.45</ele>
        <time>2017-04-09T08:10:58Z</time>
      </trkpt>
      <trkpt lat="48.19673" lon="6.64011">
        <ele>550.97</ele>
        <time>2017-04-09T08:11:01Z</time>
      </trkpt>
      <trkpt lat="48.1967" lon="6.63993">
        <ele>550.01</ele>
        <time>2017-04-09T08:11:04Z</time>
      </trkpt>
      <trkpt lat="48.19664" lon="6.63976">
        <ele>548.09</ele>
        <time>2017-04-09T08:11:07Z</time>
      </trkpt>
      <trkpt lat="48.19662" lon="6.63959">
        <ele>547.13</ele>
        <time>2017-04-09T08:11:10Z</time>
      </trkpt>
      <trkpt lat="48.19662" lon="6.63942">
        <ele>545.2</ele>
        <time>2017-04-09T08:11:13Z</time>
      </trkpt>
      <trkpt lat="48.19664" lon="6.63923">
        <ele>543.76</ele>
        <time>2017-04-09T08:11:16Z</time>
      </trkpt>
      <trkpt lat="48.19663" lon="6.63906">
        <ele>542.32</ele>
        <time>2017-04-09T08:11:19Z</time>
      </trkpt>
      <trkpt lat="48.19661" lon="6.63889">
        <ele>540.88</ele>
        <time>2017-04-09T08:11:22Z</time>
      </trkpt>
      <trkpt lat="48.19658" lon="6.63871">
        <ele>539.92</ele>
        <time>2017-04-09T08:11:25Z</time>
      </trkpt>
      <trkpt lat="48.19652" lon="6.63855">
        <ele>538.96</ele>
        <time>2017-04-09T08:11:28Z</time>
      </trkpt>
      <trkpt lat="48.19647" lon="6.63838">
        <ele>538.48</ele>
        <time>2017-04-09T08:11:31Z</time>
      </trkpt>
      <trkpt lat="48.19643" lon="6.63822">
        <ele>537.51</ele>
        <time>2017-04-09T08:11:34Z</time>
      </trkpt>
      <trkpt lat="48.19638" lon="6.63805">
        <ele>536.55</ele>
        <time>2017-04-09T08:11:37Z</time>
      </trkpt>
      <trkpt lat="48.19633" lon="6.63787">
        <ele>535.59</ele>
        <time>2017-04-09T08:11:40Z</time>
      </trkpt>
      <trkpt lat="48.1963" lon="6.63771">
        <ele>534.15</ele>
        <time>2017-04-09T08:11:43Z</time>
      </trkpt>
      <trkpt lat="48.19625" lon="6.63756">
        <ele>533.19</ele>
        <time>2017-04-09T08:11:46Z</time>
      </trkpt>
      <trkpt lat="48.19617" lon="6.63739">
        <ele>532.23</ele>
        <time>2017-04-09T08:11:49Z</time>
      </trkpt>
      <trkpt lat="48.1961" lon="6.63723">
        <ele>531.75</ele>
        <time>2017-04-09T08:11:52Z</time>
      </trkpt>
      <trkpt lat="48.19605" lon="6.63708">
        <ele>530.79</ele>
        <time>2017-04-09T08:11:55Z</time>
      </trkpt>
      <trkpt lat="48.19598" lon="6.63695">
        <ele>529.82</ele>
        <time>2017-04-09T08:11:58Z</time>
      </trkpt>
      <trkpt lat="48.19594" lon="6.63684">
        <ele>529.34</ele>
        <time>2017-04-09T08:12:02Z</time>
      </trkpt>
      <trkpt lat="48.19599" lon="6.63673">
        <ele>526.46</ele>
        <time>2017-04-09T08:12:08Z</time>
      </trkpt>
      <trkpt lat="48.19609" lon="6.63672">
        <ele>524.54</ele>
        <time>2017-04-09T08:12:12Z</time>
      </trkpt>
      <trkpt lat="48.1962" lon="6.63676">
        <ele>523.09</ele>
        <time>2017-04-09T08:12:15Z</time>
      </trkpt>
      <trkpt lat="48.19631" lon="6.63682">
        <ele>522.13</ele>
        <time>2017-04-09T08:12:18Z</time>
      </trkpt>
      <trkpt lat="48.19643" lon="6.63689">
        <ele>520.69</ele>
        <time>2017-04-09T08:12:21Z</time>
      </trkpt>
      <trkpt lat="48.19652" lon="6.63697">
        <ele>519.73</ele>
        <time>2017-04-09T08:12:23Z</time>
      </trkpt>
      <trkpt lat="48.1966" lon="6.63709">
        <ele>519.25</ele>
        <time>2017-04-09T08:12:25Z</time>
      </trkpt>
      <trkpt lat="48.19667" lon="6.63721">
        <ele>519.25</ele>
        <time>2017-04-09T08:12:27Z</time>
      </trkpt>
      <trkpt lat="48.19677" lon="6.63734">
        <ele>517.33</ele>
        <time>2017-04-09T08:12:30Z</time>
      </trkpt>
      <trkpt lat="48.19685" lon="6.63737">
        <ele>516.37</ele>
        <time>2017-04-09T08:12:33Z</time>
      </trkpt>
      <trkpt lat="48.19691" lon="6.63727">
        <ele>515.4</ele>
        <time>2017-04-09T08:12:36Z</time>
      </trkpt>
      <trkpt lat="48.19688" lon="6.63712">
        <ele>513.96</ele>
        <time>2017-04-09T08:12:39Z</time>
      </trkpt>
      <trkpt lat="48.19681" lon="6.63695">
        <ele>512.04</ele>
        <time>2017-04-09T08:12:42Z</time>
      </trkpt>
      <trkpt lat="48.19676" lon="6.63681">
        <ele>512.04</ele>
        <time>2017-04-09T08:12:44Z</time>
      </trkpt>
      <trkpt lat="48.19671" lon="6.63668">
        <ele>511.08</ele>
        <time>2017-04-09T08:12:46Z</time>
      </trkpt>
      <trkpt lat="48.19666" lon="6.63655">
        <ele>510.6</ele>
        <time>2017-04-09T08:12:48Z</time>
      </trkpt>
      <trkpt lat="48.19662" lon="6.63643">
        <ele>509.64</ele>
        <time>2017-04-09T08:12:50Z</time>
      </trkpt>
      <trkpt lat="48.19655" lon="6.63632">
        <ele>509.16</ele>
        <time>2017-04-09T08:12:53Z</time>
      </trkpt>
      <trkpt lat="48.19659" lon="6.63621">
        <ele>506.75</ele>
        <time>2017-04-09T08:13:01Z</time>
      </trkpt>
      <trkpt lat="48.19668" lon="6.63608">
        <ele>504.35</ele>
        <time>2017-04-09T08:13:05Z</time>
      </trkpt>
      <trkpt lat="48.19675" lon="6.63597">
        <ele>502.43</ele>
        <time>2017-04-09T08:13:08Z</time>
      </trkpt>
      <trkpt lat="48.19682" lon="6.63583">
        <ele>499.54</ele>
        <time>2017-04-09T08:13:12Z</time>
      </trkpt>
      <trkpt lat="48.1969" lon="6.63571">
        <ele>497.14</ele>
        <time>2017-04-09T08:13:15Z</time>
      </trkpt>
      <trkpt lat="48.197" lon="6.63557">
        <ele>495.7</ele>
        <time>2017-04-09T08:13:18Z</time>
      </trkpt>
      <trkpt lat="48.19708" lon="6.63543">
        <ele>494.26</ele>
        <time>2017-04-09T08:13:21Z</time>
      </trkpt>
      <trkpt lat="48.19717" lon="6.63526">
        <ele>492.81</ele>
        <time>2017-04-09T08:13:24Z</time>
      </trkpt>
      <trkpt lat="48.19726" lon="6.63516">
        <ele>491.85</ele>
        <time>2017-04-09T08:13:26Z</time>
      </trkpt>
      <trkpt lat="48.19734" lon="6.63506">
        <ele>489.93</ele>
        <time>2017-04-09T08:13:28Z</time>
      </trkpt>
      <trkpt lat="48.19744" lon="6.63496">
        <ele>487.53</ele>
        <time>2017-04-09T08:13:30Z</time>
      </trkpt>
      <trkpt lat="48.19757" lon="6.63488">
        <ele>487.05</ele>
        <time>2017-04-09T08:13:32Z</time>
      </trkpt>
      <trkpt lat="48.19772" lon="6.63484">
        <ele>485.6</ele>
        <time>2017-04-09T08:13:34Z</time>
      </trkpt>
      <trkpt lat="48.19787" lon="6.63479">
        <ele>483.68</ele>
        <time>2017-04-09T08:13:36Z</time>
      </trkpt>
      <trkpt lat="48.19801" lon="6.63472">
        <ele>482.24</ele>
        <time>2017-04-09T08:13:38Z</time>
      </trkpt>
      <trkpt lat="48.19815" lon="6.63468">
        <ele>480.32</ele>
        <time>2017-04-09T08:13:40Z</time>
      </trkpt>
      <trkpt lat="48.19831" lon="6.63465">
        <ele>477.91</ele>
        <time>2017-04-09T08:13:42Z</time>
      </trkpt>
      <trkpt lat="48.19846" lon="6.63463">
        <ele>476.47</ele>
        <time>2017-04-09T08:13:44Z</time>
      </trkpt>
      <trkpt lat="48.19856" lon="6.63465">
        <ele>475.99</ele>
        <time>2017-04-09T08:13:45Z</time>
      </trkpt>
      <trkpt lat="48.1987" lon="6.6347">
        <ele>475.03</ele>
        <time>2017-04-09T08:13:47Z</time>
      </trkpt>
      <trkpt lat="48.19884" lon="6.63481">
        <ele>474.07</ele>
        <time>2017-04-09T08:13:49Z</time>
      </trkpt>
      <trkpt lat="48.19896" lon="6.63491">
        <ele>473.11</ele>
        <time>2017-04-09T08:13:51Z</time>
      </trkpt>
      <trkpt lat="48.19906" lon="6.63504">
        <ele>471.18</ele>
        <time>2017-04-09T08:13:53Z</time>
      </trkpt>
      <trkpt lat="48.19914" lon="6.63515">
        <ele>469.74</ele>
        <time>2017-04-09T08:13:55Z</time>
      </trkpt>
      <trkpt lat="48.19922" lon="6.63527">
        <ele>468.78</ele>
        <time>2017-04-09T08:13:57Z</time>
      </trkpt>
      <trkpt lat="48.19931" lon="6.6354">
        <ele>467.34</ele>
        <time>2017-04-09T08:13:59Z</time>
      </trkpt>
      <trkpt lat="48.19942" lon="6.63554">
        <ele>465.42</ele>
        <time>2017-04-09T08:14:01Z</time>
      </trkpt>
      <trkpt lat="48.19954" lon="6.63566">
        <ele>464.45</ele>
        <time>2017-04-09T08:14:03Z</time>
      </trkpt>
      <trkpt lat="48.19968" lon="6.63575">
        <ele>462.53</ele>
        <time>2017-04-09T08:14:05Z</time>
      </trkpt>
      <trkpt lat="48.19978" lon="6.63583">
        <ele>462.05</ele>
        <time>2017-04-09T08:14:07Z</time>
      </trkpt>
      <trkpt lat="48.1999" lon="6.63586">
        <ele>461.09</ele>
        <time>2017-04-09T08:14:09Z</time>
      </trkpt>
      <trkpt lat="48.20002" lon="6.63587">
        <ele>461.09</ele>
        <time>2017-04-09T08:14:11Z</time>
      </trkpt>
      <trkpt lat="48.20013" lon="6.63588">
        <ele>460.13</ele>
        <time>2017-04-09T08:14:13Z</time>
      </trkpt>
      <trkpt lat="48.20024" lon="6.63587">
        <ele>460.13</ele>
        <time>2017-04-09T08:14:15Z</time>
      </trkpt>
      <trkpt lat="48.20036" lon="6.63585">
        <ele>459.17</ele>
        <time>2017-04-09T08:14:17Z</time>
      </trkpt>
      <trkpt lat="48.20051" lon="6.63582">
        <ele>458.21</ele>
        <time>2017-04-09T08:14:19Z</time>
      </trkpt>
      <trkpt lat="48.20063" lon="6.63579">
        <ele>457.72</ele>
        <time>2017-04-09T08:14:21Z</time>
      </trkpt>
      <trkpt lat="48.20074" lon="6.63575">
        <ele>456.28</ele>
        <time>2017-04-09T08:14:23Z</time>
      </trkpt>
      <trkpt lat="48.20085" lon="6.63567">
        <ele>455.8</ele>
        <time>2017-04-09T08:14:25Z</time>
      </trkpt>
      <trkpt lat="48.20094" lon="6.6356">
        <ele>454.36</ele>
        <time>2017-04-09T08:14:27Z</time>
      </trkpt>
      <trkpt lat="48.20105" lon="6.63554">
        <ele>454.36</ele>
        <time>2017-04-09T08:14:29Z</time>
      </trkpt>
      <trkpt lat="48.20115" lon="6.63548">
        <ele>453.4</ele>
        <time>2017-04-09T08:14:31Z</time>
      </trkpt>
      <trkpt lat="48.20125" lon="6.63542">
        <ele>452.92</ele>
        <time>2017-04-09T08:14:33Z</time>
      </trkpt>
      <trkpt lat="48.20134" lon="6.63536">
        <ele>452.44</ele>
        <time>2017-04-09T08:14:35Z</time>
      </trkpt>
      <trkpt lat="48.20147" lon="6.63526">
        <ele>451.96</ele>
        <time>2017-04-09T08:14:38Z</time>
      </trkpt>
      <trkpt lat="48.20165" lon="6.63517">
        <ele>451.96</ele>
        <time>2017-04-09T08:14:42Z</time>
      </trkpt>
      <trkpt lat="48.20177" lon="6.63512">
        <ele>451</ele>
        <time>2017-04-09T08:14:46Z</time>
      </trkpt>
      <trkpt lat="48.2019" lon="6.63508">
        <ele>450.52</ele>
        <time>2017-04-09T08:14:49Z</time>
      </trkpt>
      <trkpt lat="48.20202" lon="6.63507">
        <ele>450.52</ele>
        <time>2017-04-09T08:14:52Z</time>
      </trkpt>
      <trkpt lat="48.20217" lon="6.63508">
        <ele>449.55</ele>
        <time>2017-04-09T08:14:55Z</time>
      </trkpt>
      <trkpt lat="48.20232" lon="6.63511">
        <ele>448.59</ele>
        <time>2017-04-09T08:14:58Z</time>
      </trkpt>
      <trkpt lat="48.20243" lon="6.63517">
        <ele>448.11</ele>
        <time>2017-04-09T08:15:00Z</time>
      </trkpt>
      <trkpt lat="48.20254" lon="6.63523">
        <ele>447.15</ele>
        <time>2017-04-09T08:15:02Z</time>
      </trkpt>
      <trkpt lat="48.20268" lon="6.6353">
        <ele>447.15</ele>
        <time>2017-04-09T08:15:05Z</time>
      </trkpt>
      <trkpt lat="48.20282" lon="6.63537">
        <ele>446.67</ele>
        <time>2017-04-09T08:15:08Z</time>
      </trkpt>
      <trkpt lat="48.20294" lon="6.63545">
        <ele>445.71</ele>
        <time>2017-04-09T08:15:11Z</time>
      </trkpt>
      <trkpt lat="48.20306" lon="6.6355">
        <ele>445.71</ele>
        <time>2017-04-09T08:15:14Z</time>
      </trkpt>
      <trkpt lat="48.20317" lon="6.63553">
        <ele>445.23</ele>
        <time>2017-04-09T08:15:17Z</time>
      </trkpt>
      <trkpt lat="48.20328" lon="6.63558">
        <ele>445.23</ele>
        <time>2017-04-09T08:15:20Z</time>
      </trkpt>
      <trkpt lat="48.20339" lon="6.63561">
        <ele>444.75</ele>
        <time>2017-04-09T08:15:23Z</time>
      </trkpt>
      <trkpt lat="48.20348" lon="6.63563">
        <ele>444.27</ele>
        <time>2017-04-09T08:15:25Z</time>
      </trkpt>
      <trkpt lat="48.20359" lon="6.63566">
        <ele>443.31</ele>
        <time>2017-04-09T08:15:27Z</time>
      </trkpt>
      <trkpt lat="48.20369" lon="6.6357">
        <ele>442.34</ele>
        <time>2017-04-09T08:15:29Z</time>
      </trkpt>
      <trkpt lat="48.20383" lon="6.63577">
        <ele>441.38</ele>
        <time>2017-04-09T08:15:32Z</time>
      </trkpt>
      <trkpt lat="48.20396" lon="6.63583">
        <ele>440.42</ele>
        <time>2017-04-09T08:15:35Z</time>
      </trkpt>
      <trkpt lat="48.20407" lon="6.63588">
        <ele>439.94</ele>
        <time>2017-04-09T08:15:37Z</time>
      </trkpt>
      <trkpt lat="48.20417" lon="6.63592">
        <ele>439.46</ele>
        <time>2017-04-09T08:15:39Z</time>
      </trkpt>
      <trkpt lat="48.20427" lon="6.63597">
        <ele>438.5</ele>
        <time>2017-04-09T08:15:41Z</time>
      </trkpt>
      <trkpt lat="48.2044" lon="6.63602">
        <ele>438.02</ele>
        <time>2017-04-09T08:15:43Z</time>
      </trkpt>
      <trkpt lat="48.20455" lon="6.63607">
        <ele>437.06</ele>
        <time>2017-04-09T08:15:45Z</time>
      </trkpt>
      <trkpt lat="48.20469" lon="6.63612">
        <ele>437.06</ele>
        <time>2017-04-09T08:15:47Z</time>
      </trkpt>
      <trkpt lat="48.20482" lon="6.63616">
        <ele>436.58</ele>
        <time>2017-04-09T08:15:49Z</time>
      </trkpt>
      <trkpt lat="48.20497" lon="6.6362">
        <ele>435.61</ele>
        <time>2017-04-09T08:15:51Z</time>
      </trkpt>
      <trkpt lat="48.2051" lon="6.63626">
        <ele>435.13</ele>
        <time>2017-04-09T08:15:53Z</time>
      </trkpt>
      <trkpt lat="48.20524" lon="6.63634">
        <ele>434.65</ele>
        <time>2017-04-09T08:15:55Z</time>
      </trkpt>
      <trkpt lat="48.20537" lon="6.63642">
        <ele>434.17</ele>
        <time>2017-04-09T08:15:57Z</time>
      </trkpt>
      <trkpt lat="48.20551" lon="6.6365">
        <ele>434.17</ele>
        <time>2017-04-09T08:15:59Z</time>
      </trkpt>
      <trkpt lat="48.20563" lon="6.6366">
        <ele>433.21</ele>
        <time>2017-04-09T08:16:01Z</time>
      </trkpt>
      <trkpt lat="48.20576" lon="6.63672">
        <ele>433.21</ele>
        <time>2017-04-09T08:16:03Z</time>
      </trkpt>
      <trkpt lat="48.20587" lon="6.63685">
        <ele>432.25</ele>
        <time>2017-04-09T08:16:05Z</time>
      </trkpt>
      <trkpt lat="48.20597" lon="6.63698">
        <ele>431.77</ele>
        <time>2017-04-09T08:16:07Z</time>
      </trkpt>
      <trkpt lat="48.20609" lon="6.63708">
        <ele>430.81</ele>
        <time>2017-04-09T08:16:09Z</time>
      </trkpt>
      <trkpt lat="48.20621" lon="6.63718">
        <ele>430.33</ele>
        <time>2017-04-09T08:16:11Z</time>
      </trkpt>
      <trkpt lat="48.20635" lon="6.63726">
        <ele>430.33</ele>
        <time>2017-04-09T08:16:13Z</time>
      </trkpt>
      <trkpt lat="48.20648" lon="6.63734">
        <ele>430.33</ele>
        <time>2017-04-09T08:16:15Z</time>
      </trkpt>
      <trkpt lat="48.20661" lon="6.63742">
        <ele>429.85</ele>
        <time>2017-04-09T08:16:17Z</time>
      </trkpt>
      <trkpt lat="48.20671" lon="6.6375">
        <ele>429.85</ele>
        <time>2017-04-09T08:16:19Z</time>
      </trkpt>
      <trkpt lat="48.20681" lon="6.63757">
        <ele>429.37</ele>
        <time>2017-04-09T08:16:21Z</time>
      </trkpt>
      <trkpt lat="48.20691" lon="6.63762">
        <ele>429.37</ele>
        <time>2017-04-09T08:16:23Z</time>
      </trkpt>
      <trkpt lat="48.20703" lon="6.63768">
        <ele>428.89</ele>
        <time>2017-04-09T08:16:25Z</time>
      </trkpt>
      <trkpt lat="48.20716" lon="6.63779">
        <ele>428.89</ele>
        <time>2017-04-09T08:16:27Z</time>
      </trkpt>
      <trkpt lat="48.20723" lon="6.63785">
        <ele>428.89</ele>
        <time>2017-04-09T08:16:29Z</time>
      </trkpt>
      <trkpt lat="48.20735" lon="6.6379">
        <ele>428.89</ele>
        <time>2017-04-09T08:16:32Z</time>
      </trkpt>
      <trkpt lat="48.20748" lon="6.63796">
        <ele>428.89</ele>
        <time>2017-04-09T08:16:35Z</time>
      </trkpt>
      <trkpt lat="48.20762" lon="6.63803">
        <ele>428.4</ele>
        <time>2017-04-09T08:16:38Z</time>
      </trkpt>
      <trkpt lat="48.20775" lon="6.63808">
        <ele>427.92</ele>
        <time>2017-04-09T08:16:41Z</time>
      </trkpt>
      <trkpt lat="48.20784" lon="6.63814">
        <ele>427.92</ele>
        <time>2017-04-09T08:16:43Z</time>
      </trkpt>
      <trkpt lat="48.20793" lon="6.63818">
        <ele>426.96</ele>
        <time>2017-04-09T08:16:45Z</time>
      </trkpt>
      <trkpt lat="48.20805" lon="6.63823">
        <ele>426</ele>
        <time>2017-04-09T08:16:47Z</time>
      </trkpt>
      <trkpt lat="48.20817" lon="6.63832">
        <ele>424.08</ele>
        <time>2017-04-09T08:16:49Z</time>
      </trkpt>
      <trkpt lat="48.2083" lon="6.63842">
        <ele>423.6</ele>
        <time>2017-04-09T08:16:51Z</time>
      </trkpt>
      <trkpt lat="48.20842" lon="6.63853">
        <ele>423.12</ele>
        <time>2017-04-09T08:16:53Z</time>
      </trkpt>
      <trkpt lat="48.20856" lon="6.63867">
        <ele>422.64</ele>
        <time>2017-04-09T08:16:55Z</time>
      </trkpt>
      <trkpt lat="48.20869" lon="6.63882">
        <ele>421.68</ele>
        <time>2017-04-09T08:16:57Z</time>
      </trkpt>
      <trkpt lat="48.20883" lon="6.63898">
        <ele>420.71</ele>
        <time>2017-04-09T08:16:59Z</time>
      </trkpt>
      <trkpt lat="48.20897" lon="6.63913">
        <ele>419.27</ele>
        <time>2017-04-09T08:17:01Z</time>
      </trkpt>
      <trkpt lat="48.2091" lon="6.63928">
        <ele>418.31</ele>
        <time>2017-04-09T08:17:03Z</time>
      </trkpt>
      <trkpt lat="48.20923" lon="6.63943">
        <ele>417.83</ele>
        <time>2017-04-09T08:17:05Z</time>
      </trkpt>
      <trkpt lat="48.20936" lon="6.63959">
        <ele>417.35</ele>
        <time>2017-04-09T08:17:07Z</time>
      </trkpt>
      <trkpt lat="48.20948" lon="6.63976">
        <ele>416.87</ele>
        <time>2017-04-09T08:17:09Z</time>
      </trkpt>
      <trkpt lat="48.20958" lon="6.63993">
        <ele>416.87</ele>
        <time>2017-04-09T08:17:11Z</time>
      </trkpt>
      <trkpt lat="48.20968" lon="6.64008">
        <ele>416.39</ele>
        <time>2017-04-09T08:17:13Z</time>
      </trkpt>
      <trkpt lat="48.2098" lon="6.64022">
        <ele>415.91</ele>
        <time>2017-04-09T08:17:15Z</time>
      </trkpt>
      <trkpt lat="48.20991" lon="6.64036">
        <ele>415.43</ele>
        <time>2017-04-09T08:17:17Z</time>
      </trkpt>
      <trkpt lat="48.21001" lon="6.64048">
        <ele>414.95</ele>
        <time>2017-04-09T08:17:19Z</time>
      </trkpt>
      <trkpt lat="48.21011" lon="6.64061">
        <ele>414.47</ele>
        <time>2017-04-09T08:17:21Z</time>
      </trkpt>
      <trkpt lat="48.21022" lon="6.64074">
        <ele>414.47</ele>
        <time>2017-04-09T08:17:23Z</time>
      </trkpt>
      <trkpt lat="48.21031" lon="6.64085">
        <ele>414.47</ele>
        <time>2017-04-09T08:17:25Z</time>
      </trkpt>
      <trkpt lat="48.21039" lon="6.64095">
        <ele>414.95</ele>
        <time>2017-04-09T08:17:27Z</time>
      </trkpt>
      <trkpt lat="48.21047" lon="6.64105">
        <ele>413.98</ele>
        <time>2017-04-09T08:17:29Z</time>
      </trkpt>
      <trkpt lat="48.21055" lon="6.64113">
        <ele>413.5</ele>
        <time>2017-04-09T08:17:31Z</time>
      </trkpt>
      <trkpt lat="48.21066" lon="6.64122">
        <ele>413.5</ele>
        <time>2017-04-09T08:17:34Z</time>
      </trkpt>
      <trkpt lat="48.21074" lon="6.64127">
        <ele>413.5</ele>
        <time>2017-04-09T08:17:43Z</time>
      </trkpt>
      <trkpt lat="48.21081" lon="6.64138">
        <ele>413.5</ele>
        <time>2017-04-09T08:17:51Z</time>
      </trkpt>
      <trkpt lat="48.2109" lon="6.64153">
        <ele>413.02</ele>
        <time>2017-04-09T08:17:55Z</time>
      </trkpt>
      <trkpt lat="48.211" lon="6.64166">
        <ele>412.06</ele>
        <time>2017-04-09T08:17:58Z</time>
      </trkpt>
      <trkpt lat="48.21108" lon="6.64175">
        <ele>412.06</ele>
        <time>2017-04-09T08:18:00Z</time>
      </trkpt>
      <trkpt lat="48.21116" lon="6.64184">
        <ele>411.58</ele>
        <time>2017-04-09T08:18:02Z</time>
      </trkpt>
      <trkpt lat="48.21124" lon="6.64192">
        <ele>411.1</ele>
        <time>2017-04-09T08:18:04Z</time>
      </trkpt>
      <trkpt lat="48.21135" lon="6.642">
        <ele>410.14</ele>
        <time>2017-04-09T08:18:06Z</time>
      </trkpt>
      <trkpt lat="48.21146" lon="6.64207">
        <ele>409.18</ele>
        <time>2017-04-09T08:18:08Z</time>
      </trkpt>
      <trkpt lat="48.21158" lon="6.64213">
        <ele>408.7</ele>
        <time>2017-04-09T08:18:10Z</time>
      </trkpt>
      <trkpt lat="48.21169" lon="6.64219">
        <ele>408.7</ele>
        <time>2017-04-09T08:18:12Z</time>
      </trkpt>
      <trkpt lat="48.2118" lon="6.64224">
        <ele>407.74</ele>
        <time>2017-04-09T08:18:14Z</time>
      </trkpt>
      <trkpt lat="48.21193" lon="6.64229">
        <ele>407.74</ele>
        <time>2017-04-09T08:18:16Z</time>
      </trkpt>
      <trkpt lat="48.21205" lon="6.64234">
        <ele>407.26</ele>
        <time>2017-04-09T08:18:18Z</time>
      </trkpt>
      <trkpt lat="48.21215" lon="6.64242">
        <ele>406.77</ele>
        <time>2017-04-09T08:18:20Z</time>
      </trkpt>
      <trkpt lat="48.21225" lon="6.64249">
        <ele>406.29</ele>
        <time>2017-04-09T08:18:22Z</time>
      </trkpt>
      <trkpt lat="48.21237" lon="6.64258">
        <ele>406.29</ele>
        <time>2017-04-09T08:18:24Z</time>
      </trkpt>
      <trkpt lat="48.21248" lon="6.64269">
        <ele>405.33</ele>
        <time>2017-04-09T08:18:26Z</time>
      </trkpt>
      <trkpt lat="48.21258" lon="6.6428">
        <ele>405.33</ele>
        <time>2017-04-09T08:18:28Z</time>
      </trkpt>
      <trkpt lat="48.21268" lon="6.6429">
        <ele>404.85</ele>
        <time>2017-04-09T08:18:30Z</time>
      </trkpt>
      <trkpt lat="48.21278" lon="6.643">
        <ele>404.85</ele>
        <time>2017-04-09T08:18:32Z</time>
      </trkpt>
      <trkpt lat="48.21289" lon="6.6431">
        <ele>403.89</ele>
        <time>2017-04-09T08:18:34Z</time>
      </trkpt>
      <trkpt lat="48.21299" lon="6.64318">
        <ele>403.41</ele>
        <time>2017-04-09T08:18:36Z</time>
      </trkpt>
      <trkpt lat="48.2131" lon="6.64326">
        <ele>403.41</ele>
        <time>2017-04-09T08:18:38Z</time>
      </trkpt>
      <trkpt lat="48.21318" lon="6.64332">
        <ele>402.45</ele>
        <time>2017-04-09T08:18:40Z</time>
      </trkpt>
      <trkpt lat="48.21328" lon="6.64341">
        <ele>402.45</ele>
        <time>2017-04-09T08:18:42Z</time>
      </trkpt>
      <trkpt lat="48.2134" lon="6.64351">
        <ele>401.97</ele>
        <time>2017-04-09T08:18:44Z</time>
      </trkpt>
      <trkpt lat="48.21351" lon="6.64363">
        <ele>401.49</ele>
        <time>2017-04-09T08:18:46Z</time>
      </trkpt>
      <trkpt lat="48.2136" lon="6.64379">
        <ele>401.49</ele>
        <time>2017-04-09T08:18:48Z</time>
      </trkpt>
      <trkpt lat="48.21369" lon="6.64394">
        <ele>401.01</ele>
        <time>2017-04-09T08:18:50Z</time>
      </trkpt>
      <trkpt lat="48.21378" lon="6.64405">
        <ele>401.49</ele>
        <time>2017-04-09T08:18:52Z</time>
      </trkpt>
      <trkpt lat="48.21388" lon="6.64414">
        <ele>401.49</ele>
        <time>2017-04-09T08:18:54Z</time>
      </trkpt>
      <trkpt lat="48.21398" lon="6.64423">
        <ele>401.49</ele>
        <time>2017-04-09T08:18:56Z</time>
      </trkpt>
      <trkpt lat="48.21409" lon="6.64433">
        <ele>401.97</ele>
        <time>2017-04-09T08:18:58Z</time>
      </trkpt>
      <trkpt lat="48.21418" lon="6.64445">
        <ele>402.45</ele>
        <time>2017-04-09T08:19:00Z</time>
      </trkpt>
      <trkpt lat="48.21428" lon="6.64456">
        <ele>401.97</ele>
        <time>2017-04-09T08:19:02Z</time>
      </trkpt>
      <trkpt lat="48.21438" lon="6.64468">
        <ele>401.01</ele>
        <time>2017-04-09T08:19:04Z</time>
      </trkpt>
      <trkpt lat="48.21449" lon="6.64479">
        <ele>401.49</ele>
        <time>2017-04-09T08:19:06Z</time>
      </trkpt>
      <trkpt lat="48.21459" lon="6.64492">
        <ele>401.01</ele>
        <time>2017-04-09T08:19:08Z</time>
      </trkpt>
      <trkpt lat="48.21469" lon="6.64504">
        <ele>401.01</ele>
        <time>2017-04-09T08:19:10Z</time>
      </trkpt>
      <trkpt lat="48.2148" lon="6.64516">
        <ele>400.53</ele>
        <time>2017-04-09T08:19:12Z</time>
      </trkpt>
      <trkpt lat="48.2149" lon="6.64529">
        <ele>400.53</ele>
        <time>2017-04-09T08:19:14Z</time>
      </trkpt>
      <trkpt lat="48.21499" lon="6.64542">
        <ele>400.05</ele>
        <time>2017-04-09T08:19:16Z</time>
      </trkpt>
      <trkpt lat="48.21509" lon="6.64555">
        <ele>400.53</ele>
        <time>2017-04-09T08:19:18Z</time>
      </trkpt>
      <trkpt lat="48.21518" lon="6.64569">
        <ele>399.57</ele>
        <time>2017-04-09T08:19:20Z</time>
      </trkpt>
      <trkpt lat="48.21526" lon="6.64585">
        <ele>399.57</ele>
        <time>2017-04-09T08:19:22Z</time>
      </trkpt>
      <trkpt lat="48.21534" lon="6.64599">
        <ele>399.08</ele>
        <time>2017-04-09T08:19:24Z</time>
      </trkpt>
      <trkpt lat="48.21541" lon="6.64614">
        <ele>399.08</ele>
        <time>2017-04-09T08:19:26Z</time>
      </trkpt>
      <trkpt lat="48.21548" lon="6.64629">
        <ele>399.08</ele>
        <time>2017-04-09T08:19:28Z</time>
      </trkpt>
      <trkpt lat="48.21555" lon="6.64643">
        <ele>398.6</ele>
        <time>2017-04-09T08:19:30Z</time>
      </trkpt>
      <trkpt lat="48.21562" lon="6.64658">
        <ele>399.08</ele>
        <time>2017-04-09T08:19:32Z</time>
      </trkpt>
      <trkpt lat="48.2157" lon="6.64673">
        <ele>398.6</ele>
        <time>2017-04-09T08:19:34Z</time>
      </trkpt>
      <trkpt lat="48.21577" lon="6.64688">
        <ele>398.6</ele>
        <time>2017-04-09T08:19:36Z</time>
      </trkpt>
      <trkpt lat="48.21584" lon="6.64702">
        <ele>398.6</ele>
        <time>2017-04-09T08:19:38Z</time>
      </trkpt>
      <trkpt lat="48.21592" lon="6.64716">
        <ele>400.53</ele>
        <time>2017-04-09T08:19:40Z</time>
      </trkpt>
      <trkpt lat="48.21599" lon="6.64728">
        <ele>398.6</ele>
        <time>2017-04-09T08:19:42Z</time>
      </trkpt>
      <trkpt lat="48.21607" lon="6.64739">
        <ele>398.12</ele>
        <time>2017-04-09T08:19:44Z</time>
      </trkpt>
      <trkpt lat="48.21615" lon="6.64742">
        <ele>397.64</ele>
        <time>2017-04-09T08:19:46Z</time>
      </trkpt>
      <trkpt lat="48.21625" lon="6.64739">
        <ele>397.16</ele>
        <time>2017-04-09T08:19:48Z</time>
      </trkpt>
      <trkpt lat="48.21633" lon="6.6473">
        <ele>396.68</ele>
        <time>2017-04-09T08:19:50Z</time>
      </trkpt>
      <trkpt lat="48.21642" lon="6.64721">
        <ele>395.72</ele>
        <time>2017-04-09T08:19:52Z</time>
      </trkpt>
      <trkpt lat="48.21651" lon="6.64712">
        <ele>395.72</ele>
        <time>2017-04-09T08:19:55Z</time>
      </trkpt>
      <trkpt lat="48.21654" lon="6.64727">
        <ele>395.24</ele>
        <time>2017-04-09T08:19:59Z</time>
      </trkpt>
      <trkpt lat="48.21654" lon="6.64743">
        <ele>395.72</ele>
        <time>2017-04-09T08:20:02Z</time>
      </trkpt>
      <trkpt lat="48.21653" lon="6.6476">
        <ele>396.2</ele>
        <time>2017-04-09T08:20:05Z</time>
      </trkpt>
      <trkpt lat="48.21653" lon="6.64778">
        <ele>395.72</ele>
        <time>2017-04-09T08:20:08Z</time>
      </trkpt>
      <trkpt lat="48.21653" lon="6.64797">
        <ele>396.2</ele>
        <time>2017-04-09T08:20:11Z</time>
      </trkpt>
      <trkpt lat="48.21653" lon="6.64815">
        <ele>396.68</ele>
        <time>2017-04-09T08:20:14Z</time>
      </trkpt>
      <trkpt lat="48.21655" lon="6.64833">
        <ele>396.68</ele>
        <time>2017-04-09T08:20:17Z</time>
      </trkpt>
      <trkpt lat="48.21656" lon="6.64849">
        <ele>397.16</ele>
        <time>2017-04-09T08:20:20Z</time>
      </trkpt>
      <trkpt lat="48.21657" lon="6.64866">
        <ele>396.68</ele>
        <time>2017-04-09T08:20:23Z</time>
      </trkpt>
      <trkpt lat="48.2166" lon="6.64882">
        <ele>397.16</ele>
        <time>2017-04-09T08:20:26Z</time>
      </trkpt>
      <trkpt lat="48.21664" lon="6.64899">
        <ele>397.16</ele>
        <time>2017-04-09T08:20:29Z</time>
      </trkpt>
      <trkpt lat="48.2167" lon="6.64915">
        <ele>397.64</ele>
        <time>2017-04-09T08:20:32Z</time>
      </trkpt>
      <trkpt lat="48.21676" lon="6.6493">
        <ele>398.12</ele>
        <time>2017-04-09T08:20:35Z</time>
      </trkpt>
      <trkpt lat="48.21683" lon="6.64944">
        <ele>398.6</ele>
        <time>2017-04-09T08:20:38Z</time>
      </trkpt>
      <trkpt lat="48.21689" lon="6.6496">
        <ele>399.08</ele>
        <time>2017-04-09T08:20:42Z</time>
      </trkpt>
      <trkpt lat="48.21693" lon="6.64974">
        <ele>400.05</ele>
        <time>2017-04-09T08:20:46Z</time>
      </trkpt>
      <trkpt lat="48.21696" lon="6.6499">
        <ele>401.01</ele>
        <time>2017-04-09T08:20:51Z</time>
      </trkpt>
      <trkpt lat="48.21698" lon="6.65009">
        <ele>402.93</ele>
        <time>2017-04-09T08:20:58Z</time>
      </trkpt>
      <trkpt lat="48.21702" lon="6.65025">
        <ele>403.41</ele>
        <time>2017-04-09T08:21:04Z</time>
      </trkpt>
      <trkpt lat="48.21706" lon="6.6504">
        <ele>405.33</ele>
        <time>2017-04-09T08:21:11Z</time>
      </trkpt>
      <trkpt lat="48.21707" lon="6.65058">
        <ele>407.26</ele>
        <time>2017-04-09T08:21:19Z</time>
      </trkpt>
      <trkpt lat="48.21705" lon="6.65077">
        <ele>409.18</ele>
        <time>2017-04-09T08:21:27Z</time>
      </trkpt>
      <trkpt lat="48.21706" lon="6.65094">
        <ele>411.1</ele>
        <time>2017-04-09T08:21:34Z</time>
      </trkpt>
      <trkpt lat="48.21706" lon="6.65109">
        <ele>413.02</ele>
        <time>2017-04-09T08:21:41Z</time>
      </trkpt>
      <trkpt lat="48.21705" lon="6.65126">
        <ele>414.95</ele>
        <time>2017-04-09T08:21:48Z</time>
      </trkpt>
      <trkpt lat="48.21704" lon="6.65144">
        <ele>415.91</ele>
        <time>2017-04-09T08:21:56Z</time>
      </trkpt>
      <trkpt lat="48.21695" lon="6.6516">
        <ele>416.87</ele>
        <time>2017-04-09T08:22:02Z</time>
      </trkpt>
      <trkpt lat="48.21686" lon="6.65175">
        <ele>417.35</ele>
        <time>2017-04-09T08:22:08Z</time>
      </trkpt>
      <trkpt lat="48.21677" lon="6.65188">
        <ele>417.83</ele>
        <time>2017-04-09T08:22:13Z</time>
      </trkpt>
      <trkpt lat="48.2167" lon="6.652">
        <ele>418.31</ele>
        <time>2017-04-09T08:22:17Z</time>
      </trkpt>
      <trkpt lat="48.21662" lon="6.65211">
        <ele>417.83</ele>
        <time>2017-04-09T08:22:21Z</time>
      </trkpt>
      <trkpt lat="48.21655" lon="6.65225">
        <ele>418.31</ele>
        <time>2017-04-09T08:22:25Z</time>
      </trkpt>
      <trkpt lat="48.21648" lon="6.65236">
        <ele>418.31</ele>
        <time>2017-04-09T08:22:28Z</time>
      </trkpt>
      <trkpt lat="48.21641" lon="6.65247">
        <ele>418.79</ele>
        <time>2017-04-09T08:22:31Z</time>
      </trkpt>
      <trkpt lat="48.21634" lon="6.6526">
        <ele>419.27</ele>
        <time>2017-04-09T08:22:35Z</time>
      </trkpt>
      <trkpt lat="48.21626" lon="6.65273">
        <ele>419.27</ele>
        <time>2017-04-09T08:22:39Z</time>
      </trkpt>
      <trkpt lat="48.21619" lon="6.65286">
        <ele>419.27</ele>
        <time>2017-04-09T08:22:43Z</time>
      </trkpt>
      <trkpt lat="48.21611" lon="6.65298">
        <ele>419.75</ele>
        <time>2017-04-09T08:22:47Z</time>
      </trkpt>
      <trkpt lat="48.21605" lon="6.65309">
        <ele>419.75</ele>
        <time>2017-04-09T08:22:50Z</time>
      </trkpt>
      <trkpt lat="48.21596" lon="6.6532">
        <ele>420.23</ele>
        <time>2017-04-09T08:22:54Z</time>
      </trkpt>
      <trkpt lat="48.21589" lon="6.65333">
        <ele>420.71</ele>
        <time>2017-04-09T08:22:58Z</time>
      </trkpt>
      <trkpt lat="48.21582" lon="6.65345">
        <ele>421.19</ele>
        <time>2017-04-09T08:23:02Z</time>
      </trkpt>
      <trkpt lat="48.21575" lon="6.65359">
        <ele>421.68</ele>
        <time>2017-04-09T08:23:06Z</time>
      </trkpt>
      <trkpt lat="48.21569" lon="6.65372">
        <ele>422.16</ele>
        <time>2017-04-09T08:23:10Z</time>
      </trkpt>
      <trkpt lat="48.21562" lon="6.65383">
        <ele>423.12</ele>
        <time>2017-04-09T08:23:14Z</time>
      </trkpt>
      <trkpt lat="48.21553" lon="6.65394">
        <ele>423.6</ele>
        <time>2017-04-09T08:23:18Z</time>
      </trkpt>
      <trkpt lat="48.21546" lon="6.65406">
        <ele>424.08</ele>
        <time>2017-04-09T08:23:22Z</time>
      </trkpt>
      <trkpt lat="48.21539" lon="6.65416">
        <ele>425.04</ele>
        <time>2017-04-09T08:23:26Z</time>
      </trkpt>
      <trkpt lat="48.21532" lon="6.65426">
        <ele>425.52</ele>
        <time>2017-04-09T08:23:30Z</time>
      </trkpt>
      <trkpt lat="48.21523" lon="6.6544">
        <ele>426.48</ele>
        <time>2017-04-09T08:23:35Z</time>
      </trkpt>
      <trkpt lat="48.21516" lon="6.65453">
        <ele>427.44</ele>
        <time>2017-04-09T08:23:40Z</time>
      </trkpt>
      <trkpt lat="48.21509" lon="6.65465">
        <ele>428.4</ele>
        <time>2017-04-09T08:23:44Z</time>
      </trkpt>
      <trkpt lat="48.21504" lon="6.65478">
        <ele>429.37</ele>
        <time>2017-04-09T08:23:49Z</time>
      </trkpt>
      <trkpt lat="48.21497" lon="6.65491">
        <ele>430.81</ele>
        <time>2017-04-09T08:23:54Z</time>
      </trkpt>
      <trkpt lat="48.21491" lon="6.65504">
        <ele>431.77</ele>
        <time>2017-04-09T08:24:00Z</time>
      </trkpt>
      <trkpt lat="48.21485" lon="6.65519">
        <ele>433.21</ele>
        <time>2017-04-09T08:24:07Z</time>
      </trkpt>
      <trkpt lat="48.21478" lon="6.65536">
        <ele>434.65</ele>
        <time>2017-04-09T08:24:14Z</time>
      </trkpt>
      <trkpt lat="48.21473" lon="6.65551">
        <ele>436.1</ele>
        <time>2017-04-09T08:24:20Z</time>
      </trkpt>
      <trkpt lat="48.21467" lon="6.65565">
        <ele>436.58</ele>
        <time>2017-04-09T08:24:26Z</time>
      </trkpt>
      <trkpt lat="48.21461" lon="6.65579">
        <ele>438.5</ele>
        <time>2017-04-09T08:24:32Z</time>
      </trkpt>
      <trkpt lat="48.21454" lon="6.65593">
        <ele>439.94</ele>
        <time>2017-04-09T08:24:38Z</time>
      </trkpt>
      <trkpt lat="48.21448" lon="6.65606">
        <ele>440.42</ele>
        <time>2017-04-09T08:24:43Z</time>
      </trkpt>
      <trkpt lat="48.21441" lon="6.65617">
        <ele>440.9</ele>
        <time>2017-04-09T08:24:48Z</time>
      </trkpt>
      <trkpt lat="48.21433" lon="6.6563">
        <ele>442.34</ele>
        <time>2017-04-09T08:24:54Z</time>
      </trkpt>
      <trkpt lat="48.21426" lon="6.65644">
        <ele>442.34</ele>
        <time>2017-04-09T08:24:59Z</time>
      </trkpt>
      <trkpt lat="48.21419" lon="6.65654">
        <ele>442.34</ele>
        <time>2017-04-09T08:25:03Z</time>
      </trkpt>
      <trkpt lat="48.21407" lon="6.6566">
        <ele>440.9</ele>
        <time>2017-04-09T08:25:08Z</time>
      </trkpt>
      <trkpt lat="48.21397" lon="6.65664">
        <ele>441.38</ele>
        <time>2017-04-09T08:25:12Z</time>
      </trkpt>
      <trkpt lat="48.21386" lon="6.65668">
        <ele>441.38</ele>
        <time>2017-04-09T08:25:15Z</time>
      </trkpt>
      <trkpt lat="48.21373" lon="6.65671">
        <ele>441.38</ele>
        <time>2017-04-09T08:25:18Z</time>
      </trkpt>
      <trkpt lat="48.21359" lon="6.65675">
        <ele>441.38</ele>
        <time>2017-04-09T08:25:22Z</time>
      </trkpt>
      <trkpt lat="48.21347" lon="6.6568">
        <ele>441.38</ele>
        <time>2017-04-09T08:25:26Z</time>
      </trkpt>
      <trkpt lat="48.21335" lon="6.65683">
        <ele>441.38</ele>
        <time>2017-04-09T08:25:30Z</time>
      </trkpt>
      <trkpt lat="48.21323" lon="6.6569">
        <ele>441.38</ele>
        <time>2017-04-09T08:25:34Z</time>
      </trkpt>
      <trkpt lat="48.21311" lon="6.65696">
        <ele>440.9</ele>
        <time>2017-04-09T08:25:38Z</time>
      </trkpt>
      <trkpt lat="48.21298" lon="6.65705">
        <ele>441.86</ele>
        <time>2017-04-09T08:25:42Z</time>
      </trkpt>
      <trkpt lat="48.21288" lon="6.6571">
        <ele>441.38</ele>
        <time>2017-04-09T08:25:46Z</time>
      </trkpt>
      <trkpt lat="48.21277" lon="6.65715">
        <ele>441.86</ele>
        <time>2017-04-09T08:25:51Z</time>
      </trkpt>
      <trkpt lat="48.21266" lon="6.6572">
        <ele>441.86</ele>
        <time>2017-04-09T08:25:55Z</time>
      </trkpt>
      <trkpt lat="48.21251" lon="6.65727">
        <ele>441.86</ele>
        <time>2017-04-09T08:25:58Z</time>
      </trkpt>
      <trkpt lat="48.21236" lon="6.65734">
        <ele>441.86</ele>
        <time>2017-04-09T08:26:02Z</time>
      </trkpt>
      <trkpt lat="48.21224" lon="6.65741">
        <ele>442.34</ele>
        <time>2017-04-09T08:26:05Z</time>
      </trkpt>
      <trkpt lat="48.21213" lon="6.65753">
        <ele>443.31</ele>
        <time>2017-04-09T08:26:10Z</time>
      </trkpt>
      <trkpt lat="48.21201" lon="6.65771">
        <ele>443.79</ele>
        <time>2017-04-09T08:26:14Z</time>
      </trkpt>
      <trkpt lat="48.21191" lon="6.65787">
        <ele>444.27</ele>
        <time>2017-04-09T08:26:18Z</time>
      </trkpt>
      <trkpt lat="48.21182" lon="6.65802">
        <ele>444.27</ele>
        <time>2017-04-09T08:26:22Z</time>
      </trkpt>
      <trkpt lat="48.21175" lon="6.65815">
        <ele>443.79</ele>
        <time>2017-04-09T08:26:25Z</time>
      </trkpt>
      <trkpt lat="48.21169" lon="6.6583">
        <ele>443.31</ele>
        <time>2017-04-09T08:26:29Z</time>
      </trkpt>
      <trkpt lat="48.21163" lon="6.65848">
        <ele>442.82</ele>
        <time>2017-04-09T08:26:33Z</time>
      </trkpt>
      <trkpt lat="48.21162" lon="6.65865">
        <ele>442.82</ele>
        <time>2017-04-09T08:26:36Z</time>
      </trkpt>
      <trkpt lat="48.21164" lon="6.65883">
        <ele>443.31</ele>
        <time>2017-04-09T08:26:39Z</time>
      </trkpt>
      <trkpt lat="48.21165" lon="6.65899">
        <ele>443.31</ele>
        <time>2017-04-09T08:26:42Z</time>
      </trkpt>
      <trkpt lat="48.21165" lon="6.6592">
        <ele>442.34</ele>
        <time>2017-04-09T08:26:45Z</time>
      </trkpt>
      <trkpt lat="48.21164" lon="6.65937">
        <ele>441.38</ele>
        <time>2017-04-09T08:26:47Z</time>
      </trkpt>
      <trkpt lat="48.21163" lon="6.65955">
        <ele>440.9</ele>
        <time>2017-04-09T08:26:49Z</time>
      </trkpt>
      <trkpt lat="48.21161" lon="6.65972">
        <ele>440.9</ele>
        <time>2017-04-09T08:26:51Z</time>
      </trkpt>
      <trkpt lat="48.21157" lon="6.6599">
        <ele>441.86</ele>
        <time>2017-04-09T08:26:54Z</time>
      </trkpt>
      <trkpt lat="48.21156" lon="6.66009">
        <ele>442.34</ele>
        <time>2017-04-09T08:26:57Z</time>
      </trkpt>
      <trkpt lat="48.21156" lon="6.66028">
        <ele>442.82</ele>
        <time>2017-04-09T08:27:00Z</time>
      </trkpt>
      <trkpt lat="48.21152" lon="6.66043">
        <ele>443.79</ele>
        <time>2017-04-09T08:27:03Z</time>
      </trkpt>
      <trkpt lat="48.21148" lon="6.66061">
        <ele>444.75</ele>
        <time>2017-04-09T08:27:07Z</time>
      </trkpt>
      <trkpt lat="48.21142" lon="6.66077">
        <ele>446.19</ele>
        <time>2017-04-09T08:27:10Z</time>
      </trkpt>
      <trkpt lat="48.21136" lon="6.66093">
        <ele>446.19</ele>
        <time>2017-04-09T08:27:13Z</time>
      </trkpt>
      <trkpt lat="48.2113" lon="6.6611">
        <ele>447.63</ele>
        <time>2017-04-09T08:27:16Z</time>
      </trkpt>
      <trkpt lat="48.21123" lon="6.66126">
        <ele>448.11</ele>
        <time>2017-04-09T08:27:19Z</time>
      </trkpt>
      <trkpt lat="48.21116" lon="6.66142">
        <ele>448.59</ele>
        <time>2017-04-09T08:27:22Z</time>
      </trkpt>
      <trkpt lat="48.21112" lon="6.66158">
        <ele>449.55</ele>
        <time>2017-04-09T08:27:26Z</time>
      </trkpt>
      <trkpt lat="48.21106" lon="6.66172">
        <ele>450.52</ele>
        <time>2017-04-09T08:27:31Z</time>
      </trkpt>
      <trkpt lat="48.21099" lon="6.66184">
        <ele>450.52</ele>
        <time>2017-04-09T08:27:35Z</time>
      </trkpt>
      <trkpt lat="48.21094" lon="6.66199">
        <ele>451</ele>
        <time>2017-04-09T08:27:40Z</time>
      </trkpt>
      <trkpt lat="48.2109" lon="6.66214">
        <ele>451.48</ele>
        <time>2017-04-09T08:27:44Z</time>
      </trkpt>
      <trkpt lat="48.21089" lon="6.6623">
        <ele>452.44</ele>
        <time>2017-04-09T08:27:49Z</time>
      </trkpt>
      <trkpt lat="48.21084" lon="6.66245">
        <ele>453.4</ele>
        <time>2017-04-09T08:27:53Z</time>
      </trkpt>
      <trkpt lat="48.21076" lon="6.6626">
        <ele>453.88</ele>
        <time>2017-04-09T08:27:57Z</time>
      </trkpt>
      <trkpt lat="48.21069" lon="6.66277">
        <ele>454.84</ele>
        <time>2017-04-09T08:28:01Z</time>
      </trkpt>
      <trkpt lat="48.21065" lon="6.66294">
        <ele>455.32</ele>
        <time>2017-04-09T08:28:05Z</time>
      </trkpt>
      <trkpt lat="48.21065" lon="6.66311">
        <ele>456.28</ele>
        <time>2017-04-09T08:28:10Z</time>
      </trkpt>
      <trkpt lat="48.21068" lon="6.66328">
        <ele>456.76</ele>
        <time>2017-04-09T08:28:14Z</time>
      </trkpt>
      <trkpt lat="48.21072" lon="6.66342">
        <ele>457.72</ele>
        <time>2017-04-09T08:28:18Z</time>
      </trkpt>
      <trkpt lat="48.21081" lon="6.6635">
        <ele>457.72</ele>
        <time>2017-04-09T08:28:22Z</time>
      </trkpt>
      <trkpt lat="48.21092" lon="6.66356">
        <ele>459.17</ele>
        <time>2017-04-09T08:28:26Z</time>
      </trkpt>
      <trkpt lat="48.21103" lon="6.6636">
        <ele>459.65</ele>
        <time>2017-04-09T08:28:30Z</time>
      </trkpt>
      <trkpt lat="48.21113" lon="6.66366">
        <ele>460.13</ele>
        <time>2017-04-09T08:28:34Z</time>
      </trkpt>
      <trkpt lat="48.21124" lon="6.66379">
        <ele>460.61</ele>
        <time>2017-04-09T08:28:38Z</time>
      </trkpt>
      <trkpt lat="48.21129" lon="6.66391">
        <ele>461.09</ele>
        <time>2017-04-09T08:28:42Z</time>
      </trkpt>
      <trkpt lat="48.21133" lon="6.66407">
        <ele>461.57</ele>
        <time>2017-04-09T08:28:47Z</time>
      </trkpt>
      <trkpt lat="48.21138" lon="6.66423">
        <ele>462.05</ele>
        <time>2017-04-09T08:28:53Z</time>
      </trkpt>
      <trkpt lat="48.21142" lon="6.66439">
        <ele>462.53</ele>
        <time>2017-04-09T08:28:58Z</time>
      </trkpt>
      <trkpt lat="48.21144" lon="6.66453">
        <ele>463.49</ele>
        <time>2017-04-09T08:29:04Z</time>
      </trkpt>
      <trkpt lat="48.21148" lon="6.6647">
        <ele>463.97</ele>
        <time>2017-04-09T08:29:10Z</time>
      </trkpt>
      <trkpt lat="48.21152" lon="6.66489">
        <ele>464.45</ele>
        <time>2017-04-09T08:29:16Z</time>
      </trkpt>
      <trkpt lat="48.21153" lon="6.66509">
        <ele>464.93</ele>
        <time>2017-04-09T08:29:22Z</time>
      </trkpt>
      <trkpt lat="48.21151" lon="6.66525">
        <ele>466.38</ele>
        <time>2017-04-09T08:29:27Z</time>
      </trkpt>
      <trkpt lat="48.21146" lon="6.66539">
        <ele>466.38</ele>
        <time>2017-04-09T08:29:32Z</time>
      </trkpt>
      <trkpt lat="48.21138" lon="6.66552">
        <ele>467.82</ele>
        <time>2017-04-09T08:29:37Z</time>
      </trkpt>
      <trkpt lat="48.2113" lon="6.66561">
        <ele>467.82</ele>
        <time>2017-04-09T08:29:41Z</time>
      </trkpt>
      <trkpt lat="48.21122" lon="6.66573">
        <ele>468.78</ele>
        <time>2017-04-09T08:29:46Z</time>
      </trkpt>
      <trkpt lat="48.21116" lon="6.66584">
        <ele>468.78</ele>
        <time>2017-04-09T08:29:50Z</time>
      </trkpt>
      <trkpt lat="48.2111" lon="6.66598">
        <ele>469.74</ele>
        <time>2017-04-09T08:29:54Z</time>
      </trkpt>
      <trkpt lat="48.21107" lon="6.66612">
        <ele>470.22</ele>
        <time>2017-04-09T08:29:58Z</time>
      </trkpt>
      <trkpt lat="48.21103" lon="6.66629">
        <ele>470.22</ele>
        <time>2017-04-09T08:30:03Z</time>
      </trkpt>
      <trkpt lat="48.211" lon="6.66644">
        <ele>471.18</ele>
        <time>2017-04-09T08:30:07Z</time>
      </trkpt>
      <trkpt lat="48.21096" lon="6.66658">
        <ele>471.66</ele>
        <time>2017-04-09T08:30:11Z</time>
      </trkpt>
      <trkpt lat="48.21096" lon="6.66672">
        <ele>472.14</ele>
        <time>2017-04-09T08:30:15Z</time>
      </trkpt>
      <trkpt lat="48.21099" lon="6.66686">
        <ele>473.11</ele>
        <time>2017-04-09T08:30:19Z</time>
      </trkpt>
      <trkpt lat="48.21105" lon="6.66697">
        <ele>472.63</ele>
        <time>2017-04-09T08:30:23Z</time>
      </trkpt>
      <trkpt lat="48.21113" lon="6.66707">
        <ele>473.59</ele>
        <time>2017-04-09T08:30:27Z</time>
      </trkpt>
      <trkpt lat="48.21122" lon="6.66713">
        <ele>474.07</ele>
        <time>2017-04-09T08:30:31Z</time>
      </trkpt>
      <trkpt lat="48.21132" lon="6.66717">
        <ele>474.55</ele>
        <time>2017-04-09T08:30:35Z</time>
      </trkpt>
      <trkpt lat="48.21144" lon="6.6672">
        <ele>475.03</ele>
        <time>2017-04-09T08:30:39Z</time>
      </trkpt>
      <trkpt lat="48.21154" lon="6.66722">
        <ele>475.03</ele>
        <time>2017-04-09T08:30:43Z</time>
      </trkpt>
      <trkpt lat="48.21164" lon="6.66723">
        <ele>475.99</ele>
        <time>2017-04-09T08:30:47Z</time>
      </trkpt>
      <trkpt lat="48.21174" lon="6.66727">
        <ele>477.43</ele>
        <time>2017-04-09T08:30:52Z</time>
      </trkpt>
      <trkpt lat="48.21184" lon="6.66728">
        <ele>477.43</ele>
        <time>2017-04-09T08:30:56Z</time>
      </trkpt>
      <trkpt lat="48.21195" lon="6.66731">
        <ele>478.39</ele>
        <time>2017-04-09T08:31:01Z</time>
      </trkpt>
      <trkpt lat="48.21207" lon="6.66733">
        <ele>478.87</ele>
        <time>2017-04-09T08:31:06Z</time>
      </trkpt>
      <trkpt lat="48.21217" lon="6.66734">
        <ele>479.35</ele>
        <time>2017-04-09T08:31:10Z</time>
      </trkpt>
      <trkpt lat="48.21229" lon="6.66738">
        <ele>479.84</ele>
        <time>2017-04-09T08:31:15Z</time>
      </trkpt>
      <trkpt lat="48.21238" lon="6.66741">
        <ele>480.8</ele>
        <time>2017-04-09T08:31:19Z</time>
      </trkpt>
      <trkpt lat="48.21249" lon="6.66744">
        <ele>481.28</ele>
        <time>2017-04-09T08:31:24Z</time>
      </trkpt>
      <trkpt lat="48.21259" lon="6.66746">
        <ele>481.28</ele>
        <time>2017-04-09T08:31:28Z</time>
      </trkpt>
      <trkpt lat="48.2127" lon="6.66748">
        <ele>482.24</ele>
        <time>2017-04-09T08:31:33Z</time>
      </trkpt>
      <trkpt lat="48.21281" lon="6.66753">
        <ele>483.2</ele>
        <time>2017-04-09T08:31:37Z</time>
      </trkpt>
      <trkpt lat="48.2129" lon="6.66764">
        <ele>483.68</ele>
        <time>2017-04-09T08:31:41Z</time>
      </trkpt>
      <trkpt lat="48.21296" lon="6.66776">
        <ele>483.68</ele>
        <time>2017-04-09T08:31:45Z</time>
      </trkpt>
      <trkpt lat="48.21294" lon="6.66791">
        <ele>484.16</ele>
        <time>2017-04-09T08:31:49Z</time>
      </trkpt>
      <trkpt lat="48.2129" lon="6.66806">
        <ele>484.16</ele>
        <time>2017-04-09T08:31:53Z</time>
      </trkpt>
      <trkpt lat="48.21284" lon="6.66821">
        <ele>485.12</ele>
        <time>2017-04-09T08:31:58Z</time>
      </trkpt>
      <trkpt lat="48.21277" lon="6.66834">
        <ele>486.08</ele>
        <time>2017-04-09T08:32:02Z</time>
      </trkpt>
      <trkpt lat="48.2127" lon="6.66847">
        <ele>486.08</ele>
        <time>2017-04-09T08:32:06Z</time>
      </trkpt>
      <trkpt lat="48.21261" lon="6.66861">
        <ele>486.56</ele>
        <time>2017-04-09T08:32:10Z</time>
      </trkpt>
      <trkpt lat="48.21252" lon="6.66871">
        <ele>488.01</ele>
        <time>2017-04-09T08:32:16Z</time>
      </trkpt>
      <trkpt lat="48.21241" lon="6.66878">
        <ele>488.49</ele>
        <time>2017-04-09T08:32:20Z</time>
      </trkpt>
      <trkpt lat="48.21232" lon="6.66888">
        <ele>489.45</ele>
        <time>2017-04-09T08:32:25Z</time>
      </trkpt>
      <trkpt lat="48.21221" lon="6.66903">
        <ele>489.45</ele>
        <time>2017-04-09T08:32:29Z</time>
      </trkpt>
      <trkpt lat="48.21213" lon="6.66921">
        <ele>489.93</ele>
        <time>2017-04-09T08:32:33Z</time>
      </trkpt>
      <trkpt lat="48.21208" lon="6.66938">
        <ele>490.89</ele>
        <time>2017-04-09T08:32:37Z</time>
      </trkpt>
      <trkpt lat="48.21203" lon="6.66955">
        <ele>490.89</ele>
        <time>2017-04-09T08:32:41Z</time>
      </trkpt>
      <trkpt lat="48.21199" lon="6.66971">
        <ele>491.85</ele>
        <time>2017-04-09T08:32:45Z</time>
      </trkpt>
      <trkpt lat="48.21195" lon="6.66989">
        <ele>492.33</ele>
        <time>2017-04-09T08:32:49Z</time>
      </trkpt>
      <trkpt lat="48.21191" lon="6.67007">
        <ele>492.81</ele>
        <time>2017-04-09T08:32:53Z</time>
      </trkpt>
      <trkpt lat="48.21187" lon="6.67026">
        <ele>493.29</ele>
        <time>2017-04-09T08:32:57Z</time>
      </trkpt>
      <trkpt lat="48.21185" lon="6.67045">
        <ele>493.29</ele>
        <time>2017-04-09T08:33:01Z</time>
      </trkpt>
      <trkpt lat="48.21186" lon="6.67064">
        <ele>493.77</ele>
        <time>2017-04-09T08:33:05Z</time>
      </trkpt>
      <trkpt lat="48.21186" lon="6.67084">
        <ele>494.74</ele>
        <time>2017-04-09T08:33:10Z</time>
      </trkpt>
      <trkpt lat="48.21182" lon="6.67099">
        <ele>495.22</ele>
        <time>2017-04-09T08:33:13Z</time>
      </trkpt>
      <trkpt lat="48.21179" lon="6.67115">
        <ele>495.7</ele>
        <time>2017-04-09T08:33:16Z</time>
      </trkpt>
      <trkpt lat="48.21179" lon="6.67131">
        <ele>496.18</ele>
        <time>2017-04-09T08:33:19Z</time>
      </trkpt>
      <trkpt lat="48.21178" lon="6.67151">
        <ele>497.14</ele>
        <time>2017-04-09T08:33:23Z</time>
      </trkpt>
      <trkpt lat="48.2118" lon="6.6717">
        <ele>497.14</ele>
        <time>2017-04-09T08:33:27Z</time>
      </trkpt>
      <trkpt lat="48.21181" lon="6.67188">
        <ele>497.14</ele>
        <time>2017-04-09T08:33:31Z</time>
      </trkpt>
      <trkpt lat="48.21184" lon="6.67204">
        <ele>497.14</ele>
        <time>2017-04-09T08:33:34Z</time>
      </trkpt>
      <trkpt lat="48.21188" lon="6.67225">
        <ele>498.1</ele>
        <time>2017-04-09T08:33:38Z</time>
      </trkpt>
      <trkpt lat="48.21191" lon="6.67247">
        <ele>499.06</ele>
        <time>2017-04-09T08:33:42Z</time>
      </trkpt>
      <trkpt lat="48.21195" lon="6.67264">
        <ele>499.54</ele>
        <time>2017-04-09T08:33:45Z</time>
      </trkpt>
      <trkpt lat="48.21199" lon="6.67281">
        <ele>500.02</ele>
        <time>2017-04-09T08:33:48Z</time>
      </trkpt>
      <trkpt lat="48.21204" lon="6.67297">
        <ele>500.5</ele>
        <time>2017-04-09T08:33:51Z</time>
      </trkpt>
      <trkpt lat="48.21209" lon="6.67313">
        <ele>500.98</ele>
        <time>2017-04-09T08:33:54Z</time>
      </trkpt>
      <trkpt lat="48.21218" lon="6.67335">
        <ele>500.98</ele>
        <time>2017-04-09T08:33:57Z</time>
      </trkpt>
      <trkpt lat="48.21224" lon="6.67349">
        <ele>501.95</ele>
        <time>2017-04-09T08:34:00Z</time>
      </trkpt>
      <trkpt lat="48.21229" lon="6.67363">
        <ele>502.43</ele>
        <time>2017-04-09T08:34:03Z</time>
      </trkpt>
      <trkpt lat="48.21233" lon="6.67376">
        <ele>503.39</ele>
        <time>2017-04-09T08:34:06Z</time>
      </trkpt>
      <trkpt lat="48.21238" lon="6.6739">
        <ele>503.87</ele>
        <time>2017-04-09T08:34:09Z</time>
      </trkpt>
      <trkpt lat="48.21243" lon="6.67408">
        <ele>504.35</ele>
        <time>2017-04-09T08:34:13Z</time>
      </trkpt>
      <trkpt lat="48.21246" lon="6.67426">
        <ele>504.83</ele>
        <time>2017-04-09T08:34:17Z</time>
      </trkpt>
      <trkpt lat="48.21249" lon="6.67441">
        <ele>505.79</ele>
        <time>2017-04-09T08:34:21Z</time>
      </trkpt>
      <trkpt lat="48.21254" lon="6.67459">
        <ele>506.27</ele>
        <time>2017-04-09T08:34:26Z</time>
      </trkpt>
      <trkpt lat="48.21262" lon="6.67477">
        <ele>506.27</ele>
        <time>2017-04-09T08:34:30Z</time>
      </trkpt>
      <trkpt lat="48.21267" lon="6.67494">
        <ele>507.23</ele>
        <time>2017-04-09T08:34:36Z</time>
      </trkpt>
      <trkpt lat="48.21264" lon="6.67501">
        <ele>507.23</ele>
        <time>2017-04-09T08:35:00Z</time>
      </trkpt>
      <trkpt lat="48.21264" lon="6.67504">
        <ele>507.71</ele>
        <time>2017-04-09T08:36:00Z</time>
      </trkpt>
      <trkpt lat="48.21266" lon="6.67506">
        <ele>509.16</ele>
        <time>2017-04-09T08:37:56Z</time>
      </trkpt>
      <trkpt lat="48.21267" lon="6.67507">
        <ele>509.16</ele>
        <time>2017-04-09T08:38:52Z</time>
      </trkpt>
      <trkpt lat="48.21267" lon="6.67504">
        <ele>509.16</ele>
        <time>2017-04-09T08:41:06Z</time>
      </trkpt>
      <trkpt lat="48.21269" lon="6.67507">
        <ele>510.6</ele>
        <time>2017-04-09T08:45:59Z</time>
      </trkpt>
      <trkpt lat="48.21269" lon="6.67504">
        <ele>510.6</ele>
        <time>2017-04-09T08:46:32Z</time>
      </trkpt>
      <trkpt lat="48.21264" lon="6.67518">
        <ele>511.08</ele>
        <time>2017-04-09T08:46:37Z</time>
      </trkpt>
      <trkpt lat="48.21252" lon="6.67518">
        <ele>512.04</ele>
        <time>2017-04-09T08:46:41Z</time>
      </trkpt>
      <trkpt lat="48.2124" lon="6.67513">
        <ele>513</ele>
        <time>2017-04-09T08:46:46Z</time>
      </trkpt>
      <trkpt lat="48.21229" lon="6.67508">
        <ele>513</ele>
        <time>2017-04-09T08:46:50Z</time>
      </trkpt>
      <trkpt lat="48.21219" lon="6.67506">
        <ele>513.96</ele>
        <time>2017-04-09T08:46:54Z</time>
      </trkpt>
      <trkpt lat="48.21208" lon="6.67502">
        <ele>514.44</ele>
        <time>2017-04-09T08:46:58Z</time>
      </trkpt>
      <trkpt lat="48.21197" lon="6.67497">
        <ele>511.08</ele>
        <time>2017-04-09T08:47:02Z</time>
      </trkpt>
      <trkpt lat="48.21185" lon="6.67493">
        <ele>517.33</ele>
        <time>2017-04-09T08:47:07Z</time>
      </trkpt>
      <trkpt lat="48.21174" lon="6.6749">
        <ele>517.33</ele>
        <time>2017-04-09T08:47:12Z</time>
      </trkpt>
      <trkpt lat="48.21163" lon="6.67486">
        <ele>517.81</ele>
        <time>2017-04-09T08:47:16Z</time>
      </trkpt>
      <trkpt lat="48.21153" lon="6.6748">
        <ele>518.77</ele>
        <time>2017-04-09T08:47:20Z</time>
      </trkpt>
      <trkpt lat="48.21142" lon="6.67475">
        <ele>518.77</ele>
        <time>2017-04-09T08:47:24Z</time>
      </trkpt>
      <trkpt lat="48.21131" lon="6.67469">
        <ele>519.25</ele>
        <time>2017-04-09T08:47:28Z</time>
      </trkpt>
      <trkpt lat="48.2112" lon="6.67465">
        <ele>519.73</ele>
        <time>2017-04-09T08:47:32Z</time>
      </trkpt>
      <trkpt lat="48.2111" lon="6.67461">
        <ele>519.73</ele>
        <time>2017-04-09T08:47:36Z</time>
      </trkpt>
      <trkpt lat="48.21102" lon="6.67453">
        <ele>520.69</ele>
        <time>2017-04-09T08:47:40Z</time>
      </trkpt>
      <trkpt lat="48.21093" lon="6.67446">
        <ele>520.69</ele>
        <time>2017-04-09T08:47:45Z</time>
      </trkpt>
      <trkpt lat="48.21085" lon="6.67436">
        <ele>522.13</ele>
        <time>2017-04-09T08:47:49Z</time>
      </trkpt>
      <trkpt lat="48.21079" lon="6.67426">
        <ele>522.13</ele>
        <time>2017-04-09T08:47:53Z</time>
      </trkpt>
      <trkpt lat="48.21073" lon="6.67414">
        <ele>523.09</ele>
        <time>2017-04-09T08:47:57Z</time>
      </trkpt>
      <trkpt lat="48.21067" lon="6.674">
        <ele>523.58</ele>
        <time>2017-04-09T08:48:01Z</time>
      </trkpt>
      <trkpt lat="48.21062" lon="6.67387">
        <ele>524.54</ele>
        <time>2017-04-09T08:48:05Z</time>
      </trkpt>
      <trkpt lat="48.21055" lon="6.67375">
        <ele>524.54</ele>
        <time>2017-04-09T08:48:10Z</time>
      </trkpt>
      <trkpt lat="48.21049" lon="6.6736">
        <ele>525.98</ele>
        <time>2017-04-09T08:48:15Z</time>
      </trkpt>
      <trkpt lat="48.21042" lon="6.67347">
        <ele>526.46</ele>
        <time>2017-04-09T08:48:20Z</time>
      </trkpt>
      <trkpt lat="48.21037" lon="6.67335">
        <ele>526.46</ele>
        <time>2017-04-09T08:48:24Z</time>
      </trkpt>
      <trkpt lat="48.21032" lon="6.67322">
        <ele>526.94</ele>
        <time>2017-04-09T08:48:28Z</time>
      </trkpt>
      <trkpt lat="48.21026" lon="6.6731">
        <ele>527.9</ele>
        <time>2017-04-09T08:48:33Z</time>
      </trkpt>
      <trkpt lat="48.21021" lon="6.67297">
        <ele>528.38</ele>
        <time>2017-04-09T08:48:37Z</time>
      </trkpt>
      <trkpt lat="48.21015" lon="6.67285">
        <ele>529.34</ele>
        <time>2017-04-09T08:48:41Z</time>
      </trkpt>
      <trkpt lat="48.2101" lon="6.6727">
        <ele>529.34</ele>
        <time>2017-04-09T08:48:46Z</time>
      </trkpt>
      <trkpt lat="48.21003" lon="6.67256">
        <ele>530.3</ele>
        <time>2017-04-09T08:48:51Z</time>
      </trkpt>
      <trkpt lat="48.20996" lon="6.67242">
        <ele>531.27</ele>
        <time>2017-04-09T08:48:55Z</time>
      </trkpt>
      <trkpt lat="48.2099" lon="6.67229">
        <ele>531.27</ele>
        <time>2017-04-09T08:48:59Z</time>
      </trkpt>
      <trkpt lat="48.20984" lon="6.67217">
        <ele>532.23</ele>
        <time>2017-04-09T08:49:03Z</time>
      </trkpt>
      <trkpt lat="48.20978" lon="6.67207">
        <ele>532.23</ele>
        <time>2017-04-09T08:49:07Z</time>
      </trkpt>
      <trkpt lat="48.20972" lon="6.67194">
        <ele>533.19</ele>
        <time>2017-04-09T08:49:12Z</time>
      </trkpt>
      <trkpt lat="48.20967" lon="6.6718">
        <ele>534.63</ele>
        <time>2017-04-09T08:49:17Z</time>
      </trkpt>
      <trkpt lat="48.20959" lon="6.6717">
        <ele>536.07</ele>
        <time>2017-04-09T08:49:22Z</time>
      </trkpt>
      <trkpt lat="48.20951" lon="6.6716">
        <ele>536.55</ele>
        <time>2017-04-09T08:49:28Z</time>
      </trkpt>
      <trkpt lat="48.2094" lon="6.6715">
        <ele>538.48</ele>
        <time>2017-04-09T08:49:34Z</time>
      </trkpt>
      <trkpt lat="48.20932" lon="6.67139">
        <ele>539.44</ele>
        <time>2017-04-09T08:49:40Z</time>
      </trkpt>
      <trkpt lat="48.20929" lon="6.67122">
        <ele>539.92</ele>
        <time>2017-04-09T08:49:47Z</time>
      </trkpt>
      <trkpt lat="48.2093" lon="6.67106">
        <ele>538.96</ele>
        <time>2017-04-09T08:49:51Z</time>
      </trkpt>
      <trkpt lat="48.2093" lon="6.67089">
        <ele>538.48</ele>
        <time>2017-04-09T08:49:55Z</time>
      </trkpt>
      <trkpt lat="48.20933" lon="6.67072">
        <ele>538.48</ele>
        <time>2017-04-09T08:49:58Z</time>
      </trkpt>
      <trkpt lat="48.20932" lon="6.67053">
        <ele>537.51</ele>
        <time>2017-04-09T08:50:01Z</time>
      </trkpt>
      <trkpt lat="48.20932" lon="6.67035">
        <ele>536.55</ele>
        <time>2017-04-09T08:50:04Z</time>
      </trkpt>
      <trkpt lat="48.20932" lon="6.67017">
        <ele>537.03</ele>
        <time>2017-04-09T08:50:07Z</time>
      </trkpt>
      <trkpt lat="48.20931" lon="6.66998">
        <ele>536.55</ele>
        <time>2017-04-09T08:50:10Z</time>
      </trkpt>
      <trkpt lat="48.20931" lon="6.6698">
        <ele>536.07</ele>
        <time>2017-04-09T08:50:13Z</time>
      </trkpt>
      <trkpt lat="48.2093" lon="6.6696">
        <ele>534.63</ele>
        <time>2017-04-09T08:50:16Z</time>
      </trkpt>
      <trkpt lat="48.20929" lon="6.66945">
        <ele>534.15</ele>
        <time>2017-04-09T08:50:18Z</time>
      </trkpt>
      <trkpt lat="48.20928" lon="6.6693">
        <ele>533.67</ele>
        <time>2017-04-09T08:50:20Z</time>
      </trkpt>
      <trkpt lat="48.20928" lon="6.66915">
        <ele>533.67</ele>
        <time>2017-04-09T08:50:22Z</time>
      </trkpt>
      <trkpt lat="48.20927" lon="6.669">
        <ele>532.71</ele>
        <time>2017-04-09T08:50:24Z</time>
      </trkpt>
      <trkpt lat="48.20926" lon="6.66885">
        <ele>532.23</ele>
        <time>2017-04-09T08:50:26Z</time>
      </trkpt>
      <trkpt lat="48.20924" lon="6.66871">
        <ele>531.75</ele>
        <time>2017-04-09T08:50:28Z</time>
      </trkpt>
      <trkpt lat="48.20921" lon="6.66857">
        <ele>531.27</ele>
        <time>2017-04-09T08:50:30Z</time>
      </trkpt>
      <trkpt lat="48.20918" lon="6.66842">
        <ele>530.79</ele>
        <time>2017-04-09T08:50:32Z</time>
      </trkpt>
      <trkpt lat="48.20913" lon="6.66828">
        <ele>530.3</ele>
        <time>2017-04-09T08:50:34Z</time>
      </trkpt>
      <trkpt lat="48.20904" lon="6.66815">
        <ele>530.3</ele>
        <time>2017-04-09T08:50:36Z</time>
      </trkpt>
      <trkpt lat="48.20894" lon="6.66807">
        <ele>529.82</ele>
        <time>2017-04-09T08:50:38Z</time>
      </trkpt>
      <trkpt lat="48.20884" lon="6.66802">
        <ele>529.82</ele>
        <time>2017-04-09T08:50:40Z</time>
      </trkpt>
      <trkpt lat="48.20873" lon="6.66798">
        <ele>529.34</ele>
        <time>2017-04-09T08:50:42Z</time>
      </trkpt>
      <trkpt lat="48.20862" lon="6.66793">
        <ele>529.82</ele>
        <time>2017-04-09T08:50:44Z</time>
      </trkpt>
      <trkpt lat="48.20854" lon="6.66786">
        <ele>529.82</ele>
        <time>2017-04-09T08:50:46Z</time>
      </trkpt>
      <trkpt lat="48.20851" lon="6.66772">
        <ele>530.3</ele>
        <time>2017-04-09T08:50:48Z</time>
      </trkpt>
      <trkpt lat="48.20856" lon="6.66759">
        <ele>530.3</ele>
        <time>2017-04-09T08:50:50Z</time>
      </trkpt>
      <trkpt lat="48.20863" lon="6.66749">
        <ele>529.34</ele>
        <time>2017-04-09T08:50:52Z</time>
      </trkpt>
      <trkpt lat="48.20873" lon="6.66735">
        <ele>529.82</ele>
        <time>2017-04-09T08:50:55Z</time>
      </trkpt>
      <trkpt lat="48.20882" lon="6.6672">
        <ele>530.3</ele>
        <time>2017-04-09T08:50:58Z</time>
      </trkpt>
      <trkpt lat="48.20887" lon="6.66704">
        <ele>530.79</ele>
        <time>2017-04-09T08:51:01Z</time>
      </trkpt>
      <trkpt lat="48.20889" lon="6.66688">
        <ele>531.75</ele>
        <time>2017-04-09T08:51:04Z</time>
      </trkpt>
      <trkpt lat="48.20891" lon="6.66671">
        <ele>531.75</ele>
        <time>2017-04-09T08:51:07Z</time>
      </trkpt>
      <trkpt lat="48.20891" lon="6.66657">
        <ele>531.27</ele>
        <time>2017-04-09T08:51:10Z</time>
      </trkpt>
      <trkpt lat="48.2089" lon="6.66639">
        <ele>531.75</ele>
        <time>2017-04-09T08:51:13Z</time>
      </trkpt>
      <trkpt lat="48.20887" lon="6.66621">
        <ele>532.23</ele>
        <time>2017-04-09T08:51:16Z</time>
      </trkpt>
      <trkpt lat="48.20882" lon="6.66604">
        <ele>532.23</ele>
        <time>2017-04-09T08:51:19Z</time>
      </trkpt>
      <trkpt lat="48.20874" lon="6.66586">
        <ele>532.23</ele>
        <time>2017-04-09T08:51:22Z</time>
      </trkpt>
      <trkpt lat="48.20866" lon="6.66571">
        <ele>532.71</ele>
        <time>2017-04-09T08:51:25Z</time>
      </trkpt>
      <trkpt lat="48.20856" lon="6.66558">
        <ele>532.23</ele>
        <time>2017-04-09T08:51:28Z</time>
      </trkpt>
      <trkpt lat="48.20844" lon="6.66546">
        <ele>532.23</ele>
        <time>2017-04-09T08:51:31Z</time>
      </trkpt>
      <trkpt lat="48.20836" lon="6.6654">
        <ele>532.23</ele>
        <time>2017-04-09T08:51:33Z</time>
      </trkpt>
      <trkpt lat="48.20827" lon="6.66534">
        <ele>531.75</ele>
        <time>2017-04-09T08:51:35Z</time>
      </trkpt>
      <trkpt lat="48.20818" lon="6.66527">
        <ele>531.75</ele>
        <time>2017-04-09T08:51:37Z</time>
      </trkpt>
      <trkpt lat="48.2081" lon="6.6652">
        <ele>531.27</ele>
        <time>2017-04-09T08:51:39Z</time>
      </trkpt>
      <trkpt lat="48.20803" lon="6.66509">
        <ele>532.23</ele>
        <time>2017-04-09T08:51:41Z</time>
      </trkpt>
      <trkpt lat="48.20799" lon="6.66495">
        <ele>532.23</ele>
        <time>2017-04-09T08:51:43Z</time>
      </trkpt>
      <trkpt lat="48.20796" lon="6.6648">
        <ele>534.15</ele>
        <time>2017-04-09T08:51:46Z</time>
      </trkpt>
      <trkpt lat="48.20796" lon="6.66463">
        <ele>536.07</ele>
        <time>2017-04-09T08:51:52Z</time>
      </trkpt>
      <trkpt lat="48.20797" lon="6.66443">
        <ele>537.99</ele>
        <time>2017-04-09T08:51:58Z</time>
      </trkpt>
      <trkpt lat="48.20794" lon="6.66428">
        <ele>539.44</ele>
        <time>2017-04-09T08:52:04Z</time>
      </trkpt>
      <trkpt lat="48.20792" lon="6.66406">
        <ele>539.92</ele>
        <time>2017-04-09T08:52:09Z</time>
      </trkpt>
      <trkpt lat="48.2079" lon="6.66382">
        <ele>540.88</ele>
        <time>2017-04-09T08:52:16Z</time>
      </trkpt>
      <trkpt lat="48.20789" lon="6.66361">
        <ele>540.4</ele>
        <time>2017-04-09T08:52:20Z</time>
      </trkpt>
      <trkpt lat="48.20787" lon="6.66341">
        <ele>541.36</ele>
        <time>2017-04-09T08:52:24Z</time>
      </trkpt>
      <trkpt lat="48.20784" lon="6.66322">
        <ele>541.36</ele>
        <time>2017-04-09T08:52:28Z</time>
      </trkpt>
      <trkpt lat="48.20781" lon="6.66303">
        <ele>541.36</ele>
        <time>2017-04-09T08:52:32Z</time>
      </trkpt>
      <trkpt lat="48.20779" lon="6.66282">
        <ele>542.32</ele>
        <time>2017-04-09T08:52:36Z</time>
      </trkpt>
      <trkpt lat="48.2078" lon="6.66262">
        <ele>542.32</ele>
        <time>2017-04-09T08:52:40Z</time>
      </trkpt>
      <trkpt lat="48.20782" lon="6.66244">
        <ele>541.84</ele>
        <time>2017-04-09T08:52:46Z</time>
      </trkpt>
      <trkpt lat="48.20785" lon="6.66225">
        <ele>541.36</ele>
        <time>2017-04-09T08:52:51Z</time>
      </trkpt>
      <trkpt lat="48.20791" lon="6.6621">
        <ele>541.36</ele>
        <time>2017-04-09T08:52:55Z</time>
      </trkpt>
      <trkpt lat="48.208" lon="6.66198">
        <ele>542.32</ele>
        <time>2017-04-09T08:52:58Z</time>
      </trkpt>
      <trkpt lat="48.20809" lon="6.66185">
        <ele>542.32</ele>
        <time>2017-04-09T08:53:02Z</time>
      </trkpt>
      <trkpt lat="48.20817" lon="6.66178">
        <ele>543.76</ele>
        <time>2017-04-09T08:53:07Z</time>
      </trkpt>
      <trkpt lat="48.20825" lon="6.66176">
        <ele>545.2</ele>
        <time>2017-04-09T08:53:14Z</time>
      </trkpt>
      <trkpt lat="48.20825" lon="6.66146">
        <ele>548.57</ele>
        <time>2017-04-09T08:53:28Z</time>
      </trkpt>
      <trkpt lat="48.20818" lon="6.66112">
        <ele>549.53</ele>
        <time>2017-04-09T08:53:34Z</time>
      </trkpt>
      <trkpt lat="48.2081" lon="6.66078">
        <ele>550.01</ele>
        <time>2017-04-09T08:53:37Z</time>
      </trkpt>
      <trkpt lat="48.20796" lon="6.66022">
        <ele>550.01</ele>
        <time>2017-04-09T08:53:41Z</time>
      </trkpt>
      <trkpt lat="48.2078" lon="6.65969">
        <ele>550.49</ele>
        <time>2017-04-09T08:53:45Z</time>
      </trkpt>
      <trkpt lat="48.20772" lon="6.65952">
        <ele>550.97</ele>
        <time>2017-04-09T08:53:49Z</time>
      </trkpt>
      <trkpt lat="48.20765" lon="6.65938">
        <ele>550.97</ele>
        <time>2017-04-09T08:53:53Z</time>
      </trkpt>
      <trkpt lat="48.20757" lon="6.65925">
        <ele>551.45</ele>
        <time>2017-04-09T08:53:57Z</time>
      </trkpt>
      <trkpt lat="48.20748" lon="6.65912">
        <ele>551.93</ele>
        <time>2017-04-09T08:54:01Z</time>
      </trkpt>
      <trkpt lat="48.20741" lon="6.65902">
        <ele>551.93</ele>
        <time>2017-04-09T08:54:04Z</time>
      </trkpt>
      <trkpt lat="48.20733" lon="6.65889">
        <ele>551.93</ele>
        <time>2017-04-09T08:54:08Z</time>
      </trkpt>
      <trkpt lat="48.20724" lon="6.65878">
        <ele>552.9</ele>
        <time>2017-04-09T08:54:12Z</time>
      </trkpt>
      <trkpt lat="48.20714" lon="6.65868">
        <ele>555.3</ele>
        <time>2017-04-09T08:54:16Z</time>
      </trkpt>
      <trkpt lat="48.20706" lon="6.65854">
        <ele>554.34</ele>
        <time>2017-04-09T08:54:20Z</time>
      </trkpt>
      <trkpt lat="48.207" lon="6.65843">
        <ele>554.34</ele>
        <time>2017-04-09T08:54:23Z</time>
      </trkpt>
      <trkpt lat="48.20694" lon="6.6583">
        <ele>555.3</ele>
        <time>2017-04-09T08:54:27Z</time>
      </trkpt>
      <trkpt lat="48.20686" lon="6.65817">
        <ele>557.22</ele>
        <time>2017-04-09T08:54:32Z</time>
      </trkpt>
      <trkpt lat="48.2068" lon="6.65804">
        <ele>558.18</ele>
        <time>2017-04-09T08:54:36Z</time>
      </trkpt>
      <trkpt lat="48.20673" lon="6.65791">
        <ele>558.18</ele>
        <time>2017-04-09T08:54:40Z</time>
      </trkpt>
      <trkpt lat="48.20666" lon="6.6578">
        <ele>560.11</ele>
        <time>2017-04-09T08:54:45Z</time>
      </trkpt>
      <trkpt lat="48.20661" lon="6.65764">
        <ele>560.59</ele>
        <time>2017-04-09T08:54:50Z</time>
      </trkpt>
      <trkpt lat="48.20657" lon="6.65749">
        <ele>561.07</ele>
        <time>2017-04-09T08:54:55Z</time>
      </trkpt>
      <trkpt lat="48.20654" lon="6.65734">
        <ele>561.55</ele>
        <time>2017-04-09T08:55:00Z</time>
      </trkpt>
      <trkpt lat="48.20648" lon="6.6572">
        <ele>563.47</ele>
        <time>2017-04-09T08:55:05Z</time>
      </trkpt>
      <trkpt lat="48.20646" lon="6.65704">
        <ele>563.95</ele>
        <time>2017-04-09T08:55:10Z</time>
      </trkpt>
      <trkpt lat="48.20642" lon="6.6569">
        <ele>564.91</ele>
        <time>2017-04-09T08:55:15Z</time>
      </trkpt>
      <trkpt lat="48.20636" lon="6.65673">
        <ele>565.39</ele>
        <time>2017-04-09T08:55:20Z</time>
      </trkpt>
      <trkpt lat="48.2063" lon="6.65656">
        <ele>565.87</ele>
        <time>2017-04-09T08:55:25Z</time>
      </trkpt>
      <trkpt lat="48.20626" lon="6.6564">
        <ele>565.87</ele>
        <time>2017-04-09T08:55:29Z</time>
      </trkpt>
      <trkpt lat="48.2062" lon="6.65626">
        <ele>567.32</ele>
        <time>2017-04-09T08:55:33Z</time>
      </trkpt>
      <trkpt lat="48.20614" lon="6.6561">
        <ele>568.76</ele>
        <time>2017-04-09T08:55:38Z</time>
      </trkpt>
      <trkpt lat="48.20606" lon="6.65595">
        <ele>569.72</ele>
        <time>2017-04-09T08:55:43Z</time>
      </trkpt>
      <trkpt lat="48.206" lon="6.65583">
        <ele>570.2</ele>
        <time>2017-04-09T08:55:47Z</time>
      </trkpt>
      <trkpt lat="48.20594" lon="6.6557">
        <ele>570.2</ele>
        <time>2017-04-09T08:55:51Z</time>
      </trkpt>
      <trkpt lat="48.20589" lon="6.65557">
        <ele>570.2</ele>
        <time>2017-04-09T08:55:55Z</time>
      </trkpt>
      <trkpt lat="48.20583" lon="6.65543">
        <ele>570.2</ele>
        <time>2017-04-09T08:55:59Z</time>
      </trkpt>
      <trkpt lat="48.20576" lon="6.65528">
        <ele>570.2</ele>
        <time>2017-04-09T08:56:03Z</time>
      </trkpt>
      <trkpt lat="48.20568" lon="6.65514">
        <ele>570.68</ele>
        <time>2017-04-09T08:56:07Z</time>
      </trkpt>
      <trkpt lat="48.20559" lon="6.65502">
        <ele>571.64</ele>
        <time>2017-04-09T08:56:11Z</time>
      </trkpt>
      <trkpt lat="48.20549" lon="6.65494">
        <ele>572.6</ele>
        <time>2017-04-09T08:56:15Z</time>
      </trkpt>
      <trkpt lat="48.20539" lon="6.65487">
        <ele>573.08</ele>
        <time>2017-04-09T08:56:19Z</time>
      </trkpt>
      <trkpt lat="48.20531" lon="6.65478">
        <ele>573.56</ele>
        <time>2017-04-09T08:56:23Z</time>
      </trkpt>
      <trkpt lat="48.20521" lon="6.65472">
        <ele>575.01</ele>
        <time>2017-04-09T08:56:27Z</time>
      </trkpt>
      <trkpt lat="48.20512" lon="6.65464">
        <ele>575.01</ele>
        <time>2017-04-09T08:56:32Z</time>
      </trkpt>
      <trkpt lat="48.20503" lon="6.65455">
        <ele>575.49</ele>
        <time>2017-04-09T08:56:36Z</time>
      </trkpt>
      <trkpt lat="48.20494" lon="6.65445">
        <ele>576.45</ele>
        <time>2017-04-09T08:56:40Z</time>
      </trkpt>
      <trkpt lat="48.20485" lon="6.65435">
        <ele>577.41</ele>
        <time>2017-04-09T08:56:44Z</time>
      </trkpt>
      <trkpt lat="48.20478" lon="6.65423">
        <ele>577.41</ele>
        <time>2017-04-09T08:56:48Z</time>
      </trkpt>
      <trkpt lat="48.20472" lon="6.65411">
        <ele>577.89</ele>
        <time>2017-04-09T08:56:52Z</time>
      </trkpt>
      <trkpt lat="48.20466" lon="6.65397">
        <ele>578.85</ele>
        <time>2017-04-09T08:56:56Z</time>
      </trkpt>
      <trkpt lat="48.20459" lon="6.65385">
        <ele>578.37</ele>
        <time>2017-04-09T08:57:00Z</time>
      </trkpt>
      <trkpt lat="48.20452" lon="6.65373">
        <ele>578.37</ele>
        <time>2017-04-09T08:57:03Z</time>
      </trkpt>
      <trkpt lat="48.20443" lon="6.65359">
        <ele>578.37</ele>
        <time>2017-04-09T08:57:07Z</time>
      </trkpt>
      <trkpt lat="48.20436" lon="6.6535">
        <ele>578.85</ele>
        <time>2017-04-09T08:57:10Z</time>
      </trkpt>
      <trkpt lat="48.20425" lon="6.65341">
        <ele>579.33</ele>
        <time>2017-04-09T08:57:14Z</time>
      </trkpt>
      <trkpt lat="48.20414" lon="6.65333">
        <ele>579.81</ele>
        <time>2017-04-09T08:57:18Z</time>
      </trkpt>
      <trkpt lat="48.20405" lon="6.65326">
        <ele>580.29</ele>
        <time>2017-04-09T08:57:22Z</time>
      </trkpt>
      <trkpt lat="48.20394" lon="6.65318">
        <ele>580.29</ele>
        <time>2017-04-09T08:57:26Z</time>
      </trkpt>
      <trkpt lat="48.20386" lon="6.65311">
        <ele>580.77</ele>
        <time>2017-04-09T08:57:29Z</time>
      </trkpt>
      <trkpt lat="48.20377" lon="6.65305">
        <ele>581.25</ele>
        <time>2017-04-09T08:57:32Z</time>
      </trkpt>
      <trkpt lat="48.20369" lon="6.65298">
        <ele>581.73</ele>
        <time>2017-04-09T08:57:35Z</time>
      </trkpt>
      <trkpt lat="48.20359" lon="6.65291">
        <ele>582.22</ele>
        <time>2017-04-09T08:57:39Z</time>
      </trkpt>
      <trkpt lat="48.20349" lon="6.65285">
        <ele>583.66</ele>
        <time>2017-04-09T08:57:43Z</time>
      </trkpt>
      <trkpt lat="48.20338" lon="6.65283">
        <ele>584.62</ele>
        <time>2017-04-09T08:57:48Z</time>
      </trkpt>
      <trkpt lat="48.20327" lon="6.6528">
        <ele>585.58</ele>
        <time>2017-04-09T08:57:53Z</time>
      </trkpt>
      <trkpt lat="48.20317" lon="6.65277">
        <ele>586.54</ele>
        <time>2017-04-09T08:57:58Z</time>
      </trkpt>
      <trkpt lat="48.20307" lon="6.65278">
        <ele>587.5</ele>
        <time>2017-04-09T08:58:03Z</time>
      </trkpt>
      <trkpt lat="48.20297" lon="6.65276">
        <ele>587.98</ele>
        <time>2017-04-09T08:58:09Z</time>
      </trkpt>
      <trkpt lat="48.20286" lon="6.65279">
        <ele>589.91</ele>
        <time>2017-04-09T08:58:17Z</time>
      </trkpt>
      <trkpt lat="48.20276" lon="6.65283">
        <ele>590.87</ele>
        <time>2017-04-09T08:58:24Z</time>
      </trkpt>
      <trkpt lat="48.20263" lon="6.65285">
        <ele>591.83</ele>
        <time>2017-04-09T08:58:31Z</time>
      </trkpt>
      <trkpt lat="48.20252" lon="6.65287">
        <ele>593.27</ele>
        <time>2017-04-09T08:58:38Z</time>
      </trkpt>
      <trkpt lat="48.2024" lon="6.65287">
        <ele>594.23</ele>
        <time>2017-04-09T08:58:45Z</time>
      </trkpt>
      <trkpt lat="48.20225" lon="6.65289">
        <ele>595.67</ele>
        <time>2017-04-09T08:58:52Z</time>
      </trkpt>
      <trkpt lat="48.20212" lon="6.65288">
        <ele>596.15</ele>
        <time>2017-04-09T08:59:00Z</time>
      </trkpt>
      <trkpt lat="48.20198" lon="6.65288">
        <ele>598.08</ele>
        <time>2017-04-09T08:59:08Z</time>
      </trkpt>
      <trkpt lat="48.20186" lon="6.65287">
        <ele>599.04</ele>
        <time>2017-04-09T08:59:15Z</time>
      </trkpt>
      <trkpt lat="48.20172" lon="6.65288">
        <ele>600</ele>
        <time>2017-04-09T08:59:22Z</time>
      </trkpt>
      <trkpt lat="48.20161" lon="6.65284">
        <ele>600.96</ele>
        <time>2017-04-09T08:59:28Z</time>
      </trkpt>
      <trkpt lat="48.20148" lon="6.65281">
        <ele>601.44</ele>
        <time>2017-04-09T08:59:34Z</time>
      </trkpt>
      <trkpt lat="48.20136" lon="6.65277">
        <ele>601.92</ele>
        <time>2017-04-09T08:59:39Z</time>
      </trkpt>
      <trkpt lat="48.20126" lon="6.65272">
        <ele>602.4</ele>
        <time>2017-04-09T08:59:44Z</time>
      </trkpt>
      <trkpt lat="48.20117" lon="6.65266">
        <ele>602.4</ele>
        <time>2017-04-09T08:59:48Z</time>
      </trkpt>
      <trkpt lat="48.20105" lon="6.65261">
        <ele>602.4</ele>
        <time>2017-04-09T08:59:52Z</time>
      </trkpt>
      <trkpt lat="48.20095" lon="6.65256">
        <ele>602.4</ele>
        <time>2017-04-09T08:59:55Z</time>
      </trkpt>
      <trkpt lat="48.20083" lon="6.65251">
        <ele>603.36</ele>
        <time>2017-04-09T08:59:59Z</time>
      </trkpt>
      <trkpt lat="48.20072" lon="6.65247">
        <ele>603.85</ele>
        <time>2017-04-09T09:00:03Z</time>
      </trkpt>
      <trkpt lat="48.20061" lon="6.65249">
        <ele>603.85</ele>
        <time>2017-04-09T09:00:07Z</time>
      </trkpt>
      <trkpt lat="48.20049" lon="6.65254">
        <ele>604.33</ele>
        <time>2017-04-09T09:00:11Z</time>
      </trkpt>
      <trkpt lat="48.20039" lon="6.65259">
        <ele>604.81</ele>
        <time>2017-04-09T09:00:15Z</time>
      </trkpt>
      <trkpt lat="48.20028" lon="6.65263">
        <ele>605.29</ele>
        <time>2017-04-09T09:00:19Z</time>
      </trkpt>
      <trkpt lat="48.20018" lon="6.65267">
        <ele>605.29</ele>
        <time>2017-04-09T09:00:24Z</time>
      </trkpt>
      <trkpt lat="48.20008" lon="6.6527">
        <ele>605.29</ele>
        <time>2017-04-09T09:00:28Z</time>
      </trkpt>
      <trkpt lat="48.19998" lon="6.65276">
        <ele>605.29</ele>
        <time>2017-04-09T09:00:31Z</time>
      </trkpt>
      <trkpt lat="48.19986" lon="6.65287">
        <ele>604.81</ele>
        <time>2017-04-09T09:00:35Z</time>
      </trkpt>
      <trkpt lat="48.19977" lon="6.65298">
        <ele>604.81</ele>
        <time>2017-04-09T09:00:38Z</time>
      </trkpt>
      <trkpt lat="48.19966" lon="6.6531">
        <ele>602.88</ele>
        <time>2017-04-09T09:00:41Z</time>
      </trkpt>
      <trkpt lat="48.19957" lon="6.65318">
        <ele>601.92</ele>
        <time>2017-04-09T09:00:43Z</time>
      </trkpt>
      <trkpt lat="48.19946" lon="6.65322">
        <ele>601.44</ele>
        <time>2017-04-09T09:00:45Z</time>
      </trkpt>
      <trkpt lat="48.19935" lon="6.65323">
        <ele>600.96</ele>
        <time>2017-04-09T09:00:47Z</time>
      </trkpt>
      <trkpt lat="48.19924" lon="6.65321">
        <ele>600.48</ele>
        <time>2017-04-09T09:00:49Z</time>
      </trkpt>
      <trkpt lat="48.19912" lon="6.65318">
        <ele>600.48</ele>
        <time>2017-04-09T09:00:51Z</time>
      </trkpt>
      <trkpt lat="48.19901" lon="6.65315">
        <ele>599.52</ele>
        <time>2017-04-09T09:00:53Z</time>
      </trkpt>
      <trkpt lat="48.19888" lon="6.65314">
        <ele>599.04</ele>
        <time>2017-04-09T09:00:55Z</time>
      </trkpt>
      <trkpt lat="48.19876" lon="6.65315">
        <ele>598.08</ele>
        <time>2017-04-09T09:00:57Z</time>
      </trkpt>
      <trkpt lat="48.19863" lon="6.65321">
        <ele>597.6</ele>
        <time>2017-04-09T09:00:59Z</time>
      </trkpt>
      <trkpt lat="48.19851" lon="6.65326">
        <ele>596.64</ele>
        <time>2017-04-09T09:01:01Z</time>
      </trkpt>
      <trkpt lat="48.19836" lon="6.65326">
        <ele>594.71</ele>
        <time>2017-04-09T09:01:03Z</time>
      </trkpt>
      <trkpt lat="48.19821" lon="6.65324">
        <ele>592.79</ele>
        <time>2017-04-09T09:01:05Z</time>
      </trkpt>
      <trkpt lat="48.19805" lon="6.65318">
        <ele>589.43</ele>
        <time>2017-04-09T09:01:07Z</time>
      </trkpt>
      <trkpt lat="48.19788" lon="6.65308">
        <ele>588.46</ele>
        <time>2017-04-09T09:01:09Z</time>
      </trkpt>
      <trkpt lat="48.19774" lon="6.65298">
        <ele>586.06</ele>
        <time>2017-04-09T09:01:11Z</time>
      </trkpt>
      <trkpt lat="48.19758" lon="6.65289">
        <ele>583.66</ele>
        <time>2017-04-09T09:01:13Z</time>
      </trkpt>
      <trkpt lat="48.19749" lon="6.65285">
        <ele>581.73</ele>
        <time>2017-04-09T09:01:14Z</time>
      </trkpt>
      <trkpt lat="48.19739" lon="6.65283">
        <ele>580.77</ele>
        <time>2017-04-09T09:01:15Z</time>
      </trkpt>
      <trkpt lat="48.19729" lon="6.65283">
        <ele>579.81</ele>
        <time>2017-04-09T09:01:16Z</time>
      </trkpt>
      <trkpt lat="48.1972" lon="6.65283">
        <ele>577.89</ele>
        <time>2017-04-09T09:01:17Z</time>
      </trkpt>
      <trkpt lat="48.19702" lon="6.6528">
        <ele>576.45</ele>
        <time>2017-04-09T09:01:19Z</time>
      </trkpt>
      <trkpt lat="48.19692" lon="6.65281">
        <ele>575.01</ele>
        <time>2017-04-09T09:01:20Z</time>
      </trkpt>
      <trkpt lat="48.19682" lon="6.65283">
        <ele>574.53</ele>
        <time>2017-04-09T09:01:21Z</time>
      </trkpt>
      <trkpt lat="48.19672" lon="6.65285">
        <ele>574.04</ele>
        <time>2017-04-09T09:01:22Z</time>
      </trkpt>
      <trkpt lat="48.19662" lon="6.65287">
        <ele>573.56</ele>
        <time>2017-04-09T09:01:23Z</time>
      </trkpt>
      <trkpt lat="48.19652" lon="6.65289">
        <ele>572.6</ele>
        <time>2017-04-09T09:01:24Z</time>
      </trkpt>
      <trkpt lat="48.19643" lon="6.65291">
        <ele>572.12</ele>
        <time>2017-04-09T09:01:25Z</time>
      </trkpt>
      <trkpt lat="48.19633" lon="6.65292">
        <ele>570.68</ele>
        <time>2017-04-09T09:01:26Z</time>
      </trkpt>
      <trkpt lat="48.19623" lon="6.65293">
        <ele>570.2</ele>
        <time>2017-04-09T09:01:27Z</time>
      </trkpt>
      <trkpt lat="48.19614" lon="6.65294">
        <ele>570.2</ele>
        <time>2017-04-09T09:01:28Z</time>
      </trkpt>
      <trkpt lat="48.19605" lon="6.65294">
        <ele>569.24</ele>
        <time>2017-04-09T09:01:29Z</time>
      </trkpt>
      <trkpt lat="48.19586" lon="6.65295">
        <ele>568.76</ele>
        <time>2017-04-09T09:01:31Z</time>
      </trkpt>
      <trkpt lat="48.19571" lon="6.65298">
        <ele>568.28</ele>
        <time>2017-04-09T09:01:33Z</time>
      </trkpt>
      <trkpt lat="48.19558" lon="6.653">
        <ele>568.28</ele>
        <time>2017-04-09T09:01:35Z</time>
      </trkpt>
      <trkpt lat="48.19547" lon="6.65304">
        <ele>567.8</ele>
        <time>2017-04-09T09:01:38Z</time>
      </trkpt>
      <trkpt lat="48.19538" lon="6.65298">
        <ele>567.8</ele>
        <time>2017-04-09T09:01:43Z</time>
      </trkpt>
      <trkpt lat="48.19542" lon="6.65287">
        <ele>567.32</ele>
        <time>2017-04-09T09:01:51Z</time>
      </trkpt>
      <trkpt lat="48.19545" lon="6.6527">
        <ele>568.28</ele>
        <time>2017-04-09T09:02:00Z</time>
      </trkpt>
      <trkpt lat="48.19545" lon="6.65251">
        <ele>568.28</ele>
        <time>2017-04-09T09:02:04Z</time>
      </trkpt>
      <trkpt lat="48.19546" lon="6.65235">
        <ele>568.28</ele>
        <time>2017-04-09T09:02:08Z</time>
      </trkpt>
      <trkpt lat="48.19545" lon="6.65215">
        <ele>568.28</ele>
        <time>2017-04-09T09:02:12Z</time>
      </trkpt>
      <trkpt lat="48.19541" lon="6.65199">
        <ele>568.76</ele>
        <time>2017-04-09T09:02:15Z</time>
      </trkpt>
      <trkpt lat="48.19536" lon="6.65181">
        <ele>568.28</ele>
        <time>2017-04-09T09:02:18Z</time>
      </trkpt>
      <trkpt lat="48.19529" lon="6.65164">
        <ele>567.8</ele>
        <time>2017-04-09T09:02:21Z</time>
      </trkpt>
      <trkpt lat="48.19524" lon="6.65153">
        <ele>568.28</ele>
        <time>2017-04-09T09:02:23Z</time>
      </trkpt>
      <trkpt lat="48.19519" lon="6.6514">
        <ele>567.8</ele>
        <time>2017-04-09T09:02:25Z</time>
      </trkpt>
      <trkpt lat="48.19512" lon="6.65122">
        <ele>568.28</ele>
        <time>2017-04-09T09:02:28Z</time>
      </trkpt>
      <trkpt lat="48.19504" lon="6.65107">
        <ele>567.32</ele>
        <time>2017-04-09T09:02:31Z</time>
      </trkpt>
      <trkpt lat="48.19497" lon="6.65091">
        <ele>566.83</ele>
        <time>2017-04-09T09:02:34Z</time>
      </trkpt>
      <trkpt lat="48.19491" lon="6.65073">
        <ele>566.83</ele>
        <time>2017-04-09T09:02:37Z</time>
      </trkpt>
      <trkpt lat="48.19486" lon="6.65055">
        <ele>567.32</ele>
        <time>2017-04-09T09:02:40Z</time>
      </trkpt>
      <trkpt lat="48.19483" lon="6.65042">
        <ele>567.32</ele>
        <time>2017-04-09T09:02:42Z</time>
      </trkpt>
      <trkpt lat="48.19478" lon="6.65027">
        <ele>567.32</ele>
        <time>2017-04-09T09:02:45Z</time>
      </trkpt>
      <trkpt lat="48.19474" lon="6.65011">
        <ele>567.8</ele>
        <time>2017-04-09T09:02:48Z</time>
      </trkpt>
      <trkpt lat="48.19468" lon="6.64996">
        <ele>567.8</ele>
        <time>2017-04-09T09:02:51Z</time>
      </trkpt>
      <trkpt lat="48.19461" lon="6.64979">
        <ele>568.76</ele>
        <time>2017-04-09T09:02:54Z</time>
      </trkpt>
      <trkpt lat="48.19454" lon="6.64962">
        <ele>568.76</ele>
        <time>2017-04-09T09:02:57Z</time>
      </trkpt>
      <trkpt lat="48.19448" lon="6.64945">
        <ele>569.24</ele>
        <time>2017-04-09T09:03:00Z</time>
      </trkpt>
      <trkpt lat="48.19444" lon="6.64931">
        <ele>570.2</ele>
        <time>2017-04-09T09:03:03Z</time>
      </trkpt>
      <trkpt lat="48.19437" lon="6.64916">
        <ele>571.16</ele>
        <time>2017-04-09T09:03:07Z</time>
      </trkpt>
      <trkpt lat="48.19435" lon="6.64902">
        <ele>569.72</ele>
        <time>2017-04-09T09:03:10Z</time>
      </trkpt>
      <trkpt lat="48.19434" lon="6.64883">
        <ele>571.64</ele>
        <time>2017-04-09T09:03:14Z</time>
      </trkpt>
      <trkpt lat="48.19432" lon="6.64865">
        <ele>573.08</ele>
        <time>2017-04-09T09:03:18Z</time>
      </trkpt>
      <trkpt lat="48.19431" lon="6.6485">
        <ele>573.56</ele>
        <time>2017-04-09T09:03:22Z</time>
      </trkpt>
      <trkpt lat="48.19431" lon="6.64833">
        <ele>575.01</ele>
        <time>2017-04-09T09:03:28Z</time>
      </trkpt>
      <trkpt lat="48.19429" lon="6.64817">
        <ele>575.49</ele>
        <time>2017-04-09T09:03:38Z</time>
      </trkpt>
      <trkpt lat="48.19428" lon="6.64807">
        <ele>576.45</ele>
        <time>2017-04-09T09:04:04Z</time>
      </trkpt>
      <trkpt lat="48.19427" lon="6.64799">
        <ele>578.37</ele>
        <time>2017-04-09T09:05:17Z</time>
      </trkpt>
      <trkpt lat="48.1943" lon="6.64798">
        <ele>581.25</ele>
        <time>2017-04-09T09:08:00Z</time>
      </trkpt>
      <trkpt lat="48.19429" lon="6.64799">
        <ele>582.7</ele>
        <time>2017-04-09T09:09:42Z</time>
      </trkpt>
      <trkpt lat="48.19425" lon="6.64811">
        <ele>582.7</ele>
        <time>2017-04-09T09:10:11Z</time>
      </trkpt>
      <trkpt lat="48.19416" lon="6.64806">
        <ele>581.25</ele>
        <time>2017-04-09T09:10:16Z</time>
      </trkpt>
      <trkpt lat="48.19407" lon="6.64807">
        <ele>580.29</ele>
        <time>2017-04-09T09:10:18Z</time>
      </trkpt>
      <trkpt lat="48.19397" lon="6.64809">
        <ele>578.85</ele>
        <time>2017-04-09T09:10:20Z</time>
      </trkpt>
      <trkpt lat="48.19386" lon="6.64813">
        <ele>578.85</ele>
        <time>2017-04-09T09:10:22Z</time>
      </trkpt>
      <trkpt lat="48.19377" lon="6.6482">
        <ele>577.89</ele>
        <time>2017-04-09T09:10:24Z</time>
      </trkpt>
      <trkpt lat="48.19368" lon="6.64827">
        <ele>575.97</ele>
        <time>2017-04-09T09:10:26Z</time>
      </trkpt>
      <trkpt lat="48.19356" lon="6.64831">
        <ele>574.04</ele>
        <time>2017-04-09T09:10:29Z</time>
      </trkpt>
      <trkpt lat="48.19347" lon="6.64821">
        <ele>574.04</ele>
        <time>2017-04-09T09:10:32Z</time>
      </trkpt>
      <trkpt lat="48.19342" lon="6.64806">
        <ele>573.56</ele>
        <time>2017-04-09T09:10:35Z</time>
      </trkpt>
      <trkpt lat="48.19341" lon="6.64791">
        <ele>573.56</ele>
        <time>2017-04-09T09:10:38Z</time>
      </trkpt>
      <trkpt lat="48.19334" lon="6.6478">
        <ele>573.56</ele>
        <time>2017-04-09T09:10:41Z</time>
      </trkpt>
      <trkpt lat="48.19319" lon="6.64774">
        <ele>572.6</ele>
        <time>2017-04-09T09:10:44Z</time>
      </trkpt>
      <trkpt lat="48.19308" lon="6.64768">
        <ele>571.64</ele>
        <time>2017-04-09T09:10:48Z</time>
      </trkpt>
      <trkpt lat="48.19297" lon="6.64769">
        <ele>571.16</ele>
        <time>2017-04-09T09:10:55Z</time>
      </trkpt>
      <trkpt lat="48.19286" lon="6.64772">
        <ele>570.2</ele>
        <time>2017-04-09T09:11:00Z</time>
      </trkpt>
      <trkpt lat="48.19275" lon="6.64773">
        <ele>569.24</ele>
        <time>2017-04-09T09:11:04Z</time>
      </trkpt>
      <trkpt lat="48.19264" lon="6.64777">
        <ele>568.28</ele>
        <time>2017-04-09T09:11:07Z</time>
      </trkpt>
      <trkpt lat="48.19254" lon="6.64777">
        <ele>567.32</ele>
        <time>2017-04-09T09:11:10Z</time>
      </trkpt>
      <trkpt lat="48.19246" lon="6.64789">
        <ele>566.35</ele>
        <time>2017-04-09T09:11:12Z</time>
      </trkpt>
      <trkpt lat="48.19236" lon="6.64807">
        <ele>565.87</ele>
        <time>2017-04-09T09:11:15Z</time>
      </trkpt>
      <trkpt lat="48.19227" lon="6.64823">
        <ele>564.91</ele>
        <time>2017-04-09T09:11:17Z</time>
      </trkpt>
      <trkpt lat="48.1922" lon="6.64834">
        <ele>564.43</ele>
        <time>2017-04-09T09:11:19Z</time>
      </trkpt>
      <trkpt lat="48.19205" lon="6.64842">
        <ele>563.95</ele>
        <time>2017-04-09T09:11:28Z</time>
      </trkpt>
      <trkpt lat="48.19201" lon="6.64828">
        <ele>562.99</ele>
        <time>2017-04-09T09:11:34Z</time>
      </trkpt>
      <trkpt lat="48.19197" lon="6.64815">
        <ele>563.47</ele>
        <time>2017-04-09T09:11:37Z</time>
      </trkpt>
      <trkpt lat="48.1919" lon="6.64801">
        <ele>562.03</ele>
        <time>2017-04-09T09:11:40Z</time>
      </trkpt>
      <trkpt lat="48.19182" lon="6.64791">
        <ele>561.55</ele>
        <time>2017-04-09T09:11:42Z</time>
      </trkpt>
      <trkpt lat="48.19174" lon="6.64781">
        <ele>561.07</ele>
        <time>2017-04-09T09:11:44Z</time>
      </trkpt>
      <trkpt lat="48.19166" lon="6.64769">
        <ele>560.59</ele>
        <time>2017-04-09T09:11:46Z</time>
      </trkpt>
      <trkpt lat="48.19159" lon="6.64754">
        <ele>559.62</ele>
        <time>2017-04-09T09:11:48Z</time>
      </trkpt>
      <trkpt lat="48.19152" lon="6.6474">
        <ele>559.62</ele>
        <time>2017-04-09T09:11:50Z</time>
      </trkpt>
      <trkpt lat="48.19146" lon="6.64724">
        <ele>558.66</ele>
        <time>2017-04-09T09:11:52Z</time>
      </trkpt>
      <trkpt lat="48.19141" lon="6.64709">
        <ele>558.66</ele>
        <time>2017-04-09T09:11:54Z</time>
      </trkpt>
      <trkpt lat="48.19137" lon="6.64696">
        <ele>558.66</ele>
        <time>2017-04-09T09:11:57Z</time>
      </trkpt>
      <trkpt lat="48.19139" lon="6.64682">
        <ele>560.11</ele>
        <time>2017-04-09T09:12:32Z</time>
      </trkpt>
      <trkpt lat="48.1914" lon="6.64666">
        <ele>559.62</ele>
        <time>2017-04-09T09:12:50Z</time>
      </trkpt>
      <trkpt lat="48.1913" lon="6.6467">
        <ele>557.22</ele>
        <time>2017-04-09T09:13:09Z</time>
      </trkpt>
      <trkpt lat="48.19121" lon="6.64665">
        <ele>555.3</ele>
        <time>2017-04-09T09:13:18Z</time>
      </trkpt>
      <trkpt lat="48.19109" lon="6.64671">
        <ele>553.38</ele>
        <time>2017-04-09T09:13:22Z</time>
      </trkpt>
      <trkpt lat="48.19099" lon="6.64683">
        <ele>551.93</ele>
        <time>2017-04-09T09:13:26Z</time>
      </trkpt>
      <trkpt lat="48.19091" lon="6.64697">
        <ele>550.01</ele>
        <time>2017-04-09T09:13:29Z</time>
      </trkpt>
      <trkpt lat="48.1908" lon="6.64708">
        <ele>546.65</ele>
        <time>2017-04-09T09:13:33Z</time>
      </trkpt>
      <trkpt lat="48.19069" lon="6.64719">
        <ele>543.28</ele>
        <time>2017-04-09T09:13:36Z</time>
      </trkpt>
      <trkpt lat="48.19057" lon="6.64729">
        <ele>542.32</ele>
        <time>2017-04-09T09:13:39Z</time>
      </trkpt>
      <trkpt lat="48.19046" lon="6.6474">
        <ele>540.4</ele>
        <time>2017-04-09T09:13:42Z</time>
      </trkpt>
      <trkpt lat="48.19036" lon="6.6475">
        <ele>538.96</ele>
        <time>2017-04-09T09:13:44Z</time>
      </trkpt>
      <trkpt lat="48.19028" lon="6.64762">
        <ele>537.99</ele>
        <time>2017-04-09T09:13:46Z</time>
      </trkpt>
      <trkpt lat="48.19014" lon="6.64778">
        <ele>537.99</ele>
        <time>2017-04-09T09:13:49Z</time>
      </trkpt>
      <trkpt lat="48.19002" lon="6.6479">
        <ele>537.51</ele>
        <time>2017-04-09T09:13:53Z</time>
      </trkpt>
      <trkpt lat="48.18992" lon="6.64808">
        <ele>537.99</ele>
        <time>2017-04-09T09:14:00Z</time>
      </trkpt>
      <trkpt lat="48.18996" lon="6.64826">
        <ele>538.96</ele>
        <time>2017-04-09T09:14:08Z</time>
      </trkpt>
      <trkpt lat="48.19" lon="6.6484">
        <ele>539.92</ele>
        <time>2017-04-09T09:14:13Z</time>
      </trkpt>
      <trkpt lat="48.19006" lon="6.64855">
        <ele>540.4</ele>
        <time>2017-04-09T09:14:19Z</time>
      </trkpt>
      <trkpt lat="48.19011" lon="6.64868">
        <ele>540.88</ele>
        <time>2017-04-09T09:14:24Z</time>
      </trkpt>
      <trkpt lat="48.19015" lon="6.64884">
        <ele>541.84</ele>
        <time>2017-04-09T09:14:28Z</time>
      </trkpt>
      <trkpt lat="48.19019" lon="6.64899">
        <ele>542.32</ele>
        <time>2017-04-09T09:14:32Z</time>
      </trkpt>
      <trkpt lat="48.19022" lon="6.64914">
        <ele>543.28</ele>
        <time>2017-04-09T09:14:36Z</time>
      </trkpt>
      <trkpt lat="48.19025" lon="6.64931">
        <ele>544.24</ele>
        <time>2017-04-09T09:14:40Z</time>
      </trkpt>
      <trkpt lat="48.19027" lon="6.64948">
        <ele>544.72</ele>
        <time>2017-04-09T09:14:44Z</time>
      </trkpt>
      <trkpt lat="48.19028" lon="6.64962">
        <ele>544.72</ele>
        <time>2017-04-09T09:14:47Z</time>
      </trkpt>
      <trkpt lat="48.19031" lon="6.64976">
        <ele>545.2</ele>
        <time>2017-04-09T09:14:50Z</time>
      </trkpt>
      <trkpt lat="48.19031" lon="6.64991">
        <ele>545.2</ele>
        <time>2017-04-09T09:14:53Z</time>
      </trkpt>
      <trkpt lat="48.19031" lon="6.65005">
        <ele>545.69</ele>
        <time>2017-04-09T09:14:56Z</time>
      </trkpt>
      <trkpt lat="48.19032" lon="6.65022">
        <ele>546.17</ele>
        <time>2017-04-09T09:15:00Z</time>
      </trkpt>
      <trkpt lat="48.19035" lon="6.65038">
        <ele>546.65</ele>
        <time>2017-04-09T09:15:04Z</time>
      </trkpt>
      <trkpt lat="48.1904" lon="6.65054">
        <ele>546.65</ele>
        <time>2017-04-09T09:15:08Z</time>
      </trkpt>
      <trkpt lat="48.19047" lon="6.65068">
        <ele>547.13</ele>
        <time>2017-04-09T09:15:11Z</time>
      </trkpt>
      <trkpt lat="48.19056" lon="6.65081">
        <ele>547.61</ele>
        <time>2017-04-09T09:15:14Z</time>
      </trkpt>
      <trkpt lat="48.19065" lon="6.65091">
        <ele>547.61</ele>
        <time>2017-04-09T09:15:17Z</time>
      </trkpt>
      <trkpt lat="48.19076" lon="6.65101">
        <ele>548.09</ele>
        <time>2017-04-09T09:15:20Z</time>
      </trkpt>
      <trkpt lat="48.19086" lon="6.65111">
        <ele>548.57</ele>
        <time>2017-04-09T09:15:23Z</time>
      </trkpt>
      <trkpt lat="48.19094" lon="6.65119">
        <ele>549.05</ele>
        <time>2017-04-09T09:15:26Z</time>
      </trkpt>
      <trkpt lat="48.19103" lon="6.65128">
        <ele>548.57</ele>
        <time>2017-04-09T09:15:29Z</time>
      </trkpt>
      <trkpt lat="48.19112" lon="6.65137">
        <ele>549.53</ele>
        <time>2017-04-09T09:15:32Z</time>
      </trkpt>
      <trkpt lat="48.1912" lon="6.65146">
        <ele>550.01</ele>
        <time>2017-04-09T09:15:35Z</time>
      </trkpt>
      <trkpt lat="48.19128" lon="6.65154">
        <ele>550.97</ele>
        <time>2017-04-09T09:15:38Z</time>
      </trkpt>
      <trkpt lat="48.19135" lon="6.65163">
        <ele>551.45</ele>
        <time>2017-04-09T09:15:41Z</time>
      </trkpt>
      <trkpt lat="48.19143" lon="6.65171">
        <ele>551.93</ele>
        <time>2017-04-09T09:15:44Z</time>
      </trkpt>
      <trkpt lat="48.19151" lon="6.65178">
        <ele>552.41</ele>
        <time>2017-04-09T09:15:47Z</time>
      </trkpt>
      <trkpt lat="48.1916" lon="6.65189">
        <ele>552.9</ele>
        <time>2017-04-09T09:15:51Z</time>
      </trkpt>
      <trkpt lat="48.19168" lon="6.65199">
        <ele>553.86</ele>
        <time>2017-04-09T09:15:55Z</time>
      </trkpt>
      <trkpt lat="48.19178" lon="6.6521">
        <ele>554.34</ele>
        <time>2017-04-09T09:15:59Z</time>
      </trkpt>
      <trkpt lat="48.19186" lon="6.65221">
        <ele>554.34</ele>
        <time>2017-04-09T09:16:03Z</time>
      </trkpt>
      <trkpt lat="48.19196" lon="6.65231">
        <ele>554.82</ele>
        <time>2017-04-09T09:16:07Z</time>
      </trkpt>
      <trkpt lat="48.19205" lon="6.65243">
        <ele>554.82</ele>
        <time>2017-04-09T09:16:11Z</time>
      </trkpt>
      <trkpt lat="48.19213" lon="6.65252">
        <ele>554.82</ele>
        <time>2017-04-09T09:16:14Z</time>
      </trkpt>
      <trkpt lat="48.19221" lon="6.6526">
        <ele>555.78</ele>
        <time>2017-04-09T09:16:17Z</time>
      </trkpt>
      <trkpt lat="48.19232" lon="6.65266">
        <ele>555.78</ele>
        <time>2017-04-09T09:16:21Z</time>
      </trkpt>
      <trkpt lat="48.19243" lon="6.65275">
        <ele>556.74</ele>
        <time>2017-04-09T09:16:25Z</time>
      </trkpt>
      <trkpt lat="48.19254" lon="6.65281">
        <ele>558.18</ele>
        <time>2017-04-09T09:16:29Z</time>
      </trkpt>
      <trkpt lat="48.19264" lon="6.65288">
        <ele>558.18</ele>
        <time>2017-04-09T09:16:33Z</time>
      </trkpt>
      <trkpt lat="48.19274" lon="6.65295">
        <ele>559.14</ele>
        <time>2017-04-09T09:16:37Z</time>
      </trkpt>
      <trkpt lat="48.19284" lon="6.65301">
        <ele>559.14</ele>
        <time>2017-04-09T09:16:41Z</time>
      </trkpt>
      <trkpt lat="48.19294" lon="6.65308">
        <ele>561.07</ele>
        <time>2017-04-09T09:16:45Z</time>
      </trkpt>
      <trkpt lat="48.19305" lon="6.65316">
        <ele>562.03</ele>
        <time>2017-04-09T09:16:49Z</time>
      </trkpt>
      <trkpt lat="48.19314" lon="6.65324">
        <ele>562.51</ele>
        <time>2017-04-09T09:16:53Z</time>
      </trkpt>
      <trkpt lat="48.19313" lon="6.65338">
        <ele>563.47</ele>
        <time>2017-04-09T09:16:58Z</time>
      </trkpt>
      <trkpt lat="48.19305" lon="6.6535">
        <ele>563.95</ele>
        <time>2017-04-09T09:17:02Z</time>
      </trkpt>
      <trkpt lat="48.19299" lon="6.6536">
        <ele>563.95</ele>
        <time>2017-04-09T09:17:05Z</time>
      </trkpt>
      <trkpt lat="48.19291" lon="6.65371">
        <ele>564.43</ele>
        <time>2017-04-09T09:17:08Z</time>
      </trkpt>
      <trkpt lat="48.19283" lon="6.65381">
        <ele>564.43</ele>
        <time>2017-04-09T09:17:11Z</time>
      </trkpt>
      <trkpt lat="48.19275" lon="6.65391">
        <ele>564.43</ele>
        <time>2017-04-09T09:17:14Z</time>
      </trkpt>
      <trkpt lat="48.19266" lon="6.65405">
        <ele>564.91</ele>
        <time>2017-04-09T09:17:17Z</time>
      </trkpt>
      <trkpt lat="48.19256" lon="6.65418">
        <ele>565.39</ele>
        <time>2017-04-09T09:17:20Z</time>
      </trkpt>
      <trkpt lat="48.19247" lon="6.65431">
        <ele>564.91</ele>
        <time>2017-04-09T09:17:23Z</time>
      </trkpt>
      <trkpt lat="48.19237" lon="6.65444">
        <ele>565.39</ele>
        <time>2017-04-09T09:17:26Z</time>
      </trkpt>
      <trkpt lat="48.19228" lon="6.65458">
        <ele>565.39</ele>
        <time>2017-04-09T09:17:29Z</time>
      </trkpt>
      <trkpt lat="48.19219" lon="6.65471">
        <ele>566.35</ele>
        <time>2017-04-09T09:17:32Z</time>
      </trkpt>
      <trkpt lat="48.1921" lon="6.65484">
        <ele>566.35</ele>
        <time>2017-04-09T09:17:35Z</time>
      </trkpt>
      <trkpt lat="48.19202" lon="6.65497">
        <ele>566.83</ele>
        <time>2017-04-09T09:17:38Z</time>
      </trkpt>
      <trkpt lat="48.19193" lon="6.65509">
        <ele>567.32</ele>
        <time>2017-04-09T09:17:41Z</time>
      </trkpt>
      <trkpt lat="48.19184" lon="6.65521">
        <ele>567.8</ele>
        <time>2017-04-09T09:17:44Z</time>
      </trkpt>
      <trkpt lat="48.19176" lon="6.65533">
        <ele>568.76</ele>
        <time>2017-04-09T09:17:47Z</time>
      </trkpt>
      <trkpt lat="48.19168" lon="6.65546">
        <ele>568.76</ele>
        <time>2017-04-09T09:17:50Z</time>
      </trkpt>
      <trkpt lat="48.19159" lon="6.65557">
        <ele>568.76</ele>
        <time>2017-04-09T09:17:53Z</time>
      </trkpt>
      <trkpt lat="48.19151" lon="6.65569">
        <ele>569.24</ele>
        <time>2017-04-09T09:17:56Z</time>
      </trkpt>
      <trkpt lat="48.19143" lon="6.65581">
        <ele>569.72</ele>
        <time>2017-04-09T09:17:59Z</time>
      </trkpt>
      <trkpt lat="48.19135" lon="6.65593">
        <ele>570.2</ele>
        <time>2017-04-09T09:18:02Z</time>
      </trkpt>
      <trkpt lat="48.19126" lon="6.65605">
        <ele>570.68</ele>
        <time>2017-04-09T09:18:05Z</time>
      </trkpt>
      <trkpt lat="48.19119" lon="6.65616">
        <ele>571.64</ele>
        <time>2017-04-09T09:18:08Z</time>
      </trkpt>
      <trkpt lat="48.19111" lon="6.65628">
        <ele>571.64</ele>
        <time>2017-04-09T09:18:11Z</time>
      </trkpt>
      <trkpt lat="48.19103" lon="6.65639">
        <ele>572.6</ele>
        <time>2017-04-09T09:18:14Z</time>
      </trkpt>
      <trkpt lat="48.19094" lon="6.6565">
        <ele>572.6</ele>
        <time>2017-04-09T09:18:17Z</time>
      </trkpt>
      <trkpt lat="48.19086" lon="6.65663">
        <ele>572.6</ele>
        <time>2017-04-09T09:18:20Z</time>
      </trkpt>
      <trkpt lat="48.19079" lon="6.65674">
        <ele>573.08</ele>
        <time>2017-04-09T09:18:23Z</time>
      </trkpt>
      <trkpt lat="48.19071" lon="6.65686">
        <ele>573.56</ele>
        <time>2017-04-09T09:18:26Z</time>
      </trkpt>
      <trkpt lat="48.19062" lon="6.65698">
        <ele>573.08</ele>
        <time>2017-04-09T09:18:29Z</time>
      </trkpt>
      <trkpt lat="48.19054" lon="6.65709">
        <ele>573.08</ele>
        <time>2017-04-09T09:18:32Z</time>
      </trkpt>
      <trkpt lat="48.19046" lon="6.65721">
        <ele>573.56</ele>
        <time>2017-04-09T09:18:35Z</time>
      </trkpt>
      <trkpt lat="48.19037" lon="6.65735">
        <ele>574.04</ele>
        <time>2017-04-09T09:18:38Z</time>
      </trkpt>
      <trkpt lat="48.1903" lon="6.65744">
        <ele>573.56</ele>
        <time>2017-04-09T09:18:40Z</time>
      </trkpt>
      <trkpt lat="48.19021" lon="6.65757">
        <ele>573.56</ele>
        <time>2017-04-09T09:18:43Z</time>
      </trkpt>
      <trkpt lat="48.19013" lon="6.65769">
        <ele>574.04</ele>
        <time>2017-04-09T09:18:46Z</time>
      </trkpt>
      <trkpt lat="48.19004" lon="6.6578">
        <ele>574.04</ele>
        <time>2017-04-09T09:18:50Z</time>
      </trkpt>
      <trkpt lat="48.19" lon="6.65792">
        <ele>573.56</ele>
        <time>2017-04-09T09:18:53Z</time>
      </trkpt>
      <trkpt lat="48.19001" lon="6.65806">
        <ele>573.56</ele>
        <time>2017-04-09T09:18:57Z</time>
      </trkpt>
      <trkpt lat="48.18998" lon="6.65822">
        <ele>573.56</ele>
        <time>2017-04-09T09:19:01Z</time>
      </trkpt>
      <trkpt lat="48.18992" lon="6.6584">
        <ele>572.12</ele>
        <time>2017-04-09T09:19:08Z</time>
      </trkpt>
      <trkpt lat="48.18986" lon="6.65854">
        <ele>572.12</ele>
        <time>2017-04-09T09:19:11Z</time>
      </trkpt>
      <trkpt lat="48.18992" lon="6.65869">
        <ele>572.12</ele>
        <time>2017-04-09T09:19:13Z</time>
      </trkpt>
      <trkpt lat="48.18999" lon="6.65885">
        <ele>572.12</ele>
        <time>2017-04-09T09:19:16Z</time>
      </trkpt>
      <trkpt lat="48.19005" lon="6.65903">
        <ele>572.12</ele>
        <time>2017-04-09T09:19:19Z</time>
      </trkpt>
      <trkpt lat="48.19012" lon="6.65915">
        <ele>571.64</ele>
        <time>2017-04-09T09:19:21Z</time>
      </trkpt>
      <trkpt lat="48.1902" lon="6.65931">
        <ele>570.68</ele>
        <time>2017-04-09T09:19:24Z</time>
      </trkpt>
      <trkpt lat="48.19028" lon="6.65943">
        <ele>568.28</ele>
        <time>2017-04-09T09:19:28Z</time>
      </trkpt>
      <trkpt lat="48.19035" lon="6.6596">
        <ele>565.87</ele>
        <time>2017-04-09T09:19:36Z</time>
      </trkpt>
      <trkpt lat="48.19045" lon="6.65974">
        <ele>560.59</ele>
        <time>2017-04-09T09:19:41Z</time>
      </trkpt>
      <trkpt lat="48.1905" lon="6.65995">
        <ele>558.66</ele>
        <time>2017-04-09T09:19:44Z</time>
      </trkpt>
      <trkpt lat="48.19057" lon="6.66008">
        <ele>557.7</ele>
        <time>2017-04-09T09:19:46Z</time>
      </trkpt>
      <trkpt lat="48.19064" lon="6.66019">
        <ele>555.78</ele>
        <time>2017-04-09T09:19:48Z</time>
      </trkpt>
      <trkpt lat="48.19074" lon="6.66029">
        <ele>554.34</ele>
        <time>2017-04-09T09:19:50Z</time>
      </trkpt>
      <trkpt lat="48.19085" lon="6.66039">
        <ele>552.9</ele>
        <time>2017-04-09T09:19:52Z</time>
      </trkpt>
      <trkpt lat="48.19095" lon="6.66051">
        <ele>552.41</ele>
        <time>2017-04-09T09:19:54Z</time>
      </trkpt>
      <trkpt lat="48.19105" lon="6.66063">
        <ele>550.97</ele>
        <time>2017-04-09T09:19:56Z</time>
      </trkpt>
      <trkpt lat="48.19112" lon="6.66072">
        <ele>550.01</ele>
        <time>2017-04-09T09:19:58Z</time>
      </trkpt>
      <trkpt lat="48.19118" lon="6.66083">
        <ele>549.05</ele>
        <time>2017-04-09T09:20:00Z</time>
      </trkpt>
      <trkpt lat="48.19127" lon="6.66098">
        <ele>547.61</ele>
        <time>2017-04-09T09:20:03Z</time>
      </trkpt>
      <trkpt lat="48.19134" lon="6.66109">
        <ele>546.65</ele>
        <time>2017-04-09T09:20:05Z</time>
      </trkpt>
      <trkpt lat="48.1914" lon="6.66122">
        <ele>546.17</ele>
        <time>2017-04-09T09:20:07Z</time>
      </trkpt>
      <trkpt lat="48.19146" lon="6.66133">
        <ele>544.72</ele>
        <time>2017-04-09T09:20:09Z</time>
      </trkpt>
      <trkpt lat="48.19154" lon="6.66148">
        <ele>543.76</ele>
        <time>2017-04-09T09:20:12Z</time>
      </trkpt>
      <trkpt lat="48.1916" lon="6.66162">
        <ele>542.32</ele>
        <time>2017-04-09T09:20:15Z</time>
      </trkpt>
      <trkpt lat="48.19165" lon="6.66181">
        <ele>540.4</ele>
        <time>2017-04-09T09:20:18Z</time>
      </trkpt>
      <trkpt lat="48.19166" lon="6.66195">
        <ele>538.96</ele>
        <time>2017-04-09T09:20:20Z</time>
      </trkpt>
      <trkpt lat="48.19166" lon="6.66211">
        <ele>537.03</ele>
        <time>2017-04-09T09:20:22Z</time>
      </trkpt>
      <trkpt lat="48.19163" lon="6.66227">
        <ele>536.55</ele>
        <time>2017-04-09T09:20:24Z</time>
      </trkpt>
      <trkpt lat="48.19159" lon="6.66241">
        <ele>535.11</ele>
        <time>2017-04-09T09:20:26Z</time>
      </trkpt>
      <trkpt lat="48.19158" lon="6.66256">
        <ele>534.15</ele>
        <time>2017-04-09T09:20:29Z</time>
      </trkpt>
      <trkpt lat="48.1916" lon="6.66273">
        <ele>533.19</ele>
        <time>2017-04-09T09:20:36Z</time>
      </trkpt>
      <trkpt lat="48.1917" lon="6.66282">
        <ele>532.23</ele>
        <time>2017-04-09T09:20:40Z</time>
      </trkpt>
      <trkpt lat="48.1918" lon="6.66297">
        <ele>532.23</ele>
        <time>2017-04-09T09:20:43Z</time>
      </trkpt>
      <trkpt lat="48.19188" lon="6.66309">
        <ele>530.79</ele>
        <time>2017-04-09T09:20:45Z</time>
      </trkpt>
      <trkpt lat="48.19195" lon="6.66323">
        <ele>529.82</ele>
        <time>2017-04-09T09:20:47Z</time>
      </trkpt>
      <trkpt lat="48.19201" lon="6.66339">
        <ele>528.86</ele>
        <time>2017-04-09T09:20:49Z</time>
      </trkpt>
      <trkpt lat="48.19205" lon="6.66352">
        <ele>527.9</ele>
        <time>2017-04-09T09:20:51Z</time>
      </trkpt>
      <trkpt lat="48.19207" lon="6.6637">
        <ele>526.94</ele>
        <time>2017-04-09T09:20:54Z</time>
      </trkpt>
      <trkpt lat="48.19204" lon="6.66388">
        <ele>525.98</ele>
        <time>2017-04-09T09:20:56Z</time>
      </trkpt>
      <trkpt lat="48.19202" lon="6.66409">
        <ele>524.54</ele>
        <time>2017-04-09T09:20:58Z</time>
      </trkpt>
      <trkpt lat="48.19198" lon="6.66429">
        <ele>523.58</ele>
        <time>2017-04-09T09:21:00Z</time>
      </trkpt>
      <trkpt lat="48.19194" lon="6.66448">
        <ele>522.61</ele>
        <time>2017-04-09T09:21:02Z</time>
      </trkpt>
      <trkpt lat="48.19191" lon="6.66464">
        <ele>522.61</ele>
        <time>2017-04-09T09:21:04Z</time>
      </trkpt>
      <trkpt lat="48.19184" lon="6.66477">
        <ele>520.69</ele>
        <time>2017-04-09T09:21:06Z</time>
      </trkpt>
      <trkpt lat="48.19174" lon="6.66488">
        <ele>519.25</ele>
        <time>2017-04-09T09:21:08Z</time>
      </trkpt>
      <trkpt lat="48.19162" lon="6.66502">
        <ele>517.81</ele>
        <time>2017-04-09T09:21:10Z</time>
      </trkpt>
      <trkpt lat="48.19148" lon="6.66517">
        <ele>516.37</ele>
        <time>2017-04-09T09:21:12Z</time>
      </trkpt>
      <trkpt lat="48.19138" lon="6.66532">
        <ele>514.44</ele>
        <time>2017-04-09T09:21:14Z</time>
      </trkpt>
      <trkpt lat="48.19128" lon="6.66549">
        <ele>512.04</ele>
        <time>2017-04-09T09:21:16Z</time>
      </trkpt>
      <trkpt lat="48.19119" lon="6.66564">
        <ele>511.56</ele>
        <time>2017-04-09T09:21:18Z</time>
      </trkpt>
      <trkpt lat="48.19111" lon="6.6658">
        <ele>510.12</ele>
        <time>2017-04-09T09:21:20Z</time>
      </trkpt>
      <trkpt lat="48.19102" lon="6.66595">
        <ele>509.64</ele>
        <time>2017-04-09T09:21:22Z</time>
      </trkpt>
      <trkpt lat="48.19094" lon="6.66607">
        <ele>508.19</ele>
        <time>2017-04-09T09:21:24Z</time>
      </trkpt>
      <trkpt lat="48.19083" lon="6.66619">
        <ele>506.75</ele>
        <time>2017-04-09T09:21:26Z</time>
      </trkpt>
      <trkpt lat="48.19072" lon="6.66629">
        <ele>504.83</ele>
        <time>2017-04-09T09:21:28Z</time>
      </trkpt>
      <trkpt lat="48.19062" lon="6.66638">
        <ele>502.43</ele>
        <time>2017-04-09T09:21:30Z</time>
      </trkpt>
      <trkpt lat="48.19054" lon="6.66648">
        <ele>500.98</ele>
        <time>2017-04-09T09:21:32Z</time>
      </trkpt>
      <trkpt lat="48.19048" lon="6.6666">
        <ele>499.06</ele>
        <time>2017-04-09T09:21:34Z</time>
      </trkpt>
      <trkpt lat="48.19044" lon="6.66677">
        <ele>498.1</ele>
        <time>2017-04-09T09:21:36Z</time>
      </trkpt>
      <trkpt lat="48.19045" lon="6.66696">
        <ele>496.66</ele>
        <time>2017-04-09T09:21:38Z</time>
      </trkpt>
      <trkpt lat="48.19047" lon="6.66713">
        <ele>496.18</ele>
        <time>2017-04-09T09:21:42Z</time>
      </trkpt>
      <trkpt lat="48.19055" lon="6.66708">
        <ele>494.74</ele>
        <time>2017-04-09T09:23:06Z</time>
      </trkpt>
      <trkpt lat="48.19065" lon="6.66695">
        <ele>493.77</ele>
        <time>2017-04-09T09:23:10Z</time>
      </trkpt>
      <trkpt lat="48.19073" lon="6.66687">
        <ele>493.29</ele>
        <time>2017-04-09T09:23:12Z</time>
      </trkpt>
      <trkpt lat="48.19082" lon="6.6668">
        <ele>493.29</ele>
        <time>2017-04-09T09:23:15Z</time>
      </trkpt>
      <trkpt lat="48.19092" lon="6.66677">
        <ele>493.29</ele>
        <time>2017-04-09T09:23:17Z</time>
      </trkpt>
      <trkpt lat="48.19102" lon="6.66674">
        <ele>493.77</ele>
        <time>2017-04-09T09:23:19Z</time>
      </trkpt>
      <trkpt lat="48.19112" lon="6.66671">
        <ele>493.77</ele>
        <time>2017-04-09T09:23:21Z</time>
      </trkpt>
      <trkpt lat="48.19126" lon="6.66667">
        <ele>494.74</ele>
        <time>2017-04-09T09:23:24Z</time>
      </trkpt>
      <trkpt lat="48.19139" lon="6.66666">
        <ele>496.18</ele>
        <time>2017-04-09T09:23:27Z</time>
      </trkpt>
      <trkpt lat="48.19151" lon="6.66666">
        <ele>498.1</ele>
        <time>2017-04-09T09:23:30Z</time>
      </trkpt>
      <trkpt lat="48.19165" lon="6.66667">
        <ele>499.54</ele>
        <time>2017-04-09T09:23:35Z</time>
      </trkpt>
      <trkpt lat="48.19177" lon="6.66669">
        <ele>499.06</ele>
        <time>2017-04-09T09:23:40Z</time>
      </trkpt>
      <trkpt lat="48.19187" lon="6.66668">
        <ele>498.58</ele>
        <time>2017-04-09T09:23:43Z</time>
      </trkpt>
      <trkpt lat="48.19198" lon="6.66662">
        <ele>498.1</ele>
        <time>2017-04-09T09:23:46Z</time>
      </trkpt>
      <trkpt lat="48.19211" lon="6.66653">
        <ele>497.14</ele>
        <time>2017-04-09T09:23:49Z</time>
      </trkpt>
      <trkpt lat="48.19219" lon="6.6664">
        <ele>496.18</ele>
        <time>2017-04-09T09:23:51Z</time>
      </trkpt>
      <trkpt lat="48.19227" lon="6.66621">
        <ele>495.7</ele>
        <time>2017-04-09T09:23:53Z</time>
      </trkpt>
      <trkpt lat="48.19234" lon="6.66603">
        <ele>495.7</ele>
        <time>2017-04-09T09:23:55Z</time>
      </trkpt>
      <trkpt lat="48.19242" lon="6.66586">
        <ele>495.22</ele>
        <time>2017-04-09T09:23:57Z</time>
      </trkpt>
      <trkpt lat="48.19252" lon="6.6657">
        <ele>495.22</ele>
        <time>2017-04-09T09:23:59Z</time>
      </trkpt>
      <trkpt lat="48.1926" lon="6.66558">
        <ele>496.18</ele>
        <time>2017-04-09T09:24:01Z</time>
      </trkpt>
      <trkpt lat="48.1927" lon="6.66544">
        <ele>496.66</ele>
        <time>2017-04-09T09:24:04Z</time>
      </trkpt>
      <trkpt lat="48.19281" lon="6.66527">
        <ele>496.18</ele>
        <time>2017-04-09T09:24:07Z</time>
      </trkpt>
      <trkpt lat="48.19286" lon="6.66513">
        <ele>495.7</ele>
        <time>2017-04-09T09:24:09Z</time>
      </trkpt>
      <trkpt lat="48.19289" lon="6.66498">
        <ele>496.18</ele>
        <time>2017-04-09T09:24:11Z</time>
      </trkpt>
      <trkpt lat="48.19293" lon="6.66482">
        <ele>496.66</ele>
        <time>2017-04-09T09:24:13Z</time>
      </trkpt>
      <trkpt lat="48.19296" lon="6.66466">
        <ele>496.18</ele>
        <time>2017-04-09T09:24:15Z</time>
      </trkpt>
      <trkpt lat="48.19298" lon="6.6645">
        <ele>495.7</ele>
        <time>2017-04-09T09:24:17Z</time>
      </trkpt>
      <trkpt lat="48.193" lon="6.66434">
        <ele>496.18</ele>
        <time>2017-04-09T09:24:19Z</time>
      </trkpt>
      <trkpt lat="48.19303" lon="6.66418">
        <ele>496.18</ele>
        <time>2017-04-09T09:24:21Z</time>
      </trkpt>
      <trkpt lat="48.19306" lon="6.66404">
        <ele>496.66</ele>
        <time>2017-04-09T09:24:23Z</time>
      </trkpt>
      <trkpt lat="48.19309" lon="6.66383">
        <ele>497.14</ele>
        <time>2017-04-09T09:24:26Z</time>
      </trkpt>
      <trkpt lat="48.19312" lon="6.66363">
        <ele>497.62</ele>
        <time>2017-04-09T09:24:29Z</time>
      </trkpt>
      <trkpt lat="48.19315" lon="6.66346">
        <ele>498.58</ele>
        <time>2017-04-09T09:24:32Z</time>
      </trkpt>
      <trkpt lat="48.19319" lon="6.66329">
        <ele>499.06</ele>
        <time>2017-04-09T09:24:35Z</time>
      </trkpt>
      <trkpt lat="48.19322" lon="6.66313">
        <ele>500.02</ele>
        <time>2017-04-09T09:24:38Z</time>
      </trkpt>
      <trkpt lat="48.19324" lon="6.66295">
        <ele>500.02</ele>
        <time>2017-04-09T09:24:42Z</time>
      </trkpt>
      <trkpt lat="48.19325" lon="6.66278">
        <ele>500.5</ele>
        <time>2017-04-09T09:24:45Z</time>
      </trkpt>
      <trkpt lat="48.19326" lon="6.66257">
        <ele>500.5</ele>
        <time>2017-04-09T09:24:49Z</time>
      </trkpt>
      <trkpt lat="48.19324" lon="6.6624">
        <ele>500.5</ele>
        <time>2017-04-09T09:24:52Z</time>
      </trkpt>
      <trkpt lat="48.19322" lon="6.66223">
        <ele>500.5</ele>
        <time>2017-04-09T09:24:55Z</time>
      </trkpt>
      <trkpt lat="48.19318" lon="6.66203">
        <ele>499.54</ele>
        <time>2017-04-09T09:24:58Z</time>
      </trkpt>
      <trkpt lat="48.19315" lon="6.66183">
        <ele>500.5</ele>
        <time>2017-04-09T09:25:01Z</time>
      </trkpt>
      <trkpt lat="48.19311" lon="6.66163">
        <ele>501.46</ele>
        <time>2017-04-09T09:25:05Z</time>
      </trkpt>
      <trkpt lat="48.19306" lon="6.66147">
        <ele>502.43</ele>
        <time>2017-04-09T09:25:09Z</time>
      </trkpt>
      <trkpt lat="48.19299" lon="6.66129">
        <ele>502.43</ele>
        <time>2017-04-09T09:25:13Z</time>
      </trkpt>
      <trkpt lat="48.19296" lon="6.66107">
        <ele>502.43</ele>
        <time>2017-04-09T09:25:17Z</time>
      </trkpt>
      <trkpt lat="48.19288" lon="6.66093">
        <ele>503.39</ele>
        <time>2017-04-09T09:25:21Z</time>
      </trkpt>
      <trkpt lat="48.19277" lon="6.66078">
        <ele>504.83</ele>
        <time>2017-04-09T09:25:27Z</time>
      </trkpt>
      <trkpt lat="48.19264" lon="6.66056">
        <ele>506.75</ele>
        <time>2017-04-09T09:25:37Z</time>
      </trkpt>
      <trkpt lat="48.19251" lon="6.66045">
        <ele>507.71</ele>
        <time>2017-04-09T09:25:44Z</time>
      </trkpt>
      <trkpt lat="48.19234" lon="6.6604">
        <ele>509.16</ele>
        <time>2017-04-09T09:25:55Z</time>
      </trkpt>
      <trkpt lat="48.19222" lon="6.66033">
        <ele>510.6</ele>
        <time>2017-04-09T09:26:03Z</time>
      </trkpt>
      <trkpt lat="48.1921" lon="6.66025">
        <ele>511.56</ele>
        <time>2017-04-09T09:26:11Z</time>
      </trkpt>
      <trkpt lat="48.19199" lon="6.66016">
        <ele>513.96</ele>
        <time>2017-04-09T09:26:24Z</time>
      </trkpt>
      <trkpt lat="48.19192" lon="6.66001">
        <ele>516.37</ele>
        <time>2017-04-09T09:26:37Z</time>
      </trkpt>
      <trkpt lat="48.19182" lon="6.65983">
        <ele>517.81</ele>
        <time>2017-04-09T09:26:51Z</time>
      </trkpt>
      <trkpt lat="48.1917" lon="6.65968">
        <ele>520.69</ele>
        <time>2017-04-09T09:27:02Z</time>
      </trkpt>
      <trkpt lat="48.19169" lon="6.65949">
        <ele>522.61</ele>
        <time>2017-04-09T09:27:13Z</time>
      </trkpt>
      <trkpt lat="48.19168" lon="6.65929">
        <ele>524.54</ele>
        <time>2017-04-09T09:27:25Z</time>
      </trkpt>
      <trkpt lat="48.19174" lon="6.65917">
        <ele>525.98</ele>
        <time>2017-04-09T09:27:34Z</time>
      </trkpt>
      <trkpt lat="48.19185" lon="6.65917">
        <ele>525.5</ele>
        <time>2017-04-09T09:27:40Z</time>
      </trkpt>
      <trkpt lat="48.19198" lon="6.65914">
        <ele>525.98</ele>
        <time>2017-04-09T09:27:45Z</time>
      </trkpt>
      <trkpt lat="48.19207" lon="6.65913">
        <ele>525.98</ele>
        <time>2017-04-09T09:27:48Z</time>
      </trkpt>
      <trkpt lat="48.19217" lon="6.65911">
        <ele>525.98</ele>
        <time>2017-04-09T09:27:52Z</time>
      </trkpt>
      <trkpt lat="48.19227" lon="6.65909">
        <ele>526.94</ele>
        <time>2017-04-09T09:27:56Z</time>
      </trkpt>
      <trkpt lat="48.19237" lon="6.65907">
        <ele>526.46</ele>
        <time>2017-04-09T09:28:00Z</time>
      </trkpt>
      <trkpt lat="48.19247" lon="6.65906">
        <ele>526.94</ele>
        <time>2017-04-09T09:28:03Z</time>
      </trkpt>
      <trkpt lat="48.1926" lon="6.65904">
        <ele>525.98</ele>
        <time>2017-04-09T09:28:07Z</time>
      </trkpt>
      <trkpt lat="48.19275" lon="6.65903">
        <ele>525.98</ele>
        <time>2017-04-09T09:28:10Z</time>
      </trkpt>
      <trkpt lat="48.19289" lon="6.65903">
        <ele>526.46</ele>
        <time>2017-04-09T09:28:13Z</time>
      </trkpt>
      <trkpt lat="48.19302" lon="6.65904">
        <ele>526.94</ele>
        <time>2017-04-09T09:28:16Z</time>
      </trkpt>
      <trkpt lat="48.19314" lon="6.65906">
        <ele>527.42</ele>
        <time>2017-04-09T09:28:19Z</time>
      </trkpt>
      <trkpt lat="48.19325" lon="6.65908">
        <ele>528.86</ele>
        <time>2017-04-09T09:28:23Z</time>
      </trkpt>
      <trkpt lat="48.19337" lon="6.65905">
        <ele>528.86</ele>
        <time>2017-04-09T09:28:27Z</time>
      </trkpt>
      <trkpt lat="48.19348" lon="6.65904">
        <ele>527.9</ele>
        <time>2017-04-09T09:28:30Z</time>
      </trkpt>
      <trkpt lat="48.19361" lon="6.65903">
        <ele>525.98</ele>
        <time>2017-04-09T09:28:33Z</time>
      </trkpt>
      <trkpt lat="48.19372" lon="6.659">
        <ele>525.02</ele>
        <time>2017-04-09T09:28:35Z</time>
      </trkpt>
      <trkpt lat="48.19385" lon="6.65898">
        <ele>524.06</ele>
        <time>2017-04-09T09:28:37Z</time>
      </trkpt>
      <trkpt lat="48.19399" lon="6.65896">
        <ele>524.06</ele>
        <time>2017-04-09T09:28:39Z</time>
      </trkpt>
      <trkpt lat="48.19411" lon="6.65886">
        <ele>523.09</ele>
        <time>2017-04-09T09:28:41Z</time>
      </trkpt>
      <trkpt lat="48.1942" lon="6.6587">
        <ele>522.61</ele>
        <time>2017-04-09T09:28:43Z</time>
      </trkpt>
      <trkpt lat="48.19428" lon="6.65853">
        <ele>521.17</ele>
        <time>2017-04-09T09:28:45Z</time>
      </trkpt>
      <trkpt lat="48.19438" lon="6.65838">
        <ele>520.69</ele>
        <time>2017-04-09T09:28:47Z</time>
      </trkpt>
      <trkpt lat="48.19447" lon="6.65825">
        <ele>519.73</ele>
        <time>2017-04-09T09:28:49Z</time>
      </trkpt>
      <trkpt lat="48.19456" lon="6.6581">
        <ele>519.25</ele>
        <time>2017-04-09T09:28:51Z</time>
      </trkpt>
      <trkpt lat="48.19468" lon="6.65796">
        <ele>518.29</ele>
        <time>2017-04-09T09:28:53Z</time>
      </trkpt>
      <trkpt lat="48.19479" lon="6.6578">
        <ele>517.33</ele>
        <time>2017-04-09T09:28:55Z</time>
      </trkpt>
      <trkpt lat="48.19492" lon="6.65764">
        <ele>517.81</ele>
        <time>2017-04-09T09:28:57Z</time>
      </trkpt>
      <trkpt lat="48.19505" lon="6.65752">
        <ele>517.81</ele>
        <time>2017-04-09T09:28:59Z</time>
      </trkpt>
      <trkpt lat="48.19515" lon="6.6574">
        <ele>518.29</ele>
        <time>2017-04-09T09:29:01Z</time>
      </trkpt>
      <trkpt lat="48.19524" lon="6.65727">
        <ele>519.25</ele>
        <time>2017-04-09T09:29:03Z</time>
      </trkpt>
      <trkpt lat="48.19531" lon="6.65714">
        <ele>519.73</ele>
        <time>2017-04-09T09:29:05Z</time>
      </trkpt>
      <trkpt lat="48.19539" lon="6.65695">
        <ele>520.69</ele>
        <time>2017-04-09T09:29:08Z</time>
      </trkpt>
      <trkpt lat="48.19545" lon="6.65676">
        <ele>520.21</ele>
        <time>2017-04-09T09:29:11Z</time>
      </trkpt>
      <trkpt lat="48.1955" lon="6.65659">
        <ele>521.17</ele>
        <time>2017-04-09T09:29:14Z</time>
      </trkpt>
      <trkpt lat="48.19556" lon="6.65645">
        <ele>522.13</ele>
        <time>2017-04-09T09:29:17Z</time>
      </trkpt>
      <trkpt lat="48.19561" lon="6.65631">
        <ele>522.61</ele>
        <time>2017-04-09T09:29:22Z</time>
      </trkpt>
      <trkpt lat="48.19568" lon="6.65615">
        <ele>524.54</ele>
        <time>2017-04-09T09:29:33Z</time>
      </trkpt>
      <trkpt lat="48.19584" lon="6.65619">
        <ele>526.94</ele>
        <time>2017-04-09T09:29:44Z</time>
      </trkpt>
      <trkpt lat="48.19599" lon="6.65629">
        <ele>527.9</ele>
        <time>2017-04-09T09:29:50Z</time>
      </trkpt>
      <trkpt lat="48.19612" lon="6.65639">
        <ele>528.86</ele>
        <time>2017-04-09T09:29:58Z</time>
      </trkpt>
      <trkpt lat="48.19627" lon="6.6566">
        <ele>529.34</ele>
        <time>2017-04-09T09:30:06Z</time>
      </trkpt>
      <trkpt lat="48.19629" lon="6.65679">
        <ele>528.38</ele>
        <time>2017-04-09T09:30:10Z</time>
      </trkpt>
      <trkpt lat="48.19628" lon="6.65696">
        <ele>527.9</ele>
        <time>2017-04-09T09:30:13Z</time>
      </trkpt>
      <trkpt lat="48.19627" lon="6.65715">
        <ele>527.42</ele>
        <time>2017-04-09T09:30:16Z</time>
      </trkpt>
      <trkpt lat="48.19624" lon="6.6573">
        <ele>526.94</ele>
        <time>2017-04-09T09:30:18Z</time>
      </trkpt>
      <trkpt lat="48.1962" lon="6.6575">
        <ele>526.94</ele>
        <time>2017-04-09T09:30:21Z</time>
      </trkpt>
      <trkpt lat="48.19618" lon="6.65766">
        <ele>526.46</ele>
        <time>2017-04-09T09:30:23Z</time>
      </trkpt>
      <trkpt lat="48.19616" lon="6.65784">
        <ele>525.02</ele>
        <time>2017-04-09T09:30:25Z</time>
      </trkpt>
      <trkpt lat="48.19614" lon="6.65804">
        <ele>524.54</ele>
        <time>2017-04-09T09:30:27Z</time>
      </trkpt>
      <trkpt lat="48.19614" lon="6.65823">
        <ele>523.09</ele>
        <time>2017-04-09T09:30:29Z</time>
      </trkpt>
      <trkpt lat="48.19613" lon="6.65844">
        <ele>522.61</ele>
        <time>2017-04-09T09:30:31Z</time>
      </trkpt>
      <trkpt lat="48.19613" lon="6.65867">
        <ele>520.69</ele>
        <time>2017-04-09T09:30:33Z</time>
      </trkpt>
      <trkpt lat="48.19613" lon="6.65893">
        <ele>518.29</ele>
        <time>2017-04-09T09:30:35Z</time>
      </trkpt>
      <trkpt lat="48.19612" lon="6.65907">
        <ele>517.81</ele>
        <time>2017-04-09T09:30:36Z</time>
      </trkpt>
      <trkpt lat="48.19612" lon="6.65922">
        <ele>515.88</ele>
        <time>2017-04-09T09:30:37Z</time>
      </trkpt>
      <trkpt lat="48.19611" lon="6.65937">
        <ele>513.96</ele>
        <time>2017-04-09T09:30:38Z</time>
      </trkpt>
      <trkpt lat="48.19611" lon="6.65953">
        <ele>513</ele>
        <time>2017-04-09T09:30:39Z</time>
      </trkpt>
      <trkpt lat="48.19611" lon="6.6597">
        <ele>512.04</ele>
        <time>2017-04-09T09:30:40Z</time>
      </trkpt>
      <trkpt lat="48.19612" lon="6.65986">
        <ele>511.08</ele>
        <time>2017-04-09T09:30:41Z</time>
      </trkpt>
      <trkpt lat="48.19614" lon="6.66002">
        <ele>510.6</ele>
        <time>2017-04-09T09:30:42Z</time>
      </trkpt>
      <trkpt lat="48.19616" lon="6.66018">
        <ele>509.64</ele>
        <time>2017-04-09T09:30:43Z</time>
      </trkpt>
      <trkpt lat="48.19618" lon="6.66033">
        <ele>509.16</ele>
        <time>2017-04-09T09:30:44Z</time>
      </trkpt>
      <trkpt lat="48.19621" lon="6.66047">
        <ele>508.19</ele>
        <time>2017-04-09T09:30:45Z</time>
      </trkpt>
      <trkpt lat="48.19623" lon="6.66061">
        <ele>507.71</ele>
        <time>2017-04-09T09:30:46Z</time>
      </trkpt>
      <trkpt lat="48.19625" lon="6.66076">
        <ele>507.71</ele>
        <time>2017-04-09T09:30:47Z</time>
      </trkpt>
      <trkpt lat="48.19626" lon="6.66092">
        <ele>506.27</ele>
        <time>2017-04-09T09:30:48Z</time>
      </trkpt>
      <trkpt lat="48.19628" lon="6.66107">
        <ele>504.83</ele>
        <time>2017-04-09T09:30:49Z</time>
      </trkpt>
      <trkpt lat="48.19629" lon="6.66122">
        <ele>504.83</ele>
        <time>2017-04-09T09:30:50Z</time>
      </trkpt>
      <trkpt lat="48.19631" lon="6.66138">
        <ele>504.35</ele>
        <time>2017-04-09T09:30:51Z</time>
      </trkpt>
      <trkpt lat="48.19633" lon="6.66154">
        <ele>503.39</ele>
        <time>2017-04-09T09:30:52Z</time>
      </trkpt>
      <trkpt lat="48.19635" lon="6.66169">
        <ele>502.91</ele>
        <time>2017-04-09T09:30:53Z</time>
      </trkpt>
      <trkpt lat="48.19636" lon="6.66183">
        <ele>501.95</ele>
        <time>2017-04-09T09:30:54Z</time>
      </trkpt>
      <trkpt lat="48.19637" lon="6.66197">
        <ele>501.46</ele>
        <time>2017-04-09T09:30:55Z</time>
      </trkpt>
      <trkpt lat="48.19637" lon="6.66211">
        <ele>500.02</ele>
        <time>2017-04-09T09:30:56Z</time>
      </trkpt>
      <trkpt lat="48.19636" lon="6.66238">
        <ele>499.06</ele>
        <time>2017-04-09T09:30:58Z</time>
      </trkpt>
      <trkpt lat="48.19635" lon="6.66264">
        <ele>498.1</ele>
        <time>2017-04-09T09:31:00Z</time>
      </trkpt>
      <trkpt lat="48.19633" lon="6.66286">
        <ele>497.62</ele>
        <time>2017-04-09T09:31:02Z</time>
      </trkpt>
      <trkpt lat="48.19631" lon="6.66301">
        <ele>498.1</ele>
        <time>2017-04-09T09:31:07Z</time>
      </trkpt>
      <trkpt lat="48.19643" lon="6.66301">
        <ele>498.58</ele>
        <time>2017-04-09T09:31:16Z</time>
      </trkpt>
      <trkpt lat="48.19655" lon="6.66303">
        <ele>500.5</ele>
        <time>2017-04-09T09:31:24Z</time>
      </trkpt>
      <trkpt lat="48.19659" lon="6.66322">
        <ele>500.5</ele>
        <time>2017-04-09T09:31:29Z</time>
      </trkpt>
      <trkpt lat="48.19659" lon="6.66338">
        <ele>501.46</ele>
        <time>2017-04-09T09:31:32Z</time>
      </trkpt>
      <trkpt lat="48.19658" lon="6.66352">
        <ele>501.46</ele>
        <time>2017-04-09T09:31:35Z</time>
      </trkpt>
      <trkpt lat="48.19657" lon="6.66368">
        <ele>501.95</ele>
        <time>2017-04-09T09:31:38Z</time>
      </trkpt>
      <trkpt lat="48.19654" lon="6.66383">
        <ele>500.98</ele>
        <time>2017-04-09T09:31:41Z</time>
      </trkpt>
      <trkpt lat="48.19652" lon="6.66397">
        <ele>500.02</ele>
        <time>2017-04-09T09:31:43Z</time>
      </trkpt>
      <trkpt lat="48.19649" lon="6.66416">
        <ele>500.5</ele>
        <time>2017-04-09T09:31:46Z</time>
      </trkpt>
      <trkpt lat="48.19645" lon="6.66436">
        <ele>499.06</ele>
        <time>2017-04-09T09:31:49Z</time>
      </trkpt>
      <trkpt lat="48.19641" lon="6.66455">
        <ele>497.62</ele>
        <time>2017-04-09T09:31:51Z</time>
      </trkpt>
      <trkpt lat="48.19638" lon="6.66473">
        <ele>496.66</ele>
        <time>2017-04-09T09:31:53Z</time>
      </trkpt>
      <trkpt lat="48.19636" lon="6.66491">
        <ele>497.14</ele>
        <time>2017-04-09T09:31:55Z</time>
      </trkpt>
      <trkpt lat="48.19633" lon="6.66507">
        <ele>497.62</ele>
        <time>2017-04-09T09:31:57Z</time>
      </trkpt>
      <trkpt lat="48.19631" lon="6.6652">
        <ele>498.58</ele>
        <time>2017-04-09T09:32:00Z</time>
      </trkpt>
      <trkpt lat="48.19625" lon="6.66536">
        <ele>497.62</ele>
        <time>2017-04-09T09:32:03Z</time>
      </trkpt>
      <trkpt lat="48.1962" lon="6.66549">
        <ele>497.14</ele>
        <time>2017-04-09T09:32:05Z</time>
      </trkpt>
      <trkpt lat="48.19614" lon="6.66564">
        <ele>495.7</ele>
        <time>2017-04-09T09:32:07Z</time>
      </trkpt>
      <trkpt lat="48.19608" lon="6.66577">
        <ele>496.18</ele>
        <time>2017-04-09T09:32:09Z</time>
      </trkpt>
      <trkpt lat="48.19602" lon="6.66591">
        <ele>496.66</ele>
        <time>2017-04-09T09:32:12Z</time>
      </trkpt>
      <trkpt lat="48.19593" lon="6.66604">
        <ele>497.14</ele>
        <time>2017-04-09T09:32:16Z</time>
      </trkpt>
      <trkpt lat="48.19584" lon="6.66619">
        <ele>496.66</ele>
        <time>2017-04-09T09:32:20Z</time>
      </trkpt>
      <trkpt lat="48.1958" lon="6.6664">
        <ele>498.1</ele>
        <time>2017-04-09T09:32:26Z</time>
      </trkpt>
      <trkpt lat="48.19568" lon="6.66652">
        <ele>496.18</ele>
        <time>2017-04-09T09:32:32Z</time>
      </trkpt>
      <trkpt lat="48.1956" lon="6.66665">
        <ele>494.74</ele>
        <time>2017-04-09T09:32:34Z</time>
      </trkpt>
      <trkpt lat="48.19553" lon="6.66683">
        <ele>493.77</ele>
        <time>2017-04-09T09:32:36Z</time>
      </trkpt>
      <trkpt lat="48.19547" lon="6.66704">
        <ele>493.29</ele>
        <time>2017-04-09T09:32:38Z</time>
      </trkpt>
      <trkpt lat="48.19546" lon="6.66728">
        <ele>492.33</ele>
        <time>2017-04-09T09:32:40Z</time>
      </trkpt>
      <trkpt lat="48.19547" lon="6.66752">
        <ele>491.37</ele>
        <time>2017-04-09T09:32:42Z</time>
      </trkpt>
      <trkpt lat="48.19552" lon="6.66776">
        <ele>489.93</ele>
        <time>2017-04-09T09:32:44Z</time>
      </trkpt>
      <trkpt lat="48.19558" lon="6.66798">
        <ele>488.49</ele>
        <time>2017-04-09T09:32:46Z</time>
      </trkpt>
      <trkpt lat="48.19565" lon="6.66819">
        <ele>488.49</ele>
        <time>2017-04-09T09:32:48Z</time>
      </trkpt>
      <trkpt lat="48.19571" lon="6.6684">
        <ele>488.49</ele>
        <time>2017-04-09T09:32:50Z</time>
      </trkpt>
      <trkpt lat="48.19575" lon="6.66861">
        <ele>488.49</ele>
        <time>2017-04-09T09:32:52Z</time>
      </trkpt>
      <trkpt lat="48.19576" lon="6.66883">
        <ele>488.49</ele>
        <time>2017-04-09T09:32:54Z</time>
      </trkpt>
      <trkpt lat="48.19576" lon="6.66903">
        <ele>489.45</ele>
        <time>2017-04-09T09:32:56Z</time>
      </trkpt>
      <trkpt lat="48.19574" lon="6.66919">
        <ele>489.93</ele>
        <time>2017-04-09T09:32:58Z</time>
      </trkpt>
      <trkpt lat="48.19573" lon="6.66934">
        <ele>490.41</ele>
        <time>2017-04-09T09:33:00Z</time>
      </trkpt>
      <trkpt lat="48.19571" lon="6.66949">
        <ele>490.41</ele>
        <time>2017-04-09T09:33:02Z</time>
      </trkpt>
      <trkpt lat="48.19569" lon="6.66964">
        <ele>490.41</ele>
        <time>2017-04-09T09:33:04Z</time>
      </trkpt>
      <trkpt lat="48.19567" lon="6.6698">
        <ele>489.93</ele>
        <time>2017-04-09T09:33:06Z</time>
      </trkpt>
      <trkpt lat="48.19564" lon="6.66995">
        <ele>490.41</ele>
        <time>2017-04-09T09:33:08Z</time>
      </trkpt>
      <trkpt lat="48.19561" lon="6.67013">
        <ele>489.93</ele>
        <time>2017-04-09T09:33:11Z</time>
      </trkpt>
      <trkpt lat="48.19557" lon="6.6703">
        <ele>490.41</ele>
        <time>2017-04-09T09:33:14Z</time>
      </trkpt>
      <trkpt lat="48.19554" lon="6.67049">
        <ele>489.45</ele>
        <time>2017-04-09T09:33:17Z</time>
      </trkpt>
      <trkpt lat="48.19552" lon="6.67063">
        <ele>489.45</ele>
        <time>2017-04-09T09:33:19Z</time>
      </trkpt>
      <trkpt lat="48.1955" lon="6.67077">
        <ele>489.45</ele>
        <time>2017-04-09T09:33:21Z</time>
      </trkpt>
      <trkpt lat="48.19548" lon="6.67096">
        <ele>489.93</ele>
        <time>2017-04-09T09:33:24Z</time>
      </trkpt>
      <trkpt lat="48.19548" lon="6.67116">
        <ele>489.93</ele>
        <time>2017-04-09T09:33:27Z</time>
      </trkpt>
      <trkpt lat="48.19549" lon="6.6713">
        <ele>489.45</ele>
        <time>2017-04-09T09:33:29Z</time>
      </trkpt>
      <trkpt lat="48.19553" lon="6.67143">
        <ele>489.45</ele>
        <time>2017-04-09T09:33:31Z</time>
      </trkpt>
      <trkpt lat="48.19557" lon="6.67162">
        <ele>488.97</ele>
        <time>2017-04-09T09:33:34Z</time>
      </trkpt>
      <trkpt lat="48.19559" lon="6.6718">
        <ele>487.53</ele>
        <time>2017-04-09T09:33:37Z</time>
      </trkpt>
      <trkpt lat="48.19551" lon="6.67192">
        <ele>486.08</ele>
        <time>2017-04-09T09:33:40Z</time>
      </trkpt>
      <trkpt lat="48.19539" lon="6.67204">
        <ele>484.64</ele>
        <time>2017-04-09T09:33:43Z</time>
      </trkpt>
      <trkpt lat="48.19529" lon="6.67215">
        <ele>482.24</ele>
        <time>2017-04-09T09:33:45Z</time>
      </trkpt>
      <trkpt lat="48.1952" lon="6.67226">
        <ele>480.32</ele>
        <time>2017-04-09T09:33:47Z</time>
      </trkpt>
      <trkpt lat="48.1951" lon="6.67237">
        <ele>478.39</ele>
        <time>2017-04-09T09:33:49Z</time>
      </trkpt>
      <trkpt lat="48.19498" lon="6.67247">
        <ele>475.99</ele>
        <time>2017-04-09T09:33:51Z</time>
      </trkpt>
      <trkpt lat="48.19486" lon="6.67255">
        <ele>474.55</ele>
        <time>2017-04-09T09:33:53Z</time>
      </trkpt>
      <trkpt lat="48.19473" lon="6.67262">
        <ele>474.07</ele>
        <time>2017-04-09T09:33:55Z</time>
      </trkpt>
      <trkpt lat="48.19461" lon="6.67271">
        <ele>472.63</ele>
        <time>2017-04-09T09:33:57Z</time>
      </trkpt>
      <trkpt lat="48.19449" lon="6.67279">
        <ele>471.66</ele>
        <time>2017-04-09T09:33:59Z</time>
      </trkpt>
      <trkpt lat="48.19436" lon="6.6729">
        <ele>471.18</ele>
        <time>2017-04-09T09:34:01Z</time>
      </trkpt>
      <trkpt lat="48.19427" lon="6.67307">
        <ele>470.7</ele>
        <time>2017-04-09T09:34:03Z</time>
      </trkpt>
      <trkpt lat="48.1942" lon="6.67325">
        <ele>469.74</ele>
        <time>2017-04-09T09:34:05Z</time>
      </trkpt>
      <trkpt lat="48.19413" lon="6.67343">
        <ele>470.22</ele>
        <time>2017-04-09T09:34:07Z</time>
      </trkpt>
      <trkpt lat="48.19407" lon="6.6736">
        <ele>469.74</ele>
        <time>2017-04-09T09:34:09Z</time>
      </trkpt>
      <trkpt lat="48.19402" lon="6.67377">
        <ele>470.22</ele>
        <time>2017-04-09T09:34:11Z</time>
      </trkpt>
      <trkpt lat="48.19397" lon="6.67394">
        <ele>470.22</ele>
        <time>2017-04-09T09:34:13Z</time>
      </trkpt>
      <trkpt lat="48.19393" lon="6.67412">
        <ele>469.26</ele>
        <time>2017-04-09T09:34:15Z</time>
      </trkpt>
      <trkpt lat="48.19388" lon="6.6743">
        <ele>468.78</ele>
        <time>2017-04-09T09:34:17Z</time>
      </trkpt>
      <trkpt lat="48.19381" lon="6.67443">
        <ele>468.3</ele>
        <time>2017-04-09T09:34:19Z</time>
      </trkpt>
      <trkpt lat="48.19374" lon="6.67451">
        <ele>468.78</ele>
        <time>2017-04-09T09:34:21Z</time>
      </trkpt>
      <trkpt lat="48.19363" lon="6.67462">
        <ele>467.82</ele>
        <time>2017-04-09T09:34:24Z</time>
      </trkpt>
      <trkpt lat="48.19356" lon="6.67471">
        <ele>467.82</ele>
        <time>2017-04-09T09:34:26Z</time>
      </trkpt>
      <trkpt lat="48.19348" lon="6.67479">
        <ele>467.82</ele>
        <time>2017-04-09T09:34:28Z</time>
      </trkpt>
      <trkpt lat="48.19339" lon="6.67484">
        <ele>466.86</ele>
        <time>2017-04-09T09:34:30Z</time>
      </trkpt>
      <trkpt lat="48.19329" lon="6.67489">
        <ele>467.34</ele>
        <time>2017-04-09T09:34:32Z</time>
      </trkpt>
      <trkpt lat="48.1932" lon="6.67493">
        <ele>466.86</ele>
        <time>2017-04-09T09:34:34Z</time>
      </trkpt>
      <trkpt lat="48.1931" lon="6.67497">
        <ele>466.38</ele>
        <time>2017-04-09T09:34:36Z</time>
      </trkpt>
      <trkpt lat="48.193" lon="6.67502">
        <ele>466.38</ele>
        <time>2017-04-09T09:34:38Z</time>
      </trkpt>
      <trkpt lat="48.19289" lon="6.67508">
        <ele>466.38</ele>
        <time>2017-04-09T09:34:41Z</time>
      </trkpt>
      <trkpt lat="48.1928" lon="6.67513">
        <ele>465.9</ele>
        <time>2017-04-09T09:34:44Z</time>
      </trkpt>
      <trkpt lat="48.19271" lon="6.67507">
        <ele>465.9</ele>
        <time>2017-04-09T09:34:48Z</time>
      </trkpt>
      <trkpt lat="48.19263" lon="6.67497">
        <ele>465.42</ele>
        <time>2017-04-09T09:34:52Z</time>
      </trkpt>
    </trkseg>
  </trk>
</gpx>